GFSMA_prec_cloud_003.txt.gz
Cloud_Cover
88 51 28 36 45 84 89 100 100 100 100 58 31 29 30 36 34 38 6 20 11 2 3 5 5 21 8 5 4 4 4 5 0 0 0 1 0 3 5 5 27 100 99
29 31 48 98 100 100 100 100 100 100 100 98 90 80 6 8 13 33 9 48 10 41 5 0 0 8 60 70 52 8 0 0 0 0 0 0 5 5 36 47 36 100 100
43 66 96 100 100 100 100 100 34 18 7 2 4 5 5 5 5 5 5 5 5 10 44 5 4 0 1 62 100 98 24 4 0 0 5 5 5 5 8 63 26 90 77
38 47 100 88 100 74 11 5 29 14 10 5 4 2 5 4 13 5 3 4 12 5 5 5 3 0 0 0 0 54 81 4 4 1 4 5 5 5 5 5 5 17 77
3 5 5 7 37 5 5 5 2 0 0 0 4 5 17 22 7 2 0 8 65 51 97 9 5 5 20 5 3 2 22 5 3 5 5 7 5 5 5 5 5 5 5
0 0 4 5 4 0 1 2 0 0 0 2 28 28 5 3 0 0 14 2 17 40 19 5 21 100 6 57 40 10 14 97 74 15 9 8 5 5 5 5 5 5 5
0 0 0 0 0 0 0 1 3 6 28 5 2 3 0 0 0 0 4 7 5 5 5 5 74 100 100 5 41 22 100 66 91 100 79 1 4 17 9 37 8 2 5
0 0 0 4 5 5 5 28 47 20 5 5 4 0 0 1 1 4 3 5 5 5 5 5 5 5 0 0 0 69 13 30 78 78 46 100 100 100 100 100 70 16 0
0 0 0 2 4 5 1 0 0 0 2 5 0 0 0 0 4 18 8 60 42 15 5 6 5 8 5 5 5 5 0 0 0 17 71 82 40 100 100 100 100 100 100
0 0 0 0 0 0 0 0 0 3 0 3 5 4 0 0 0 0 4 5 6 5 14 31 17 5 5 5 5 5 5 2 6 12 76 98 78 92 100 100 100 96 94
5 1 1 0 0 0 0 0 2 5 3 0 0 2 5 5 58 5 5 0 0 0 1 5 5 0 0 36 5 80 16 50 26 24 66 100 100 100 100 98 68 100 93
5 5 5 59 52 48 26 5 5 5 0 5 5 5 5 5 2 0 0 0 0 0 0 0 0 4 4 4 71 78 99 100 100 100 95 100 100 100 100 99 97 100 100
8 5 5 7 40 41 5 5 25 54 15 5 4 3 4 0 2 0 0 0 0 0 0 0 0 3 2 0 1 21 47 5 44 53 61 89 100 98 77 94 100 100 100
11 5 5 5 6 18 68 72 17 24 5 0 1 3 4 5 5 1 0 0 0 0 0 0 0 0 0 2 0 0 0 0 4 5 5 5 5 5 15 20 98 100 100
7 5 32 58 88 44 14 60 12 5 5 5 4 5 5 0 0 0 0 0 0 0 0 0 0 0 20 0 88 5 0 0 2 5 0 14 70 5 4 5 100 98 100
23 77 100 100 100 89 93 22 5 4 5 4 1 2 0 0 0 0 0 0 1 0 1 0 0 0 2 15 32 4 70 1 3 6 11 34 72 3 20 5 62 100 100
100 100 100 69 97 78 5 4 1 3 0 0 0 0 0 0 0 0 0 0 1 12 96 4 5 5 2 3 4 2 4 5 4 19 5 29 4 5 4 53 5 5 10
72 100 100 100 95 5 5 5 3 0 0 0 0 0 0 0 0 0 0 5 5 5 57 72 5 5 5 5 5 5 0 0 2 3 5 99 76 14 96 66 85 67 5
67 100 83 6 21 5 2 0 0 0 0 0 0 0 0 0 3 5 14 25 5 49 81 100 23 5 5 5 5 5 4 0 5 5 5 35 68 99 12 25 100 96 100
63 63 90 9 4 0 0 0 0 0 0 0 0 0 1 5 5 5 5 36 94 28 55 97 91 74 63 5 81 78 11 4 1 4 3 5 5 54 35 100 100 100 100
99 23 0 0 0 0 0 0 0 0 0 0 0 5 5 9 53 96 100 77 50 50 50 96 91 98 61 5 5 5 5 24 5 33 6 5 5 78 96 96 100 100 100
4 0 0 0 0 0 0 0 0 4 5 5 5 5 5 5 39 81 99 100 100 100 100 100 100 100 86 5 5 93 99 100 99 35 90 5 8 14 5 66 48 100 28
0 0 0 0 0 0 0 0 3 5 5 5 8 5 5 5 98 8 43 95 100 100 99 100 100 73 59 76 85 96 98 60 42 22 90 40 91 58 98 49 10 71 85
1 0 0 0 0 0 0 0 5 12 5 12 6 75 59 79 11 100 100 99 95 46 60 97 100 97 93 88 100 99 90 98 86 79 100 100 100 100 100 100 100 100 100
0 0 0 0 0 0 0 2 29 74 6 5 84 100 97 93 96 100 100 93 5 5 15 97 100 100 100 100 100 100 100 100 100 86 100 99 100 90 100 75 100 69 100
0 0 0 0 0 0 0 5 58 30 60 84 93 80 89 100 100 100 100 96 69 28 85 64 5 5 13 99 100 100 100 100 100 97 100 94 100 100 100 100 97 94 60

GFSMA_prec_cloud_006.txt.gz
Cloud_Cover
89 44 40 26 100 100 100 100 100 100 100 100 100 100 100 100 94 91 77 96 68 5 5 0 5 6 58 100 100 100 100 70 5 5 5 4 5 4 1 4 2 3 5
2 27 93 100 100 100 100 100 79 50 8 77 100 100 100 80 52 4 65 6 3 5 5 5 5 5 5 5 52 71 7 100 97 7 0 0 0 1 3 2 5 5 5
21 90 100 100 79 50 64 42 88 96 35 24 90 40 35 6 5 5 0 0 4 5 3 12 5 5 39 5 5 5 5 2 2 34 20 2 4 5 5 5 5 5 5
15 62 8 0 0 11 52 38 60 84 100 100 74 22 6 4 5 1 3 0 58 92 100 68 95 5 2 12 5 88 4 6 7 5 5 11 31 9 5 5 5 5 5
0 0 0 0 0 0 5 46 78 59 84 73 3 1 0 3 0 0 0 1 23 42 51 7 62 7 38 62 45 88 62 38 29 5 5 5 5 8 43 32 16 64 66
5 1 0 0 0 0 0 1 1 2 5 5 4 5 3 0 0 3 4 64 11 5 0 0 0 1 4 12 69 12 100 99 61 78 97 65 100 88 77 100 100 80 19
73 3 1 0 0 0 0 0 0 0 0 0 0 5 5 20 22 48 65 10 5 2 0 5 5 5 3 1 0 5 5 44 72 71 15 100 100 100 100 100 100 100 26
4 4 5 5 0 1 0 0 0 4 5 4 5 5 29 62 5 1 4 4 0 2 5 3 0 0 4 5 3 0 0 0 0 0 4 13 100 100 100 100 100 100 43
5 0 0 0 0 0 2 0 0 1 4 3 0 0 2 5 4 13 7 4 4 5 5 5 5 5 5 5 2 0 0 0 0 0 2 78 85 97 100 100 100 100 100
1 0 0 0 0 0 1 3 5 3 5 5 5 5 5 0 0 3 5 5 5 6 5 47 20 5 5 0 0 1 57 100 76 60 24 79 100 100 93 90 99 100 100
0 0 0 5 5 5 5 5 5 0 0 0 0 5 9 7 6 4 4 5 5 5 0 0 0 1 1 0 0 0 4 0 4 98 100 44 100 100 100 100 100 100 100
2 44 63 70 48 32 8 5 5 2 0 5 5 5 5 5 0 1 0 0 0 2 3 4 0 0 0 0 0 0 0 0 0 2 4 66 100 100 100 100 99 100 100
29 33 5 5 5 5 5 4 0 5 18 19 5 5 11 5 4 1 2 0 1 1 0 0 0 0 0 0 0 1 0 2 0 0 0 3 27 100 95 68 64 31 51
60 74 7 5 5 5 5 5 17 39 34 11 23 5 5 5 5 1 0 0 0 0 0 0 0 0 0 64 4 1 1 10 52 9 5 5 5 5 5 5 5 5 5
42 5 5 5 5 5 6 40 59 44 35 98 58 34 5 5 4 0 0 0 0 0 0 0 0 0 5 2 1 94 5 4 5 5 5 21 6 14 35 70 78 60 35
5 5 5 5 5 5 6 11 12 77 98 32 5 5 5 0 0 0 0 0 0 1 2 0 4 2 0 4 2 18 5 5 5 58 5 6 15 43 47 94 100 100 100
5 55 32 5 48 93 76 100 100 54 5 5 3 0 0 0 0 0 0 0 0 5 87 1 0 0 5 2 0 4 5 5 5 81 92 62 5 5 26 42 45 99 100
72 45 32 99 71 24 76 13 14 6 0 0 0 0 0 0 0 0 0 5 5 5 5 5 5 5 4 4 5 5 5 16 7 6 7 7 5 5 22 56 9 8 100
86 99 100 72 33 11 45 16 4 1 0 0 0 0 0 0 0 5 5 5 5 12 78 100 8 5 35 6 5 8 30 6 5 5 5 53 99 100 90 100 100 79 31
100 100 100 72 19 16 6 2 0 0 0 0 0 0 0 2 5 5 5 40 100 100 100 86 100 77 5 11 90 96 12 3 4 5 3 94 82 5 96 85 64 49 34
100 86 30 6 4 0 0 0 0 0 0 0 1 0 4 5 32 80 100 100 100 90 89 100 98 98 99 100 95 9 5 5 4 14 95 1 5 5 5 5 30 5 21
53 14 4 0 0 0 0 0 0 0 0 0 1 5 5 33 61 96 93 100 100 100 100 100 100 83 14 54 100 100 36 100 91 74 19 28 66 16 63 43 76 100 100
5 0 0 0 0 0 0 0 0 0 5 3 5 5 6 93 58 5 5 96 100 100 100 100 78 13 100 80 100 95 100 100 100 79 92 98 49 80 46 26 100 99 97
0 0 4 0 0 0 0 0 0 5 5 5 5 5 12 14 13 100 96 100 81 93 20 5 84 100 100 100 100 100 98 89 94 94 100 100 68 91 100 100 100 100 100
5 5 2 0 0 0 0 0 4 5 5 5 5 70 87 89 91 100 100 100 95 42 5 12 99 100 59 99 100 100 100 100 100 100 59 85 100 100 100 100 100 100 100
5 0 0 0 0 0 0 0 5 50 9 35 60 93 95 100 100 100 100 100 100 5 55 100 5 0 2 29 98 100 100 100 100 100 39 100 91 94 100 100 100 100 100

GFSMA_prec_cloud_009.txt.gz
Cloud_Cover
89 72 98 71 96 98 99 75 21 30 51 11 4 5 5 13 37 100 100 100 100 100 65 5 5 4 21 5 5 6 4 5 5 5 88 100 8 1 1 5 5 5 5
7 83 100 100 100 100 92 5 5 5 51 85 52 16 17 36 84 100 100 100 100 97 6 5 3 3 64 42 11 28 90 5 6 92 5 7 45 36 9 5 0 1 0
100 100 100 100 64 1 0 0 0 5 42 38 95 83 82 81 64 65 100 100 100 95 6 5 98 12 0 0 1 6 57 89 16 16 58 9 79 61 81 12 5 5 5
76 87 39 0 0 0 0 0 0 0 3 12 20 66 79 88 94 71 52 8 3 4 11 0 4 28 58 0 5 12 5 98 6 13 14 5 7 7 64 96 100 59 97
39 20 5 4 2 0 0 0 0 0 0 0 2 5 5 5 21 5 25 5 1 0 0 0 0 2 4 58 68 39 5 0 4 7 91 76 28 9 50 57 97 100 100
100 100 98 45 5 2 0 0 0 0 0 0 0 0 0 0 0 0 1 0 0 0 2 4 5 5 20 58 41 90 47 0 0 0 4 4 99 11 96 100 100 100 100
63 16 13 2 5 2 0 0 0 0 0 0 0 0 0 0 3 0 2 4 4 5 5 5 5 5 5 5 5 0 4 5 5 5 0 0 0 54 97 99 98 100 100
5 5 5 5 3 0 0 0 0 0 0 0 0 0 0 1 0 0 0 0 0 4 5 5 5 4 5 3 4 4 5 3 4 4 4 8 8 5 5 100 100 77 100
5 5 5 2 2 2 0 0 0 0 0 0 0 0 0 1 2 5 7 5 13 23 15 9 29 27 20 5 5 5 4 5 5 4 2 49 100 100 100 100 28 14 74
0 0 0 0 0 2 4 2 4 0 0 0 0 0 0 0 0 0 10 96 100 100 100 100 100 100 79 65 5 5 2 2 5 5 5 61 50 100 100 100 100 100 100
0 0 0 0 5 5 5 5 0 0 0 0 0 0 0 0 0 0 0 0 0 4 26 5 5 5 5 5 5 0 0 0 0 2 5 13 87 97 78 100 100 100 100
0 0 5 5 5 5 5 2 1 1 0 0 0 0 0 0 0 0 0 0 1 0 0 0 0 0 0 0 0 0 3 4 0 2 5 5 22 41 97 100 100 100 100
3 5 5 5 5 5 5 5 5 5 5 0 1 1 0 0 0 3 0 0 0 2 2 0 0 0 0 0 0 1 0 0 4 5 41 94 100 100 100 100 100 100 100
5 5 5 5 5 5 5 5 5 5 5 5 5 5 5 5 5 0 0 0 0 0 0 0 0 0 0 2 0 0 1 5 5 5 9 96 100 100 100 100 100 100 100
5 5 5 5 5 5 5 5 5 5 5 9 5 5 4 1 5 5 0 0 0 0 0 0 0 0 0 0 0 4 0 0 2 5 72 100 100 100 100 100 100 100 100
5 5 2 4 5 5 5 5 5 5 9 5 5 5 3 1 0 0 0 0 0 0 3 0 0 0 0 0 0 4 0 5 3 5 91 100 100 100 100 100 100 98 70
5 5 5 5 5 11 35 7 8 56 15 5 1 0 0 0 0 0 0 0 1 29 38 0 0 0 0 0 0 4 5 5 27 90 100 100 100 100 100 72 74 98 100
77 10 7 74 75 60 71 98 68 5 5 0 0 0 0 0 0 0 1 5 5 5 44 67 5 4 5 5 5 6 5 5 9 7 23 79 94 54 88 100 100 100 100
6 40 89 84 100 100 80 8 4 2 0 0 0 0 0 0 0 5 5 11 11 72 98 100 70 5 53 56 63 11 6 12 32 71 85 15 18 100 100 100 89 100 100
98 100 100 100 96 36 5 5 0 0 0 0 0 0 0 0 5 31 69 88 100 91 6 32 20 97 99 92 42 19 4 44 20 5 7 13 100 98 19 66 100 100 100
100 96 99 99 32 5 1 0 0 0 0 0 0 0 0 5 24 94 100 58 60 13 67 100 100 96 6 5 5 5 95 31 30 96 97 29 5 5 5 5 12 90 100
96 98 37 5 0 0 0 0 0 0 0 0 0 0 0 5 5 81 68 100 100 100 100 100 100 86 27 7 5 42 100 100 89 47 100 59 100 60 55 5 92 100 100
65 5 4 2 1 5 4 0 0 0 0 1 5 5 5 5 5 23 5 91 96 87 100 100 100 64 92 18 100 100 72 100 100 100 100 98 75 21 5 5 11 92 100
47 5 5 9 5 1 0 0 0 3 5 5 5 40 60 5 52 100 97 89 90 100 90 96 56 97 100 100 100 100 100 100 99 100 100 100 58 84 5 76 100 100 100
5 5 38 5 0 0 0 0 5 5 5 5 29 99 97 97 90 100 100 100 97 28 5 13 100 99 45 47 100 100 100 100 99 100 100 100 31 89 96 100 100 100 100
71 59 5 2 0 0 0 5 78 10 5 5 5 5 5 84 100 100 100 100 29 5 90 100 22 100 100 98 100 100 100 100 100 97 94 100 98 91 100 100 69 100 100

GFSMA_prec_cloud_012.txt.gz
Cloud_Cover
33 100 90 95 70 100 100 99 38 7 5 41 14 84 100 56 33 5 5 5 5 37 95 100 100 100 100 100 100 100 26 5 58 8 5 5 4 7 6 14 14 5 0
62 100 100 100 100 100 69 36 5 18 88 44 5 1 5 24 85 95 31 5 28 22 6 32 100 100 100 100 100 41 5 67 32 5 4 12 15 11 18 62 86 36 64
100 100 100 100 65 8 0 0 5 32 8 0 0 0 0 4 5 5 5 5 83 87 42 90 99 100 85 19 16 96 69 7 5 5 5 83 4 4 5 5 62 78 56
100 94 20 19 16 6 5 5 0 0 0 0 0 0 0 0 0 5 2 3 5 34 12 44 73 92 79 72 8 5 5 0 0 0 0 4 24 5 32 5 5 5 5
96 71 27 63 31 16 5 5 5 2 0 0 0 0 0 0 0 0 0 0 0 0 0 0 1 1 1 4 5 4 0 0 0 0 0 2 5 55 78 25 5 5 5
23 85 69 15 5 5 5 5 5 5 11 5 0 0 0 0 0 0 0 0 0 0 0 0 0 0 0 0 4 5 5 5 5 5 5 5 5 5 5 43 24 5 4
8 87 79 7 5 5 12 14 26 4 1 0 0 0 0 0 0 0 0 1 0 0 0 0 0 0 2 0 0 0 0 0 3 5 5 5 3 2 0 5 5 5 6
5 5 5 2 0 0 0 0 0 0 0 0 0 0 11 7 5 1 0 0 0 0 0 0 0 3 3 3 0 2 2 0 0 2 3 5 5 5 5 16 90 100 100
0 0 0 0 0 0 0 0 0 0 0 0 0 0 0 0 0 4 2 0 0 0 0 3 2 3 4 3 2 5 5 5 5 5 5 5 5 5 5 10 100 100 100
0 0 0 0 0 0 0 0 0 0 0 0 0 0 0 0 0 0 1 1 4 5 5 0 0 2 1 1 4 4 5 5 4 4 5 5 5 5 5 8 100 86 98
0 0 0 0 0 0 0 0 0 0 0 0 0 0 0 0 0 0 0 0 0 5 5 0 0 2 5 5 5 5 5 4 5 5 5 5 10 40 38 62 83 100 100
0 1 0 0 0 0 0 0 0 0 0 0 0 0 0 0 0 0 0 0 0 0 0 1 2 2 1 0 0 0 0 4 2 5 5 5 94 88 99 100 100 100 100
4 5 0 0 0 0 0 2 5 0 4 3 0 0 0 0 0 0 0 0 0 0 0 0 0 0 0 0 0 0 0 0 1 5 5 6 48 80 99 100 100 100 100
0 0 0 0 0 5 5 4 4 5 5 5 5 5 4 2 0 0 0 0 0 0 0 0 0 0 0 0 0 0 0 0 5 5 61 83 84 100 100 100 100 100 100
0 0 5 5 5 5 5 5 5 5 44 5 5 5 5 5 5 0 0 0 0 5 1 0 0 4 3 0 0 0 1 2 5 38 77 100 100 100 100 100 100 100 100
4 5 5 5 3 4 5 5 5 5 5 5 5 5 5 3 0 0 0 0 0 4 16 2 1 4 0 1 0 5 5 5 5 33 100 100 100 100 100 100 100 100 100
1 1 5 5 5 5 5 5 5 5 5 5 5 5 2 0 0 0 0 0 5 6 80 4 2 0 4 5 5 5 76 94 70 11 96 100 100 100 100 100 100 100 100
4 4 5 5 15 5 5 14 5 5 5 5 0 0 0 0 4 0 0 5 5 5 92 70 5 5 5 5 59 100 13 36 5 2 19 100 100 100 100 100 100 100 100
5 8 27 50 55 68 54 52 26 5 0 0 0 1 4 0 0 1 5 5 40 91 96 87 6 5 5 51 100 22 4 0 0 1 85 100 100 100 100 100 100 100 100
52 63 19 55 66 52 38 20 5 5 5 0 5 0 0 0 1 6 6 86 97 26 5 13 92 76 83 97 61 17 2 2 3 45 83 53 96 100 100 100 100 100 100
39 44 96 95 21 5 5 5 5 5 4 4 0 0 4 5 5 81 100 100 96 84 99 100 68 64 100 29 5 5 5 10 96 74 7 5 72 37 5 6 5 37 100
86 100 91 43 5 65 5 5 5 5 0 0 0 5 5 5 5 100 92 100 100 100 100 93 100 78 11 44 5 100 100 94 53 100 72 100 100 70 41 44 53 100 100
96 100 73 63 96 5 5 5 4 3 1 4 5 5 5 5 76 28 22 82 26 48 100 95 19 37 99 88 100 99 95 100 100 95 97 97 47 99 36 5 17 99 100
96 95 100 56 5 5 5 1 5 5 4 0 0 5 5 5 5 100 88 92 100 50 5 4 96 99 100 99 100 100 100 100 98 47 99 100 5 64 5 5 9 52 97
100 87 7 6 23 5 5 5 5 5 5 5 5 16 75 6 28 100 100 93 86 11 0 49 100 68 48 99 100 100 100 100 100 99 100 100 42 96 97 22 5 6 100
44 5 78 30 5 5 5 5 33 5 5 5 24 66 32 79 100 100 100 64 27 8 100 88 100 100 100 100 100 100 100 100 100 100 100 100 100 96 100 5 5 45 100

GFSMA_prec_cloud_015.txt.gz
Cloud_Cover
85 78 100 100 100 100 95 51 11 3 4 5 5 5 5 68 89 86 97 99 100 100 68 42 10 5 5 14 80 100 100 100 100 100 100 100 100 100 94 8 54 62 56
100 100 100 100 100 100 50 7 5 5 3 0 15 0 2 5 3 4 4 5 86 96 99 100 93 78 100 83 84 61 100 100 100 100 100 100 100 100 100 85 11 33 17
100 100 100 100 75 12 3 5 5 5 5 5 5 0 0 0 0 0 0 0 0 1 5 5 5 59 88 86 26 5 5 12 41 100 100 100 100 100 97 92 92 93 6
100 100 77 18 8 5 5 5 5 5 5 5 5 5 5 1 4 0 0 0 0 0 0 0 0 4 5 5 6 5 5 5 5 18 18 85 60 44 14 97 14 4 4
100 100 91 5 5 53 61 79 67 28 5 5 5 3 2 3 1 0 0 0 0 0 0 0 0 0 0 0 0 0 0 0 0 0 0 0 2 0 1 2 0 1 0
67 57 7 6 5 5 5 6 5 5 4 0 0 0 0 0 0 0 0 0 2 4 6 25 5 5 5 5 5 3 5 4 5 5 19 15 19 6 24 28 37 78 76
44 3 5 5 0 0 1 4 0 0 0 0 0 0 0 0 5 5 0 0 0 0 0 0 0 0 0 0 0 0 0 0 0 2 1 5 5 5 7 5 5 5 5
0 0 0 0 0 0 0 0 0 0 0 0 0 0 0 1 0 0 0 0 0 0 0 0 0 0 0 0 0 0 0 0 0 0 1 5 5 5 5 5 5 5 5
0 0 0 0 0 0 0 0 0 0 0 0 0 0 0 0 0 0 0 0 0 0 0 0 0 0 0 0 0 0 0 0 0 0 5 5 5 5 5 5 5 5 5
0 0 0 0 0 0 0 0 0 0 0 0 0 0 0 0 0 0 0 5 4 4 5 5 4 5 5 5 3 0 0 0 0 4 5 5 5 5 5 6 31 6 6
0 0 0 0 0 0 0 0 0 0 0 0 0 0 0 0 0 0 0 0 4 5 5 5 5 5 5 5 0 0 0 0 1 5 5 5 5 14 8 50 77 43 28
4 0 0 0 0 0 0 0 0 0 0 0 0 0 0 0 0 0 0 0 0 0 1 3 5 5 5 4 0 0 0 0 5 5 5 5 73 71 87 81 85 80 81
1 0 5 0 0 0 0 0 0 0 0 0 0 0 1 0 0 0 0 0 0 0 0 0 0 0 0 0 0 0 0 5 4 5 5 7 79 98 100 80 98 98 100
0 0 0 0 0 0 0 0 0 0 1 3 5 5 5 1 2 0 0 0 0 0 0 0 0 0 0 0 0 4 0 0 0 5 10 95 100 100 100 100 100 100 100
0 0 0 0 0 0 0 0 5 5 5 5 5 5 5 5 5 1 0 0 2 5 6 1 5 2 4 3 4 5 3 1 8 100 100 100 100 100 100 100 100 100 100
0 0 0 0 0 0 0 5 5 5 5 5 5 5 5 5 4 0 0 0 0 5 78 4 5 5 5 5 5 5 5 5 19 100 100 100 100 100 100 100 100 100 100
0 1 5 1 0 5 5 5 5 5 5 5 5 5 5 4 4 0 0 0 5 5 48 5 5 5 5 5 5 5 89 92 92 38 100 62 86 100 100 100 100 100 100
5 5 0 5 5 5 25 5 5 51 5 5 5 5 5 5 0 0 0 4 5 5 56 87 6 4 0 5 5 18 99 100 100 60 5 27 100 100 100 100 100 100 100
5 1 5 5 65 54 5 53 20 5 5 5 5 5 2 1 1 1 5 5 12 88 98 99 22 5 6 5 57 98 99 40 3 0 5 9 96 100 100 100 100 100 100
5 5 16 76 14 46 14 5 5 5 5 5 5 1 4 0 2 5 17 62 100 49 54 94 96 95 50 73 100 91 4 3 5 8 87 58 65 88 89 100 100 100 100
8 53 79 82 30 5 5 5 5 5 4 1 4 1 2 2 5 31 100 74 73 64 97 100 99 100 92 13 5 5 28 53 74 52 76 30 29 74 88 60 31 26 100
83 31 5 3 5 5 5 5 5 5 5 3 0 0 0 0 5 13 15 99 100 100 100 100 99 25 5 5 12 100 100 100 99 100 100 17 54 72 5 5 24 100 100
4 0 5 5 12 5 5 4 5 5 3 0 0 0 1 5 5 5 5 62 100 98 95 76 22 32 99 88 100 100 100 100 100 100 100 100 54 21 10 68 7 96 100
4 5 5 52 5 5 5 5 5 5 0 0 0 1 5 5 31 100 94 94 5 5 5 5 97 89 100 100 100 100 100 100 100 100 100 100 68 100 100 99 78 62 94
5 43 39 5 5 5 4 2 5 5 5 5 5 76 86 93 94 100 100 80 61 4 2 45 98 73 34 60 100 100 100 100 100 100 100 100 96 98 100 100 79 6 83
96 5 5 5 5 0 0 5 6 5 5 6 60 5 79 97 100 100 100 98 41 4 98 90 5 30 66 99 100 100 100 100 100 100 98 100 95 96 100 87 100 21 5

GFSMA_prec_cloud_018.txt.gz
Cloud_Cover
60 100 71 100 100 100 100 32 5 0 4 0 0 5 5 3 2 4 0 0 0 1 3 4 5 48 69 100 100 100 100 100 100 100 100 100 100 100 100 100 100 100 100
100 100 100 100 100 100 100 46 4 4 1 0 0 1 5 5 5 5 4 4 0 0 0 0 0 4 5 5 8 33 37 25 80 100 100 100 100 100 100 100 100 100 100
100 100 100 100 100 99 16 5 5 1 2 5 5 0 0 0 0 0 0 0 0 0 0 0 0 0 0 0 0 4 5 2 5 5 11 60 92 98 98 100 100 100 100
100 100 100 100 97 7 5 7 5 4 2 0 0 0 0 0 0 0 0 0 0 0 0 0 0 0 0 0 0 0 0 4 4 3 4 2 5 5 5 5 16 90 100
100 100 100 67 79 54 28 5 0 0 0 0 0 0 0 0 0 0 0 0 0 0 0 2 4 4 5 26 5 5 5 5 23 32 6 5 5 5 5 0 0 0 5
97 100 15 68 59 38 36 4 0 0 0 0 0 0 0 0 0 0 0 0 0 4 3 0 0 0 0 0 0 0 0 0 1 1 4 3 3 2 2 0 0 0 0
67 14 66 80 5 5 5 0 0 0 0 0 0 0 0 0 0 0 0 0 0 0 0 0 0 0 0 0 0 0 0 0 0 0 0 0 5 0 0 0 0 2 0
18 68 45 4 5 5 0 0 0 0 0 0 0 0 0 0 0 0 0 0 0 0 0 0 0 0 0 0 0 0 0 0 0 0 5 5 4 5 5 5 5 4 4
5 13 5 5 5 3 0 0 0 0 0 0 0 0 0 0 0 0 0 0 0 0 0 0 0 0 0 0 0 0 0 0 0 0 5 5 5 5 5 5 5 5 5
14 56 5 5 5 5 0 0 0 0 0 0 0 0 0 0 0 0 0 2 0 2 5 5 0 3 1 1 0 0 0 0 0 3 5 5 5 5 5 22 88 100 86
14 5 5 68 74 23 0 4 0 0 0 0 0 0 0 0 0 0 4 0 0 3 3 5 5 5 5 5 2 0 0 0 4 5 5 5 5 6 13 62 90 97 100
50 5 22 82 73 5 0 0 0 0 0 0 0 0 0 0 0 0 0 0 0 0 0 3 5 4 0 0 0 0 0 0 5 5 5 90 72 94 85 100 100 100 100
80 43 39 52 6 0 0 0 0 0 0 0 0 0 0 0 1 0 0 0 0 0 0 0 0 0 0 0 0 0 0 5 5 5 5 63 100 100 100 100 100 100 100
14 10 5 1 0 0 0 0 0 0 0 0 2 4 5 5 5 0 0 0 1 0 0 0 0 0 0 0 2 5 1 1 4 5 5 20 91 100 100 100 100 100 100
41 5 0 0 0 0 0 2 2 0 5 5 5 5 5 5 5 5 0 0 0 4 0 0 0 0 0 5 2 5 5 5 93 100 84 85 100 99 100 100 100 100 100
2 5 0 0 0 5 0 0 5 5 5 11 11 5 5 4 0 0 0 0 0 5 59 1 5 5 5 5 5 5 5 7 5 8 100 90 67 100 100 100 100 100 100
5 5 5 5 5 2 0 5 5 18 68 33 5 5 5 0 0 0 0 0 1 5 33 5 5 5 5 5 5 5 45 100 51 76 80 100 100 100 100 100 100 100 100
5 5 5 5 5 5 5 5 6 5 5 4 5 5 4 0 0 0 0 1 5 5 85 62 5 10 5 5 5 39 97 100 87 35 5 99 100 100 100 100 100 100 100
5 5 5 5 5 5 6 6 0 0 0 5 5 2 0 0 0 0 5 5 36 83 83 86 29 5 5 94 89 26 5 0 5 5 34 83 100 100 100 100 100 100 100
5 5 5 5 5 5 2 2 0 2 5 5 5 0 0 0 0 8 55 92 87 5 5 41 77 99 92 11 5 2 4 5 45 81 71 40 98 76 65 100 100 100 100
26 86 5 5 5 0 0 0 4 5 5 5 0 0 0 0 5 45 100 81 96 15 84 100 94 60 15 5 5 5 94 100 90 100 54 77 43 5 61 23 15 44 97
96 5 5 5 0 0 5 5 5 5 5 3 4 0 0 4 5 12 28 90 100 100 88 97 69 97 12 5 10 100 100 100 96 96 100 100 82 83 56 5 32 100 100
7 5 5 5 0 5 5 5 5 5 5 5 3 1 5 5 5 5 5 73 100 55 14 21 5 5 76 85 100 100 100 100 100 97 100 100 62 70 97 78 100 100 100
5 5 0 2 5 5 3 0 5 5 5 5 5 5 5 5 5 99 74 100 5 5 5 5 41 78 100 100 100 100 100 100 99 95 100 100 82 38 57 100 100 100 100
5 5 5 5 5 0 0 4 5 5 5 5 5 16 5 74 92 100 100 94 30 5 2 29 96 83 28 63 97 100 93 100 100 100 93 100 96 98 100 100 100 100 100
5 5 5 3 4 0 5 5 5 59 6 5 78 11 6 98 100 100 100 90 39 3 74 96 7 5 5 17 91 100 100 100 100 95 80 100 94 94 100 100 100 100 100

GFSMA_prec_cloud_021.txt.gz
Cloud_Cover
58 100 94 99 100 96 79 74 36 30 14 9 5 5 0 0 0 0 4 5 4 0 0 0 0 0 0 0 0 0 2 78 95 100 68 34 8 5 15 60 96 100 100
100 100 100 100 100 100 100 67 7 17 38 12 5 5 0 0 0 0 0 0 0 0 0 0 0 0 0 0 0 0 0 0 0 2 20 52 84 92 69 20 6 19 100
100 100 100 100 100 100 100 51 10 27 5 5 5 5 3 0 0 0 0 0 0 0 0 0 0 0 0 0 0 0 0 0 0 0 0 0 1 5 5 4 7 5 73
100 100 100 100 100 100 100 72 99 5 5 5 5 5 0 0 0 0 0 0 0 0 0 0 0 0 0 0 0 0 0 1 1 1 1 0 0 1 3 0 2 4 5
100 100 100 100 100 100 88 99 100 46 5 5 5 5 0 0 0 0 0 0 0 0 0 0 0 0 0 0 2 0 0 0 1 4 4 4 5 5 5 5 3 0 2
100 100 100 100 100 100 100 100 94 77 6 5 5 3 0 0 0 0 0 0 0 0 0 0 0 0 0 0 0 0 0 0 0 0 0 0 0 0 4 2 2 0 0
100 100 100 100 100 100 100 97 100 66 5 5 0 0 0 0 0 0 0 0 0 0 0 0 0 0 0 0 0 0 0 0 0 0 0 0 0 4 3 2 1 3 4
99 97 100 100 100 100 86 71 5 32 5 5 5 0 0 0 0 0 0 0 0 0 0 0 0 0 0 0 0 0 0 0 0 0 5 5 5 5 4 5 5 5 5
57 80 87 83 100 82 89 4 5 5 5 5 5 0 0 0 0 0 0 0 0 0 0 0 2 0 0 0 0 0 0 0 0 0 5 5 5 5 5 5 5 5 5
10 36 56 5 90 84 33 5 5 35 80 8 0 0 0 0 5 5 1 0 0 0 0 4 1 0 0 0 0 0 0 0 0 5 5 5 5 5 7 20 42 22 59
5 5 5 5 52 86 53 5 5 21 48 2 0 0 0 0 0 0 2 1 0 6 5 2 5 5 5 5 2 0 0 0 5 5 5 5 6 15 68 75 100 100 100
5 5 4 41 93 94 33 5 5 54 2 0 0 0 0 0 0 0 0 0 0 0 1 4 5 5 5 2 0 0 0 3 5 5 5 74 98 98 100 100 100 100 100
5 0 5 56 92 74 14 5 5 0 0 0 0 0 0 0 0 0 0 0 0 0 0 0 0 0 0 0 0 0 1 3 5 5 5 62 100 100 100 100 100 100 100
5 0 5 5 15 5 5 3 0 0 0 0 0 0 4 4 0 0 0 0 0 0 0 0 0 0 0 0 5 5 5 5 5 19 52 67 98 100 100 100 100 100 95
5 0 5 5 5 5 5 5 5 0 0 0 5 5 4 0 0 0 0 0 0 0 0 0 0 1 5 5 5 5 5 5 21 86 99 100 86 100 100 100 100 100 100
5 5 5 5 5 5 5 5 5 1 3 5 0 0 0 0 0 0 0 0 1 5 5 0 1 5 12 15 5 49 57 44 6 10 100 100 100 100 100 100 100 100 100
5 5 45 5 5 5 5 5 5 5 5 4 1 0 0 0 0 0 0 0 5 5 5 4 5 5 6 36 90 100 100 98 80 25 100 99 100 100 100 100 100 100 100
28 86 30 49 5 5 5 5 5 5 5 5 0 0 1 0 0 0 0 1 5 5 31 9 12 10 5 88 100 100 99 26 5 5 11 92 100 100 100 100 100 100 100
92 89 82 36 5 5 5 5 5 5 5 0 0 0 0 0 0 0 3 5 5 60 94 100 10 7 76 99 32 5 5 5 23 92 6 100 100 100 100 100 100 100 100
100 100 72 26 38 28 5 5 5 4 4 2 3 0 0 0 0 5 49 77 100 100 74 18 98 96 39 5 5 5 5 5 100 99 24 89 99 99 100 100 100 100 100
100 72 48 54 75 57 5 5 5 4 5 1 0 0 0 2 5 28 100 100 99 83 93 100 99 77 5 5 5 18 100 95 80 100 19 82 68 5 5 58 89 100 100
83 60 56 88 26 5 5 5 5 5 0 5 1 0 0 2 2 87 93 99 100 100 100 100 99 55 5 69 20 100 100 100 98 61 100 100 52 63 5 5 64 100 100
64 70 100 23 5 5 5 5 2 5 5 1 0 0 4 5 5 5 5 98 100 97 86 39 55 36 92 80 100 98 100 100 100 90 93 94 17 65 34 72 99 100 100
83 89 5 5 5 5 5 5 5 5 5 5 2 3 5 5 54 100 98 93 65 8 63 38 89 66 100 100 100 100 98 100 97 52 98 99 23 81 98 95 99 100 100
21 5 5 4 5 5 5 0 5 5 5 5 1 5 24 100 100 100 100 85 86 72 5 13 91 99 38 39 91 100 94 100 100 64 9 99 71 97 97 100 97 100 100
5 5 5 5 5 5 0 0 5 5 8 16 99 100 91 100 100 100 100 99 95 5 74 100 36 5 7 5 91 100 100 100 100 100 30 100 95 100 87 40 69 98 100

GFSMA_prec_cloud_024.txt.gz
Cloud_Cover
58 21 30 8 46 100 85 38 62 87 63 37 8 39 68 12 5 5 5 2 0 0 0 0 0 0 0 0 0 0 0 0 0 0 0 0 0 0 0 0 0 1 4
5 27 58 56 100 100 98 66 6 56 46 48 59 100 96 23 5 5 5 5 2 0 0 0 0 0 0 0 0 0 0 0 0 0 0 0 0 0 0 0 0 0 0
92 100 100 100 100 100 82 98 77 75 49 93 100 100 100 22 9 5 5 5 2 0 0 0 0 0 0 0 0 0 0 0 0 0 0 0 0 0 0 0 0 0 0
68 100 100 100 100 100 100 100 100 100 100 100 100 100 100 86 53 13 5 5 0 0 0 0 0 0 0 0 0 0 0 0 0 0 0 0 0 0 0 0 0 0 0
100 100 100 94 76 60 100 100 100 100 100 100 100 100 100 100 47 72 16 5 0 0 0 0 0 0 0 0 0 0 0 0 0 0 0 0 0 0 0 0 0 0 1
100 100 100 12 5 5 38 100 100 100 100 100 100 100 100 49 77 8 5 4 0 0 0 0 0 0 0 0 0 0 0 0 0 0 0 0 0 0 1 0 1 0 2
77 100 100 7 59 5 42 53 60 100 100 100 100 100 20 62 5 5 5 3 0 0 0 0 0 0 0 0 0 0 0 0 0 0 0 0 1 0 0 0 1 3 0
56 100 91 5 17 55 61 65 99 100 100 99 62 39 9 5 5 5 2 0 1 0 0 0 0 0 0 0 0 0 0 0 0 0 4 3 5 5 5 5 5 5 5
99 16 35 5 42 82 83 100 57 100 97 91 6 5 5 5 5 3 0 0 0 0 0 0 0 0 0 0 0 0 0 0 0 0 5 5 5 5 5 5 5 17 25
100 100 0 0 6 8 60 83 20 77 98 30 5 5 5 5 4 0 0 0 0 0 0 0 0 0 0 0 0 0 0 0 0 1 5 5 5 5 5 10 11 33 98
100 92 0 0 0 3 5 5 63 96 32 5 5 5 5 3 0 0 0 0 0 0 0 0 5 5 5 0 0 0 0 0 5 5 5 5 5 5 5 22 96 100 100
100 11 0 3 3 0 4 5 5 38 5 5 5 5 1 0 0 0 0 0 0 4 3 1 1 2 0 0 0 0 0 4 5 5 5 5 22 92 99 100 100 100 100
64 0 0 0 4 4 5 5 5 5 5 5 5 5 1 0 0 0 0 0 2 3 0 0 0 0 2 0 0 0 0 5 5 5 5 8 69 100 100 100 100 100 100
40 5 5 5 5 4 4 5 5 5 0 2 5 5 0 0 0 0 0 0 0 0 0 0 0 0 0 0 0 5 5 5 51 66 59 97 98 100 100 100 100 100 100
11 5 5 5 5 5 5 5 5 5 5 5 5 4 3 0 0 0 0 0 0 0 0 0 0 0 0 2 5 5 42 92 87 86 100 100 100 100 100 100 100 100 99
44 33 53 90 37 28 68 6 5 5 5 5 5 0 0 0 0 0 0 0 0 0 0 0 0 0 5 5 15 86 100 83 61 100 100 100 100 100 100 100 100 100 100
86 100 89 91 87 91 64 41 5 5 5 5 0 0 0 0 0 0 0 0 0 0 0 0 0 5 5 79 100 100 98 60 20 67 8 31 100 100 100 100 100 100 100
99 96 84 78 92 91 87 58 5 5 5 5 4 5 5 0 0 0 0 0 0 5 5 5 5 5 76 99 100 100 100 53 5 5 5 79 100 100 100 100 100 100 100
100 80 88 80 100 100 76 32 5 5 5 5 5 3 0 0 0 0 0 4 11 52 84 99 10 34 90 100 97 32 78 57 72 97 44 79 100 100 100 100 100 100 100
96 89 80 100 99 80 76 5 5 5 5 5 0 0 0 0 0 5 5 59 83 100 100 98 53 17 100 68 38 39 63 62 99 98 17 91 85 98 100 96 100 100 100
91 74 100 93 99 87 59 22 5 5 5 4 4 0 0 1 5 17 85 92 100 97 99 100 91 99 10 21 40 85 100 98 45 100 12 32 42 5 5 22 67 100 100
75 100 95 100 90 97 66 58 7 5 5 5 0 0 0 5 16 81 100 100 100 100 100 99 100 98 98 99 97 100 100 100 91 87 99 100 67 17 5 5 54 99 100
100 100 99 100 100 84 72 5 5 5 5 2 0 2 5 5 80 95 91 100 100 100 100 100 100 100 100 98 97 95 94 95 97 50 96 100 21 53 5 5 5 88 96
100 98 100 100 100 53 4 5 5 5 0 3 5 5 18 74 81 100 100 78 100 85 100 100 100 100 100 100 100 100 100 100 100 98 100 99 6 95 6 70 88 100 100
100 100 100 64 5 4 5 5 5 0 0 5 5 16 77 90 100 100 100 89 89 100 100 96 99 100 100 94 100 100 71 100 100 100 60 99 93 97 9 99 68 16 5
98 25 5 5 5 35 5 5 5 0 3 5 5 68 85 100 100 100 100 100 100 97 94 85 97 70 93 86 100 100 100 100 99 100 39 100 92 99 100 54 55 5 30

GFSMA_prec_cloud_027.txt.gz
Cloud_Cover
73 97 87 100 72 25 5 5 8 43 24 28 5 5 5 54 28 5 8 96 99 16 12 5 5 5 1 0 0 0 0 0 0 0 0 0 0 0 0 0 0 0 4
85 88 56 27 22 28 60 7 5 18 5 33 6 5 5 15 26 21 98 100 100 100 30 48 35 5 5 0 0 0 0 0 0 0 0 0 0 0 0 0 0 0 0
96 100 100 96 65 99 5 0 5 14 5 31 75 93 88 89 98 100 100 100 100 100 62 97 71 5 4 0 0 0 0 0 0 0 0 0 0 0 0 0 0 0 0
0 0 7 28 98 99 60 5 3 5 5 5 51 99 97 100 99 100 100 100 100 100 96 59 6 5 4 0 0 0 1 0 0 0 0 0 0 0 0 0 0 0 0
0 0 26 86 14 5 5 5 5 5 5 5 14 100 100 100 100 100 100 100 93 76 73 13 5 5 1 0 0 0 5 0 0 0 2 2 0 0 0 0 1 1 0
2 40 85 100 55 33 5 5 39 42 5 5 5 5 22 75 93 40 60 56 42 25 29 40 5 5 5 0 0 0 0 0 0 0 0 3 0 3 0 1 0 3 1
82 49 31 73 18 63 5 5 78 80 5 17 5 36 19 17 42 57 13 63 25 5 5 5 5 5 0 0 0 0 0 0 0 0 0 1 0 0 0 0 1 4 5
68 29 56 84 0 5 5 5 5 72 59 74 50 5 5 16 28 5 5 0 3 5 4 2 0 0 0 0 0 0 0 0 0 1 3 5 5 1 4 5 5 5 5
100 100 82 80 5 5 5 3 5 6 60 5 85 24 5 65 62 54 5 2 4 0 0 0 0 0 0 0 0 0 0 0 0 4 5 5 5 5 5 5 5 5 5
98 100 100 98 9 5 4 1 0 3 5 5 5 5 5 5 5 42 66 5 0 0 0 0 0 0 0 0 0 0 0 0 0 4 5 5 5 5 5 7 14 60 80
94 100 100 92 5 5 5 2 0 5 0 0 0 1 5 5 5 2 3 0 0 0 0 0 0 0 0 0 0 0 0 0 5 5 5 5 6 11 9 71 39 94 100
84 73 100 98 6 6 8 5 0 4 5 4 5 3 1 0 0 0 0 0 1 3 0 0 0 0 0 0 0 0 0 0 5 5 5 6 50 89 100 100 100 100 100
59 100 99 100 42 6 32 32 4 4 5 5 5 4 0 0 0 0 0 0 0 1 2 1 0 0 0 0 0 0 0 5 5 5 5 50 99 99 100 100 100 100 100
80 91 100 100 100 38 34 46 5 5 5 5 5 5 4 0 0 0 0 0 0 0 0 0 0 0 0 0 0 0 0 4 5 5 52 99 98 100 100 100 100 100 100
98 52 46 10 80 90 34 35 5 5 7 28 5 5 5 5 0 0 0 0 0 0 3 1 0 0 0 0 0 0 0 1 12 5 85 86 100 100 100 100 100 100 100
80 24 15 5 58 78 30 5 5 12 56 5 5 5 5 4 0 0 0 0 0 0 0 0 0 0 0 1 1 5 5 7 5 8 95 100 98 100 100 100 100 100 100
91 92 64 77 84 58 67 6 14 77 24 5 5 5 5 0 0 0 0 0 0 0 0 0 0 4 5 5 5 5 5 4 4 5 76 74 100 100 100 100 100 100 100
82 100 55 90 58 22 5 5 81 74 19 5 5 5 5 0 0 0 0 0 0 0 4 5 5 5 5 5 8 28 8 5 5 5 66 96 100 100 100 100 100 100 100
97 100 100 99 98 65 11 81 93 64 8 46 5 5 5 1 0 0 0 0 4 5 5 5 5 5 5 5 48 86 8 5 5 5 18 10 73 59 100 100 100 100 100
98 86 85 97 99 79 70 100 83 61 72 32 8 5 2 1 0 0 2 5 5 5 6 8 5 5 10 64 100 12 5 5 5 5 5 5 53 15 73 19 88 93 100
94 100 98 100 100 100 100 95 72 70 79 75 5 5 4 0 0 12 58 50 36 54 52 12 72 93 99 39 7 70 12 32 5 19 88 5 22 5 5 5 5 47 100
100 100 100 100 100 100 100 98 76 90 52 5 5 5 4 5 3 6 80 93 100 100 100 99 97 99 13 5 38 29 5 100 95 80 88 20 5 88 5 5 7 92 100
82 100 100 100 100 100 100 98 97 14 5 5 5 5 5 5 5 14 56 92 63 79 100 100 99 97 87 8 29 41 96 99 77 11 55 63 5 45 6 5 5 69 89
100 100 100 100 100 100 95 96 58 5 5 5 5 5 5 5 10 86 56 80 5 28 42 99 100 78 5 70 100 100 97 70 92 24 96 99 92 45 69 10 5 6 5
100 100 100 100 100 100 99 50 66 60 60 47 5 5 5 14 54 98 94 58 78 10 7 85 78 92 100 100 100 100 46 91 94 25 81 100 59 85 51 5 5 13 5
100 100 100 100 100 100 88 59 19 38 5 5 5 3 6 63 91 100 100 95 6 5 8 38 36 6 50 5 100 100 99 100 100 95 5 100 92 100 83 16 88 100 44

GFSMA_prec_cloud_030.txt.gz
Cloud_Cover
4 0 13 96 95 8 5 23 99 100 6 64 98 84 24 47 16 5 5 5 5 24 5 96 100 100 100 100 100 23 5 5 5 0 0 0 0 0 0 0 0 0 0
27 5 22 0 78 100 90 36 41 22 34 68 66 80 28 5 3 3 26 26 96 87 100 100 100 100 100 100 100 58 5 5 5 0 0 0 0 0 0 0 0 0 0
4 3 1 5 0 3 5 24 92 96 41 5 5 5 1 1 0 1 42 100 64 100 100 100 100 100 100 100 99 40 58 9 5 1 0 0 0 0 0 0 0 0 0
4 0 3 5 0 52 32 5 5 5 5 5 5 5 5 5 4 0 5 89 100 100 100 100 100 100 100 100 81 24 52 35 5 2 5 3 0 0 0 0 0 0 0
0 0 0 1 0 0 0 4 5 5 5 5 5 55 53 6 16 5 5 5 5 40 65 6 60 76 38 87 87 50 6 5 5 5 1 0 0 0 0 0 0 0 0
0 0 0 0 1 0 0 0 4 5 5 5 24 97 83 69 90 5 5 10 6 16 18 15 17 5 6 53 7 5 5 5 5 5 2 0 0 2 0 0 2 1 1
0 0 0 0 14 0 0 0 0 5 5 5 5 11 98 73 82 51 5 5 7 20 5 5 4 2 3 5 0 0 0 2 0 0 0 0 0 0 0 2 3 0 0
4 0 0 39 87 43 6 0 0 0 5 5 2 5 10 8 5 7 27 5 5 5 4 5 5 5 0 0 0 0 0 0 0 1 1 4 0 2 3 4 5 5 5
5 0 0 0 32 64 92 100 73 6 5 0 2 0 0 2 1 3 4 5 3 0 4 2 0 0 0 0 0 0 0 0 0 3 5 5 5 5 5 5 8 7 12
3 8 1 7 10 81 61 97 100 100 67 4 5 2 2 0 0 2 5 5 5 2 0 0 0 0 0 0 0 0 0 0 0 5 5 5 5 6 24 48 43 94 100
65 43 55 100 52 64 92 98 58 98 99 13 5 4 4 0 0 0 0 0 0 0 0 0 0 0 0 0 0 0 0 0 0 2 5 5 5 12 80 100 100 100 100
100 100 100 100 88 100 100 97 100 100 84 12 5 5 5 4 1 0 0 0 0 0 0 0 0 0 0 0 0 0 0 0 4 5 5 6 37 100 100 100 100 100 100
100 100 100 56 38 56 41 80 100 100 100 100 45 5 5 18 5 0 0 0 0 0 0 0 0 0 0 0 0 0 0 0 1 5 5 17 100 97 100 100 100 100 100
100 100 98 82 99 98 0 9 84 100 100 100 100 42 7 52 5 0 0 0 0 0 0 0 0 0 0 0 0 0 0 0 0 5 5 84 97 99 100 100 100 100 100
100 100 94 92 53 50 5 5 90 93 52 21 5 35 18 8 5 5 5 0 0 0 0 0 0 0 0 0 0 0 0 0 2 5 8 7 12 100 100 100 100 100 100
100 100 100 91 92 12 5 5 5 39 52 20 19 18 65 56 5 5 5 0 0 0 0 0 0 0 0 0 0 0 0 3 3 5 5 27 89 95 100 100 100 100 100
65 100 100 93 88 5 5 35 5 73 74 5 5 6 5 6 5 5 5 2 0 0 0 0 0 3 5 5 1 5 0 2 5 2 14 92 100 100 100 100 100 100 100
100 100 38 50 37 6 49 45 76 61 47 56 64 91 45 5 5 5 5 0 0 0 0 5 5 5 5 5 1 0 1 5 0 0 44 86 71 100 100 100 100 100 100
100 100 100 54 100 81 100 100 74 83 61 67 93 100 96 31 5 5 0 3 4 0 3 5 5 5 5 3 5 5 5 4 3 3 5 5 5 44 92 99 100 100 100
100 100 100 100 100 93 87 100 100 96 98 95 100 100 96 68 5 3 5 4 5 5 17 5 5 40 83 6 70 16 5 5 5 0 0 5 10 5 5 6 5 21 95
100 100 100 100 100 100 100 100 100 100 100 100 100 100 85 6 5 5 5 5 15 84 70 100 97 97 92 98 5 21 46 5 3 5 26 74 5 5 5 4 5 5 93
100 100 100 100 100 100 100 100 100 100 100 100 100 95 24 6 5 5 5 14 70 97 100 99 99 100 19 28 100 100 5 5 80 31 78 22 5 5 5 5 5 83 100
100 100 100 100 100 100 100 100 100 100 100 100 84 52 17 5 5 5 5 81 61 44 80 100 75 17 91 74 96 66 37 100 99 54 54 93 5 5 5 5 5 64 99
100 100 100 100 100 100 100 100 100 97 94 100 58 58 6 5 5 36 64 100 32 5 5 57 97 98 100 94 100 100 100 86 18 5 5 97 14 52 5 5 5 5 5
100 100 99 97 100 100 100 77 96 100 93 100 34 17 5 5 5 71 85 12 5 5 5 11 20 92 100 97 100 100 49 100 95 81 56 100 32 82 5 5 5 2 5
100 84 97 99 100 100 100 100 94 99 40 20 47 26 5 5 67 98 100 100 88 17 5 28 6 5 1 5 7 36 80 100 100 100 60 100 92 99 84 5 5 4 4

GFSMA_prec_cloud_033.txt.gz
Cloud_Cover
5 0 5 1 0 0 0 0 0 3 5 82 66 5 5 12 5 7 22 90 31 82 8 2 5 96 100 100 66 100 100 100 100 100 100 6 7 11 4 0 0 0 0
5 5 29 5 0 0 0 0 0 0 0 1 31 13 5 5 5 5 5 5 4 2 0 5 5 66 67 100 100 99 100 100 100 100 94 5 6 7 5 0 0 0 0
5 53 4 0 0 0 0 0 0 0 0 0 0 0 0 0 2 5 5 5 0 0 0 4 31 98 100 100 100 100 100 100 100 100 92 26 22 10 5 5 0 0 0
0 0 0 0 0 0 0 0 0 0 0 0 0 0 2 5 5 5 5 8 6 5 5 5 38 43 20 79 84 100 100 100 100 100 92 100 99 41 7 5 2 0 0
0 0 0 0 0 0 0 0 0 0 0 0 2 4 5 5 5 5 7 5 58 23 5 5 21 5 5 5 8 70 77 97 90 75 79 77 39 31 5 5 5 0 2
0 0 0 0 0 0 0 0 0 0 0 0 0 1 5 5 5 6 38 45 16 72 71 6 66 45 13 29 5 5 4 5 6 6 5 3 5 5 3 4 1 1 0
0 0 0 0 0 0 0 0 2 5 4 0 0 0 0 5 4 4 5 5 5 5 8 84 74 54 77 19 5 5 4 0 0 1 1 1 0 1 4 3 1 1 0
0 0 0 0 0 1 0 0 0 8 98 70 28 1 25 4 0 0 0 0 0 0 0 0 2 5 5 5 3 0 0 0 0 2 5 4 4 5 5 5 5 5 6
4 39 4 0 1 4 3 0 1 0 24 93 100 97 94 43 4 2 3 4 3 4 3 5 3 5 3 0 0 0 0 0 0 0 5 5 5 5 5 8 18 31 46
16 93 70 12 5 27 10 0 0 21 5 11 91 99 84 100 100 98 34 5 2 5 5 0 0 0 0 0 0 0 0 0 0 3 5 5 5 5 6 33 64 96 100
18 91 95 41 68 99 77 9 4 99 10 87 37 53 100 97 90 38 100 96 23 5 20 5 1 0 0 0 0 0 0 0 0 0 5 5 5 5 31 100 100 100 100
13 87 97 88 100 100 100 86 75 56 89 8 54 96 98 85 80 90 100 93 45 29 5 5 5 0 0 0 0 0 0 0 0 5 5 5 24 30 91 100 100 100 100
11 35 64 100 100 100 100 89 100 100 20 2 5 5 13 35 80 83 96 100 100 100 100 86 15 5 0 0 0 0 0 0 0 1 5 5 48 96 99 100 100 100 100
5 80 100 100 100 100 100 100 45 66 0 5 5 5 5 19 82 83 68 32 81 100 100 100 96 9 3 0 0 0 0 0 0 1 5 13 83 89 100 100 100 100 100
85 95 100 100 100 100 99 98 37 65 5 5 5 5 5 5 7 25 7 5 5 10 45 100 95 45 5 0 0 0 0 0 2 5 5 11 72 99 96 100 100 100 100
100 98 100 100 100 100 86 89 90 5 5 5 5 5 16 24 5 5 5 5 3 4 4 5 5 9 5 3 0 0 0 0 0 4 6 88 81 98 100 100 100 100 100
100 100 100 100 100 100 96 100 100 40 5 5 5 76 71 73 5 5 5 5 5 5 0 4 1 5 2 0 0 0 0 0 0 4 5 38 95 100 100 100 100 100 100
100 100 100 100 100 100 100 100 61 42 72 66 5 84 90 93 50 5 5 5 5 5 5 1 5 5 3 0 4 0 4 5 5 5 5 72 54 55 71 100 100 100 100
100 100 100 100 100 100 100 91 100 57 21 95 100 100 100 96 72 18 11 5 5 5 5 3 5 5 5 5 5 5 5 5 0 4 5 5 5 5 62 100 95 97 100
100 100 100 100 100 100 100 100 100 97 100 100 97 100 100 74 82 78 65 32 49 5 5 5 13 5 5 5 5 43 5 5 5 3 1 5 5 5 5 5 5 5 5
100 100 100 100 100 100 100 100 100 100 100 100 100 100 98 100 97 64 45 97 29 5 5 73 50 10 97 90 16 5 5 5 5 5 5 5 5 5 5 5 5 5 42
100 100 100 100 100 100 100 100 100 100 100 100 100 100 100 97 97 100 100 50 31 64 97 100 100 99 81 5 5 10 5 5 75 5 28 89 5 5 5 5 8 93 95
100 100 100 100 100 100 100 100 100 97 100 100 100 100 100 100 100 81 93 7 8 37 99 100 46 5 36 12 14 12 38 100 99 18 31 96 12 37 5 5 5 14 64
100 100 100 100 100 100 100 84 100 100 100 100 100 100 100 100 100 82 8 80 93 96 54 30 79 92 85 79 100 100 97 94 35 5 5 95 46 85 5 5 5 5 5
100 100 100 100 100 100 99 99 100 97 100 100 76 99 92 26 5 8 79 100 86 6 5 10 5 64 100 95 77 100 35 86 85 64 5 99 39 17 96 26 5 1 5
100 100 100 100 100 100 100 100 88 8 11 5 36 5 6 26 91 98 100 100 94 18 5 8 6 5 1 5 5 9 47 100 100 100 5 94 76 91 100 7 5 5 4

GFSMA_prec_cloud_036.txt.gz
Cloud_Cover
0 0 8 29 5 5 2 0 0 0 0 0 0 0 0 0 0 3 4 8 4 4 2 0 4 2 1 1 0 5 5 5 79 76 98 57 79 100 100 100 53 5 94
0 5 5 5 5 3 0 0 0 0 0 0 0 0 0 0 0 0 0 0 1 2 5 2 0 0 0 0 5 5 66 56 30 54 88 100 100 100 100 100 57 5 94
1 5 4 5 3 0 0 0 0 0 0 0 0 0 0 0 0 0 0 5 5 20 17 5 5 4 2 5 5 44 100 84 14 27 90 100 100 100 100 100 99 95 100
1 4 0 0 0 0 0 0 0 0 0 0 0 0 0 0 5 5 5 5 5 5 5 5 5 5 5 5 5 72 100 80 5 5 5 10 70 100 100 100 100 100 86
0 0 0 0 0 0 0 0 0 0 0 0 0 0 0 0 0 3 5 5 5 5 5 5 5 5 5 5 5 56 100 92 91 91 6 5 6 5 14 76 99 100 75
2 0 0 0 0 0 0 0 0 0 0 0 0 1 4 0 0 0 0 1 0 4 5 5 59 32 5 5 5 5 6 7 36 78 12 5 5 1 5 5 5 20 10
0 5 0 0 0 0 0 0 0 0 0 0 0 0 9 5 5 4 2 5 5 0 2 0 0 0 0 0 0 4 5 5 5 5 5 0 5 4 5 5 4 4 5
55 93 100 43 5 0 0 0 0 0 0 0 0 0 2 41 100 99 85 85 86 18 5 3 5 5 5 5 5 3 5 5 5 1 4 5 4 5 5 5 5 4 4
84 100 74 53 14 5 0 0 0 0 0 2 2 0 0 5 45 95 100 100 100 100 100 99 88 55 27 5 5 4 3 1 0 0 5 5 5 5 5 6 6 20 38
95 100 100 100 90 34 4 1 4 0 4 4 33 4 3 5 5 11 22 23 77 92 93 100 100 100 96 76 22 5 5 5 4 0 5 5 5 5 5 24 31 98 100
93 100 100 100 100 75 72 98 88 63 30 18 64 92 10 0 3 5 4 35 95 100 100 100 100 100 100 100 96 54 6 5 5 5 5 5 5 5 5 37 19 100 100
53 100 100 100 100 100 87 100 100 100 94 97 92 98 79 0 0 0 0 0 5 5 6 5 29 51 74 88 100 100 100 100 36 5 5 5 5 5 5 16 22 83 94
5 89 100 100 100 83 97 100 100 100 97 82 100 87 55 1 4 1 0 0 3 4 3 5 5 4 4 5 5 10 23 38 63 30 5 5 5 5 10 72 84 100 97
57 73 100 100 100 91 66 100 100 100 99 99 77 99 5 3 2 5 4 5 3 0 0 5 5 5 3 5 5 5 5 5 4 5 5 5 5 14 65 88 96 100 100
14 5 82 100 100 83 100 100 100 100 100 100 96 90 10 5 5 5 5 5 5 4 4 5 5 5 5 5 5 0 0 0 2 5 5 5 30 79 94 100 100 100 100
15 95 100 100 100 100 100 100 100 100 100 100 100 100 43 9 5 5 5 51 5 5 0 2 5 5 5 5 5 5 5 4 4 5 5 40 90 76 95 97 100 100 100
92 100 100 100 100 100 100 100 100 100 100 100 100 100 73 15 56 58 39 85 26 6 4 2 0 5 5 5 10 7 7 5 5 5 5 70 96 100 100 100 97 100 100
100 100 100 100 100 100 100 100 100 100 100 100 100 100 30 94 100 100 100 84 79 96 54 26 5 5 76 78 7 5 5 4 5 4 5 72 76 74 83 100 100 100 100
100 100 100 100 100 100 100 100 100 100 100 100 100 77 95 100 100 100 100 100 100 100 96 7 20 99 84 95 10 5 5 5 5 4 4 5 5 5 70 98 100 100 98
100 100 100 100 100 100 100 100 100 100 100 100 100 100 100 100 98 98 100 100 100 99 100 100 29 7 8 5 16 5 8 5 5 3 1 5 5 5 7 6 20 5 5
100 100 100 100 100 100 100 100 100 100 100 100 100 100 100 100 100 100 100 100 99 100 100 62 72 45 92 19 5 5 23 5 5 5 5 5 5 6 5 5 5 5 5
100 100 100 100 100 100 100 100 100 100 100 100 100 100 100 100 100 96 100 98 20 41 64 73 70 59 6 5 5 5 44 69 84 5 5 86 5 5 5 5 5 68 97
100 100 100 100 100 100 100 100 100 100 100 100 100 100 86 62 99 100 66 43 5 32 74 99 100 64 5 5 7 26 62 100 100 16 5 94 5 5 5 5 5 24 71
100 100 100 100 100 100 100 100 100 100 100 100 100 100 100 100 100 100 25 5 5 7 8 24 5 5 10 68 99 100 99 68 5 5 5 98 7 5 5 5 5 5 12
100 100 100 100 100 100 100 100 100 100 100 100 100 100 100 100 97 38 5 55 96 8 5 5 5 80 99 100 78 94 15 84 83 32 5 93 12 6 49 5 5 4 5
100 100 100 100 87 97 99 100 100 100 100 100 100 98 29 5 5 26 94 100 80 5 5 29 5 5 3 4 5 5 27 100 99 100 5 79 65 91 91 5 4 5 5

GFSMA_prec_cloud_039.txt.gz
Cloud_Cover
24 28 24 27 19 5 5 5 4 0 0 0 0 0 0 0 0 0 0 0 0 0 0 0 0 0 0 0 0 0 0 2 5 5 5 5 5 18 54 100 100 100 100
16 9 23 23 16 5 5 5 0 0 0 0 0 0 0 0 0 0 0 0 0 0 0 2 5 5 5 4 5 0 0 3 5 5 5 93 33 35 53 97 100 100 100
0 0 4 18 6 4 2 0 0 0 0 0 0 0 0 0 0 0 0 0 0 0 2 5 5 5 5 18 52 42 42 5 5 76 100 100 98 36 5 46 100 100 100
0 0 4 2 0 0 0 0 0 0 0 0 0 0 0 0 0 0 0 0 0 0 0 0 4 5 5 19 50 60 90 98 85 39 68 100 100 73 5 5 10 98 100
0 0 0 1 1 0 0 0 0 0 0 0 0 0 0 0 0 0 1 0 0 0 0 0 0 0 0 1 4 5 5 4 9 26 43 62 95 98 27 5 5 15 76
9 9 5 5 5 5 3 0 1 0 0 0 0 0 0 0 0 0 0 5 5 4 1 0 2 0 0 0 0 0 0 0 0 0 5 24 5 5 11 5 5 0 5
12 24 5 12 5 5 11 14 5 5 4 0 0 0 0 0 0 0 0 0 5 69 99 27 5 46 51 27 5 5 5 5 3 5 5 0 5 5 58 5 1 1 5
9 6 17 96 100 74 68 100 7 4 4 3 4 0 0 0 0 0 0 0 0 1 5 66 100 100 100 100 100 100 100 97 56 35 5 5 5 5 5 5 5 5 4
100 95 87 100 100 100 100 100 73 80 15 5 0 0 2 1 0 0 0 2 0 1 1 0 0 6 50 50 84 96 100 100 100 100 100 91 30 5 5 8 5 26 34
6 75 98 100 100 100 100 100 100 81 26 14 4 5 5 5 5 5 5 2 0 0 0 0 0 0 0 4 54 100 100 97 83 100 100 100 100 76 6 5 5 43 26
6 5 94 100 99 100 100 100 100 100 87 100 30 8 5 27 24 53 8 0 0 0 0 0 0 0 0 0 0 1 5 23 57 97 100 86 35 7 5 20 10 39 6
63 16 6 39 84 100 100 100 100 100 100 100 100 100 76 92 40 96 84 6 5 5 5 5 0 1 0 0 0 0 0 0 0 2 4 7 22 83 91 14 31 18 11
5 36 61 49 100 99 83 100 100 100 100 100 100 100 100 71 100 67 100 9 5 5 5 5 5 5 5 5 0 0 0 0 0 0 5 5 5 5 5 5 7 6 14
15 6 60 94 100 68 85 82 90 100 100 100 100 100 100 100 100 99 95 44 11 5 5 57 100 69 8 5 5 0 0 0 0 3 5 5 5 5 5 7 74 90 87
99 55 7 74 72 95 89 100 100 100 100 100 100 100 100 100 100 96 100 80 42 5 8 98 100 100 57 6 5 4 1 4 5 5 5 5 5 5 11 68 68 97 96
100 97 14 47 64 96 100 100 100 100 100 100 100 100 100 100 100 100 100 83 68 50 5 5 72 73 59 45 48 5 5 5 5 5 5 5 5 21 69 90 99 100 100
100 100 100 100 46 93 100 100 100 100 100 100 100 100 100 100 100 100 100 100 100 92 52 22 5 5 60 100 38 41 5 4 5 5 5 5 34 95 100 100 99 100 100
83 79 85 72 100 100 100 100 100 100 100 100 100 100 100 100 100 100 100 100 100 89 47 5 5 5 42 70 72 10 8 5 5 4 5 5 89 91 99 100 100 100 100
100 100 95 100 100 100 100 100 100 100 100 100 100 100 100 100 100 100 100 100 100 86 80 31 55 65 21 90 5 5 5 5 5 4 5 5 5 20 90 99 100 100 100
100 100 100 100 100 100 100 100 100 100 100 100 100 100 100 100 100 100 100 100 100 100 100 38 54 19 6 5 5 5 5 5 5 5 1 5 5 5 14 5 15 5 20
97 100 100 100 100 100 100 100 100 100 100 100 100 100 100 100 100 100 100 100 100 100 100 97 90 61 11 5 5 5 5 5 5 5 5 5 5 5 5 5 5 5 5
100 100 100 100 100 100 100 100 100 100 100 100 100 100 100 100 100 100 100 100 100 100 100 96 74 62 65 6 5 5 5 95 97 6 5 5 5 5 5 5 5 5 5
100 100 100 100 100 100 100 100 100 100 100 100 100 100 100 100 100 100 100 100 100 100 95 92 72 25 5 5 13 18 45 99 100 64 5 74 5 5 5 3 4 5 5
100 100 100 100 100 100 100 100 100 100 100 100 100 100 100 100 100 100 100 100 100 47 5 5 5 5 27 52 93 98 100 77 49 5 5 92 5 5 5 2 5 5 5
100 100 100 100 100 100 100 100 100 100 100 100 100 98 100 100 100 100 100 67 90 5 5 5 5 15 36 84 90 23 5 86 90 44 5 74 12 5 5 5 5 2 5
100 100 100 100 100 100 100 100 100 100 100 100 82 92 94 100 100 99 89 100 94 5 6 26 5 5 0 0 5 5 5 100 100 97 5 59 10 94 83 5 5 5 5

GFSMA_prec_cloud_042.txt.gz
Cloud_Cover
45 30 26 31 31 8 2 5 5 5 0 0 0 0 0 0 0 0 0 0 0 0 0 0 0 0 0 0 3 3 1 0 0 0 0 0 5 12 99 100 76 5 40
27 25 30 31 30 6 0 4 5 3 0 0 0 0 0 0 0 0 0 0 0 0 0 0 0 0 0 2 5 5 5 5 5 1 0 0 4 17 100 100 100 96 8
17 13 22 32 23 7 5 5 2 0 0 0 0 0 0 0 0 0 0 0 0 0 0 0 0 0 0 0 3 5 5 5 5 5 5 5 5 5 92 100 100 100 100
1 16 23 23 20 2 4 2 0 0 3 0 0 0 0 0 0 0 0 0 0 0 0 0 0 0 0 0 0 0 0 0 1 0 3 5 5 5 5 5 5 99 100
1 4 9 8 5 4 2 3 2 5 4 2 0 0 0 0 3 0 0 0 0 0 0 0 2 4 4 2 1 3 3 3 1 0 0 0 0 0 1 4 5 6 34
0 4 1 6 5 5 0 3 5 43 14 5 5 16 4 3 5 2 0 0 0 0 0 0 0 0 4 62 98 97 82 96 99 92 36 31 5 1 1 2 1 5 5
13 0 0 5 5 0 2 5 5 5 11 8 73 5 4 1 2 1 0 0 0 0 0 0 0 0 0 0 0 7 37 88 100 100 100 100 100 100 98 17 8 4 1
5 5 5 2 8 5 9 96 100 100 98 100 91 14 5 5 5 5 5 0 0 0 0 0 0 0 0 0 0 0 0 0 0 1 11 98 100 100 100 100 100 78 8
5 5 6 41 76 86 100 99 100 100 100 94 66 86 8 15 7 15 6 7 9 4 0 0 0 0 0 0 0 0 0 0 0 0 1 5 5 30 91 97 100 100 100
5 5 5 74 100 79 98 100 100 100 100 99 48 98 80 95 94 98 68 87 58 28 7 5 5 4 0 0 0 0 0 0 0 2 5 4 5 5 5 5 22 70 100
19 15 59 100 100 97 100 100 100 100 100 100 100 100 100 89 100 100 100 100 86 45 8 5 5 5 5 5 5 1 5 5 5 2 3 5 4 5 5 5 35 27 6
68 78 100 49 45 77 68 86 100 100 100 100 100 100 100 100 100 100 100 100 100 100 56 5 5 5 27 97 5 5 5 5 5 3 3 5 5 5 5 14 10 52 7
100 61 20 51 29 7 8 54 90 100 100 100 100 100 100 100 100 100 100 100 100 100 68 71 5 30 18 5 5 5 5 5 5 1 4 5 5 5 5 5 5 5 2
100 100 100 56 96 86 98 100 100 100 100 100 100 100 100 100 100 100 100 100 100 100 100 99 89 95 12 10 5 5 5 5 5 4 5 5 5 5 6 5 5 5 14
84 50 100 100 100 80 100 100 100 100 100 100 100 100 100 100 100 100 100 100 100 100 96 100 100 100 88 18 28 7 5 5 5 5 5 5 5 5 10 5 9 98 100
27 57 90 100 100 100 76 98 100 100 100 100 100 100 100 100 100 100 100 100 100 100 100 100 100 100 100 93 86 5 5 5 5 5 5 5 5 8 30 81 84 85 100
32 91 100 100 100 100 100 100 100 100 100 100 100 100 100 100 100 100 100 100 100 100 100 100 100 100 99 74 86 39 8 5 5 5 5 5 5 22 91 100 100 100 100
63 100 100 100 100 100 100 100 100 100 100 100 100 100 100 100 100 100 100 100 100 100 100 100 100 100 100 96 72 48 50 34 2 5 5 5 15 63 62 88 100 100 100
82 100 100 100 100 100 100 100 100 100 100 100 100 100 100 100 100 100 100 100 100 100 100 100 99 100 79 90 94 96 100 100 6 18 36 5 5 5 5 94 100 99 96
100 100 100 100 100 100 100 100 100 100 100 100 100 100 100 100 100 100 100 100 100 100 100 100 87 92 96 96 97 49 92 88 100 98 12 5 5 5 5 5 5 5 5
100 100 100 100 100 100 100 100 100 100 100 100 100 100 100 100 100 100 100 100 100 100 100 100 100 100 87 39 100 100 71 100 40 5 5 5 4 5 4 5 5 5 5
100 100 100 100 100 100 100 100 100 100 100 100 100 100 100 100 100 100 100 100 100 100 100 100 93 91 34 54 100 84 65 92 89 5 5 5 5 5 5 5 4 5 5
100 100 100 100 100 100 100 100 100 100 100 100 100 100 100 100 100 100 100 100 92 99 82 84 95 96 75 25 44 58 14 84 96 51 41 29 5 5 5 0 4 5 5
100 100 100 100 100 100 100 100 100 100 100 100 100 100 100 100 100 100 100 95 97 100 49 99 62 51 94 86 96 98 100 71 5 5 5 92 5 5 5 1 4 5 5
100 100 100 100 100 100 100 100 100 100 100 100 100 100 100 100 100 88 96 95 95 86 98 100 100 97 12 10 10 5 5 89 93 52 5 79 8 5 5 5 1 1 5
100 100 100 100 100 100 100 100 100 100 99 94 100 98 94 97 98 76 98 100 100 100 91 9 5 4 0 0 5 5 22 99 100 96 5 85 20 80 79 5 5 5 0

GFSMA_prec_cloud_045.txt.gz
Cloud_Cover
17 5 36 5 3 28 0 4 0 5 5 4 0 0 0 0 0 0 0 0 0 0 0 0 0 0 0 0 0 0 0 0 0 0 0 0 0 0 0 0 4 29 100
34 10 37 34 12 14 0 3 5 5 0 2 0 0 0 0 0 0 0 0 0 0 0 0 0 0 0 0 0 0 0 0 0 4 3 0 0 0 0 2 5 20 90
5 5 26 46 2 0 0 4 5 4 0 0 0 0 0 0 0 0 0 0 0 0 0 0 0 0 0 0 0 0 0 0 0 0 0 0 0 0 0 0 3 5 34
4 7 33 33 5 0 0 2 3 2 0 5 0 0 0 0 0 3 4 5 5 5 5 1 0 0 0 0 0 1 1 0 0 0 1 1 2 0 0 0 0 0 0
15 5 27 7 3 0 0 4 5 4 5 2 0 0 0 5 5 4 5 5 5 5 5 5 5 3 0 0 0 0 0 2 0 1 5 5 5 7 5 5 5 7 2
40 44 26 5 4 6 5 4 1 0 4 0 0 0 4 5 5 0 1 4 5 5 2 0 0 0 0 0 0 0 0 0 0 0 0 0 1 5 9 100 85 43 19
100 100 34 5 5 5 5 5 5 5 4 5 5 6 17 60 5 5 5 5 3 4 3 5 5 5 4 0 0 0 0 0 0 0 0 0 0 0 0 1 37 35 100
63 14 51 20 6 5 5 5 10 17 5 34 100 100 100 99 84 52 32 5 5 17 5 7 17 5 5 5 1 0 0 0 0 0 0 0 3 4 1 1 4 0 8
100 100 77 100 88 26 5 5 5 29 57 83 100 100 100 97 68 96 62 99 99 96 40 92 93 94 30 5 1 1 0 1 2 4 3 1 0 4 2 5 8 58 32
100 100 100 99 76 99 88 90 8 47 48 100 100 100 100 100 100 100 100 99 99 84 97 100 100 100 87 5 5 5 5 5 5 6 4 1 4 5 5 5 5 5 5
100 100 100 100 94 58 96 100 90 100 100 100 100 100 100 100 100 100 100 100 100 100 100 100 96 80 31 5 6 46 5 0 5 5 5 5 4 5 5 5 5 51 97
100 100 100 100 100 76 97 91 100 100 100 100 100 100 100 100 100 100 100 100 100 100 100 100 100 100 99 100 92 40 18 5 73 5 17 21 5 5 5 47 81 5 5
100 100 95 97 88 81 100 100 100 100 100 100 100 100 100 100 100 100 100 100 100 100 100 100 100 100 100 100 100 84 78 29 5 5 5 19 9 5 5 5 5 5 5
100 100 100 94 88 100 100 100 100 100 100 100 100 100 100 100 100 100 100 100 100 100 100 100 100 100 100 100 98 49 13 5 5 5 94 100 52 9 27 5 5 5 5
76 96 100 100 100 100 98 83 91 100 100 100 100 100 100 100 100 100 100 100 100 100 100 100 100 100 100 57 100 100 100 87 14 95 42 49 8 5 5 5 5 2 5
57 100 100 100 100 100 100 100 100 100 100 100 100 100 100 100 100 100 100 100 100 100 100 100 100 100 100 100 100 88 96 98 46 36 100 39 7 5 5 5 9 24 67
91 100 100 100 88 100 100 100 100 100 100 100 100 100 100 100 100 100 100 100 100 100 100 100 100 100 100 100 100 100 96 89 100 99 96 100 65 11 36 57 48 71 74
100 100 100 100 100 100 100 100 100 100 100 100 100 100 100 100 100 100 100 100 100 100 100 100 100 100 100 100 100 100 99 81 100 75 94 92 5 30 5 5 82 100 100
100 100 100 100 100 100 100 100 100 100 100 100 100 100 100 100 100 100 100 100 100 100 100 100 100 100 100 100 100 100 100 100 100 100 100 13 5 5 86 7 89 94 85
100 100 100 88 100 100 100 100 100 100 100 100 100 100 100 100 100 100 100 100 100 100 100 100 100 100 100 100 100 98 100 100 84 37 54 83 56 6 5 5 5 5 5
100 100 100 100 100 100 100 100 100 100 100 100 100 100 100 100 100 100 100 100 100 100 100 100 100 99 99 96 91 92 100 76 94 74 100 100 13 5 5 5 5 5 5
100 100 100 100 100 100 100 100 100 100 100 100 100 100 100 100 100 100 100 100 100 100 100 100 100 84 100 69 100 100 92 100 100 92 6 54 71 5 5 5 4 5 5
100 100 100 100 100 100 100 100 100 100 100 100 100 100 100 100 100 100 100 100 100 100 100 100 100 100 100 100 99 47 82 99 100 69 37 56 5 5 5 2 4 5 5
100 100 100 100 100 100 100 100 100 100 100 100 100 100 100 100 100 100 100 100 100 100 90 90 100 100 72 56 76 89 86 85 91 14 58 95 5 5 5 5 5 5 5
100 100 100 100 100 100 100 100 100 100 100 100 100 100 100 100 100 100 100 100 100 100 95 17 5 5 13 15 20 70 82 86 86 8 9 91 8 78 35 5 5 1 5
100 100 100 100 100 100 100 100 100 99 100 100 100 100 100 100 100 100 100 100 84 71 99 61 5 2 0 0 5 5 68 99 100 88 18 61 86 96 90 5 4 5 5

GFSMA_prec_cloud_051.txt.gz
Cloud_Cover
10 18 22 18 5 7 8 11 21 4 0 0 0 0 0 0 0 0 0 0 0 0 0 0 0 0 0 0 0 0 1 5 5 5 5 4 0 0 0 0 0 0 0
6 8 21 22 17 5 9 19 6 0 0 0 1 5 4 3 4 0 0 0 0 0 0 0 0 0 0 0 0 5 5 0 3 0 0 0 0 0 0 0 0 0 0
49 18 89 26 8 19 25 29 23 5 5 5 5 5 2 4 0 1 5 5 4 5 5 5 0 0 0 0 0 0 5 5 1 0 0 0 0 0 0 0 0 0 0
5 5 11 5 6 5 35 35 20 5 5 5 24 5 5 8 5 5 5 5 5 5 5 0 0 0 1 3 5 5 5 1 5 5 5 4 0 0 0 0 0 0 0
36 5 96 100 29 5 69 22 25 5 5 63 50 47 100 92 6 11 5 5 5 5 3 3 30 47 5 5 5 5 5 5 5 5 5 5 2 2 0 0 0 0 0
77 16 14 6 5 5 5 60 47 81 64 44 47 60 100 100 93 52 18 16 5 5 21 51 6 40 25 5 5 4 5 5 5 4 1 3 5 5 4 0 0 0 1
37 44 12 5 22 44 72 84 97 83 86 11 6 8 81 89 100 99 5 53 9 6 6 72 97 84 7 93 100 5 5 5 0 0 1 5 5 3 5 0 0 1 5
7 10 100 100 100 100 73 100 100 100 100 86 86 95 97 99 100 100 100 100 100 96 99 100 96 100 100 69 10 6 7 5 5 5 5 5 5 5 1 0 0 4 5
66 91 100 84 92 82 100 100 100 100 55 98 100 97 98 100 100 100 100 100 100 100 100 100 100 100 100 79 99 10 33 65 5 17 36 27 5 1 5 4 5 5 4
58 83 100 98 100 100 100 100 100 100 100 100 93 98 98 100 100 100 100 100 100 100 100 100 100 100 95 87 100 100 100 100 100 96 21 5 5 2 3 4 5 5 5
52 92 100 100 100 100 100 100 100 100 100 100 100 100 100 100 100 100 100 100 100 100 100 100 100 100 100 100 100 100 100 100 100 100 100 65 9 45 94 100 50 23 5
100 100 100 100 100 100 100 100 100 100 100 100 100 100 100 100 100 100 100 100 100 100 100 100 100 100 100 100 100 100 100 100 100 100 100 100 100 100 100 100 100 96 9
46 36 100 100 100 100 100 100 100 100 100 100 100 100 100 100 100 100 100 100 100 100 100 100 100 100 100 100 100 100 100 100 100 100 100 100 100 63 86 78 96 75 5
100 100 100 100 100 100 100 100 100 100 100 100 100 100 100 100 100 100 100 100 100 100 100 100 100 100 100 100 100 100 100 100 100 100 100 100 100 100 100 99 58 43 5
5 13 2 92 93 100 100 100 100 100 100 100 100 100 100 100 100 100 100 100 100 100 100 100 100 100 100 100 100 100 100 100 100 100 100 100 100 100 100 99 100 100 100
0 0 23 29 99 100 100 100 100 100 100 100 100 100 100 100 100 100 100 100 100 100 100 100 100 100 100 100 100 100 100 100 100 100 100 100 100 99 100 50 100 74 48
15 18 20 81 100 100 100 100 100 100 100 100 100 100 100 100 100 100 100 100 100 100 100 100 100 100 100 100 100 100 100 100 100 100 100 100 100 100 98 100 100 100 83
93 100 100 100 100 100 100 100 100 100 100 100 100 100 100 100 100 100 100 100 100 100 100 100 100 100 100 100 100 100 100 100 100 100 83 99 82 14 100 100 100 100 100
72 100 100 100 100 100 100 100 100 100 100 100 100 100 100 100 100 100 100 100 100 100 100 100 100 100 100 100 100 100 100 100 100 100 99 93 67 61 100 39 100 100 100
100 100 100 100 100 73 99 100 100 100 100 100 100 100 100 100 100 100 100 100 100 100 100 100 100 100 100 100 100 100 100 100 99 99 77 68 100 100 100 100 66 49 5
100 100 100 100 100 100 100 100 100 100 100 100 100 100 100 100 100 100 100 100 100 100 100 99 100 97 100 98 100 99 100 80 100 99 66 48 55 88 100 27 5 25 15
100 100 100 100 100 100 100 100 100 100 100 100 100 100 100 100 100 100 100 100 100 100 100 100 100 100 100 100 100 100 83 100 100 96 33 100 75 99 6 16 14 11 5
100 100 100 100 100 100 100 100 100 100 100 100 100 100 100 100 100 100 100 100 100 100 100 100 100 100 100 100 100 100 96 72 92 97 100 100 100 100 100 44 4 5 5
100 100 100 100 100 100 100 100 100 100 100 100 100 100 98 98 100 100 100 100 100 100 100 100 100 100 100 100 100 97 97 100 100 100 100 100 78 46 6 2 1 5 5
100 100 100 100 100 100 100 100 100 100 100 100 100 100 100 100 100 100 100 100 100 100 100 100 100 100 100 100 100 100 100 100 86 21 10 11 5 5 5 2 0 1 5
100 97 99 60 52 62 78 93 88 100 100 100 100 100 100 93 98 100 100 100 100 100 100 100 100 98 86 59 35 5 5 35 100 98 13 5 7 36 61 3 0 2 0

GFSMA_prec_cloud_054.txt.gz
Cloud_Cover
4 5 5 5 5 4 0 1 3 0 1 2 0 0 0 4 2 3 0 0 0 0 0 0 0 5 4 0 3 0 0 0 0 0 0 0 0 0 0 0 0 0 0
4 5 5 5 5 5 5 2 6 5 4 0 0 0 0 4 5 4 5 5 5 5 0 2 4 5 5 2 4 0 0 0 0 0 0 0 0 3 5 0 0 0 0
5 5 3 3 5 5 37 33 14 5 5 5 4 4 5 3 18 55 44 6 7 5 5 5 5 5 5 0 0 2 4 1 0 3 0 0 4 0 0 0 0 0 0
9 17 5 0 1 5 6 5 5 5 5 5 10 5 5 5 19 22 94 95 100 100 30 5 5 5 3 5 5 6 5 5 5 0 0 0 0 5 5 2 0 3 0
32 3 2 1 0 3 5 5 4 5 5 10 72 49 80 38 24 57 100 93 63 20 12 20 5 5 5 5 5 5 6 5 5 5 4 5 0 0 4 5 1 3 7
5 1 3 0 0 0 3 5 5 5 58 65 79 59 33 67 100 100 100 37 48 93 100 100 100 87 57 99 5 74 21 5 5 5 2 2 5 0 0 1 2 5 5
9 5 1 5 0 0 0 5 5 6 56 72 47 100 100 100 100 100 100 90 100 56 100 100 100 96 100 100 100 46 100 100 5 5 5 0 0 0 5 5 5 5 5
78 19 1 0 0 1 6 21 70 100 100 100 94 100 100 100 100 100 100 100 100 100 88 100 100 100 100 100 100 100 100 77 11 30 5 5 5 5 4 5 5 4 5
6 43 100 86 12 6 40 57 31 34 7 49 99 100 73 99 98 100 100 100 100 100 100 100 100 100 100 100 100 100 100 100 81 76 100 100 88 100 79 12 11 5 4
2 0 0 11 99 98 90 21 35 78 94 93 100 100 100 100 100 100 100 100 100 100 100 100 100 100 100 100 100 100 100 100 100 100 100 100 100 100 97 87 83 5 5
5 16 24 6 38 100 100 100 100 100 100 88 97 100 100 100 100 100 100 100 100 100 100 100 100 100 100 100 100 100 100 100 100 100 100 100 100 100 100 68 100 91 100
57 58 68 63 99 100 100 100 100 100 100 100 100 100 100 100 100 100 100 100 100 100 100 100 100 100 100 100 100 100 100 100 100 100 100 100 100 74 100 45 28 100 100
48 26 21 30 36 92 100 100 100 100 100 100 100 100 100 100 100 100 100 100 100 100 100 100 100 100 100 100 100 100 100 100 100 100 100 100 100 100 100 100 100 100 100
56 36 99 16 2 89 100 100 100 90 100 100 100 100 100 100 100 100 100 100 100 100 100 100 100 100 100 100 100 100 100 100 100 100 100 100 100 100 100 100 100 100 100
5 4 2 6 28 5 88 100 100 100 100 82 100 100 100 100 100 100 100 100 100 100 100 100 100 100 100 100 100 100 100 100 100 100 100 100 100 100 100 100 71 18 92
5 22 5 4 0 69 100 100 100 100 100 100 100 100 100 100 100 100 100 100 100 100 100 100 100 100 100 100 100 100 100 100 100 100 100 100 100 100 99 100 60 52 100
6 7 53 3 0 40 72 100 100 100 100 100 100 100 100 100 100 100 100 100 100 100 100 100 100 100 100 100 100 100 100 100 100 100 100 100 100 100 100 90 100 76 12
5 1 78 100 100 100 100 100 100 100 100 100 100 100 100 100 100 100 100 100 100 100 100 100 100 100 100 100 100 100 100 100 100 100 100 100 100 100 100 100 100 100 100
44 73 93 100 97 100 100 100 100 100 100 100 100 100 100 100 100 100 100 100 100 100 100 100 100 100 100 100 100 100 100 99 100 100 100 100 100 100 100 100 98 20 10
94 100 100 100 100 100 100 100 100 100 100 100 100 100 100 100 100 100 100 100 100 100 100 100 100 100 100 97 85 100 100 86 100 100 100 100 98 100 88 51 66 26 55
100 100 100 100 100 100 100 69 100 100 100 100 100 100 100 100 100 100 100 100 100 100 100 100 99 100 100 100 100 98 95 100 100 76 41 88 54 72 100 94 62 78 10
99 96 100 94 100 100 100 100 100 100 100 100 100 100 100 100 100 100 100 100 100 100 100 100 100 99 100 100 100 100 100 92 100 93 89 100 97 100 100 100 100 95 33
100 100 100 100 100 100 100 100 96 100 100 100 100 100 100 100 100 100 100 100 100 100 100 100 100 100 100 100 100 100 100 100 100 100 100 100 100 100 100 91 5 5 5
100 100 100 100 100 100 100 99 72 69 96 100 100 100 100 100 100 100 100 100 100 100 100 100 100 100 100 100 100 100 100 100 94 51 82 85 15 9 6 5 5 4 5
100 100 97 46 34 16 6 3 5 5 8 91 96 100 100 100 100 100 100 100 70 65 91 89 99 69 53 51 41 25 24 21 28 13 6 6 5 5 3 1 2 0 5
84 100 30 5 5 5 5 4 0 0 0 0 0 1 4 4 5 21 5 5 12 5 5 3 3 4 3 0 4 5 5 5 59 42 5 5 16 21 32 9 6 5 2

GFSMA_prec_cloud_057.txt.gz
Cloud_Cover
75 6 5 5 5 4 5 36 14 5 1 0 0 1 0 0 0 0 1 1 0 5 5 5 8 41 5 5 5 5 5 5 0 0 0 0 0 0 0 0 0 0 0
67 14 5 5 5 5 5 5 6 5 5 5 5 5 4 0 0 0 5 3 6 25 5 5 100 100 100 32 5 5 5 5 5 0 0 0 0 0 0 0 0 0 0
70 32 7 5 5 5 4 3 28 5 65 76 5 5 4 5 4 5 52 86 28 5 8 8 45 100 99 95 6 5 5 5 5 2 5 5 5 5 4 5 0 0 0
61 31 5 5 5 5 5 5 4 5 13 30 45 8 5 5 5 66 100 100 89 17 5 98 56 7 100 100 100 7 5 5 5 6 7 5 5 5 1 0 0 0 0
93 19 12 35 5 5 7 85 20 5 3 5 33 28 5 16 21 29 100 100 100 100 100 72 94 100 100 100 100 100 66 92 100 92 15 8 5 3 0 0 0 0 0
50 37 6 14 5 5 55 6 5 0 0 3 4 5 10 15 25 100 64 100 100 100 100 100 100 100 100 100 100 100 100 100 100 66 26 47 5 5 0 0 0 0 0
90 100 52 26 16 100 59 5 5 5 5 2 3 25 5 95 100 100 94 18 93 100 100 100 100 100 100 100 100 100 100 100 100 98 100 100 69 6 5 3 4 0 0
87 100 97 100 100 27 5 5 0 0 0 4 6 39 52 41 75 94 91 97 75 98 100 100 100 100 100 100 100 100 100 100 100 100 64 100 97 10 30 3 2 0 20
5 5 48 20 25 97 4 0 1 1 4 20 94 60 33 5 4 6 30 81 100 100 100 94 100 100 100 100 100 100 100 100 100 100 100 100 100 76 29 32 14 83 61
40 5 0 2 6 4 11 0 86 41 6 26 16 98 53 6 5 33 99 100 100 100 100 100 100 100 100 100 100 100 100 100 100 100 100 100 100 91 100 100 100 100 100
22 5 3 3 10 15 4 4 5 39 100 100 98 63 41 48 86 100 100 100 100 100 100 100 100 100 100 100 100 100 100 100 100 100 100 100 100 99 100 100 92 100 80
5 5 6 14 5 5 5 62 92 94 100 100 100 100 100 99 100 100 100 100 100 100 100 100 100 100 100 100 100 100 100 100 100 100 100 100 100 100 100 100 100 100 100
20 24 7 88 64 71 27 5 8 63 48 57 78 93 100 100 100 100 100 100 100 100 100 100 100 100 100 100 100 100 100 100 100 100 100 100 100 100 100 100 100 100 100
11 27 84 98 33 93 5 5 7 84 100 100 46 73 62 69 100 100 100 100 100 100 100 100 100 100 100 100 100 100 100 100 100 100 100 100 100 100 100 100 100 100 100
62 87 100 79 100 34 7 8 37 8 100 100 100 100 94 100 100 100 100 100 100 100 100 100 100 100 100 100 100 100 100 100 100 100 100 100 100 100 100 100 100 100 100
90 100 68 100 60 5 28 26 28 52 97 87 100 100 100 100 100 99 100 100 100 100 100 100 100 100 100 100 100 100 100 100 100 100 100 100 100 100 100 100 100 100 100
99 100 99 92 22 7 16 14 8 48 97 100 100 100 100 100 100 100 100 100 100 100 100 100 100 100 100 100 100 100 100 100 100 100 100 100 100 100 100 100 100 100 100
100 100 78 6 6 5 7 15 96 100 100 100 100 100 100 100 100 100 100 100 100 100 100 100 100 100 100 100 100 100 100 100 100 100 100 100 100 100 100 100 100 100 100
32 42 22 11 81 100 99 100 100 100 100 100 100 100 100 100 100 100 100 100 100 100 100 100 100 100 100 100 100 100 100 100 100 100 100 100 100 100 100 100 99 67 5
71 100 100 100 100 100 74 100 100 100 100 100 100 100 100 100 100 100 100 100 100 100 100 100 100 100 100 100 100 100 100 100 100 100 100 100 100 100 100 76 98 97 93
100 100 93 41 48 86 59 38 45 100 100 100 100 100 100 100 100 100 100 100 100 100 100 100 100 100 100 100 100 100 98 85 96 56 84 96 99 100 87 89 49 7 6
100 100 100 100 100 100 100 77 38 66 100 100 100 100 100 100 100 100 100 100 100 100 100 100 100 100 100 100 100 100 100 100 87 100 100 91 17 65 71 70 57 31 43
100 100 100 100 100 100 100 100 99 100 100 100 98 99 68 92 96 100 100 100 100 100 100 100 100 100 97 96 100 100 100 100 97 65 85 30 19 6 5 5 5 5 5
100 100 100 100 100 76 66 53 16 36 66 56 30 7 5 15 5 11 30 98 100 100 100 100 100 100 100 100 69 29 14 17 7 8 5 63 5 5 4 5 0 5 5
79 16 14 6 5 5 5 1 3 5 5 5 0 0 0 1 5 6 5 5 5 5 7 24 5 5 5 5 7 5 5 5 12 5 5 5 5 6 5 5 4 2 5
100 27 11 5 5 5 5 3 2 0 0 0 0 0 2 5 6 40 7 5 5 5 5 5 5 5 5 5 5 5 5 5 70 14 5 44 27 18 9 8 5 5 5

GFSMA_prec_cloud_060.txt.gz
Cloud_Cover
0 0 1 9 12 10 30 28 10 5 11 25 5 5 5 5 0 10 14 0 0 0 1 5 5 5 14 4 0 90 100 100 98 10 5 5 5 3 0 0 2 0 0
0 3 5 6 31 68 12 7 8 5 16 44 62 77 81 39 5 1 10 1 0 1 5 30 47 82 90 87 10 5 6 100 100 100 93 5 5 5 4 5 2 0 1
5 19 16 28 32 69 49 5 11 5 5 9 95 81 87 100 79 41 5 5 5 5 98 100 100 100 100 100 38 62 97 100 100 100 100 86 16 5 5 5 5 1 5
5 53 22 30 66 64 8 32 8 11 33 8 5 11 28 6 5 9 14 5 20 54 81 81 100 100 100 100 100 100 100 100 100 100 100 100 100 96 6 5 5 3 5
37 82 90 100 100 99 87 74 83 92 8 5 5 5 1 3 5 5 5 10 26 96 98 100 100 100 99 100 70 98 100 100 100 100 100 100 100 100 94 5 5 5 4
93 100 100 100 72 100 95 68 79 45 40 27 6 5 5 3 5 5 5 5 7 92 100 100 85 93 100 100 77 49 68 100 100 100 100 100 100 100 100 98 84 5 5
100 100 100 94 89 67 68 65 21 62 72 46 58 70 29 5 5 5 5 4 40 5 11 65 78 42 72 92 40 44 96 100 100 100 100 100 100 100 100 91 100 93 22
100 100 100 100 100 97 83 26 60 40 14 4 2 31 77 24 23 13 33 54 32 71 100 100 100 100 100 100 100 100 100 100 100 100 100 100 100 100 100 100 100 100 35
100 100 100 100 100 92 22 50 16 9 13 11 0 50 79 70 89 88 8 5 5 6 89 100 100 100 100 100 100 100 100 100 100 100 100 100 100 100 100 100 100 100 100
63 75 96 62 22 27 10 5 5 3 1 7 14 28 66 22 7 18 1 5 10 16 81 99 99 100 100 100 100 100 100 100 100 100 100 100 100 100 100 100 80 86 88
85 92 6 2 28 30 13 8 9 25 9 49 98 36 45 98 100 100 100 32 28 49 75 100 100 100 100 100 100 100 100 100 100 100 100 100 100 100 100 100 100 100 100
66 5 5 16 18 13 13 8 11 16 28 43 45 56 96 100 100 95 100 46 57 63 90 100 100 100 100 100 100 100 100 100 100 100 100 100 100 100 100 100 100 100 100
12 5 10 33 6 16 12 91 5 5 11 34 35 96 77 99 100 100 100 100 100 91 100 100 100 100 100 100 100 100 100 100 100 100 100 100 100 100 100 100 100 100 100
5 5 6 57 90 100 87 73 16 17 26 59 16 42 88 96 99 100 100 100 100 100 100 100 100 100 100 100 100 100 100 100 100 100 100 100 100 100 100 100 100 100 100
67 92 100 98 52 95 76 97 64 97 88 28 73 75 96 100 100 82 100 100 100 100 96 100 100 100 100 100 100 100 100 100 100 100 100 100 100 100 100 100 100 100 100
100 100 97 100 100 92 32 41 18 15 99 99 60 92 99 100 100 100 100 100 100 100 100 100 100 100 100 100 100 100 100 100 100 100 100 100 100 100 100 100 100 100 100
100 100 100 100 62 25 30 20 5 7 15 45 78 100 100 100 100 100 100 100 100 98 100 100 100 100 100 100 100 100 100 100 100 100 100 100 100 100 100 100 100 100 100
100 100 75 54 67 37 17 5 4 11 57 78 100 100 100 100 100 100 100 100 100 100 100 100 100 100 100 100 100 100 100 100 100 100 100 100 100 100 100 100 100 100 100
57 59 62 100 74 27 41 94 100 100 100 100 100 100 100 100 100 100 100 100 100 100 100 100 100 100 100 100 100 100 100 100 100 100 100 100 100 100 100 100 100 100 100
99 90 100 100 51 10 54 42 17 50 100 100 100 100 100 100 100 100 100 100 100 100 100 100 100 100 100 100 100 100 100 100 100 100 100 100 100 90 100 100 100 100 73
100 100 100 100 100 100 95 27 55 98 95 100 100 100 100 100 98 95 96 94 99 100 100 100 90 100 100 100 100 100 100 100 100 100 100 100 100 100 100 100 100 100 100
100 100 100 100 100 100 100 100 100 100 100 100 100 76 100 94 96 100 100 100 100 61 97 100 99 100 95 8 95 93 96 100 98 98 100 75 6 20 33 8 5 40 66
100 100 100 98 100 100 100 79 100 100 99 68 42 15 14 33 51 58 26 42 9 13 12 27 92 95 79 79 70 37 46 84 46 17 6 5 5 6 5 5 4 5 5
100 100 86 13 5 5 5 5 5 10 11 8 4 2 5 1 4 3 5 5 5 3 0 1 5 5 5 12 42 53 74 80 70 68 20 59 5 5 5 5 2 5 5
7 30 22 10 62 5 5 2 2 5 5 5 5 5 5 5 5 35 5 5 5 5 5 6 5 6 7 33 84 82 84 41 35 7 5 5 5 8 5 5 5 4 5
30 59 97 100 87 55 5 5 5 21 66 6 10 7 6 5 45 68 5 5 5 5 5 5 4 4 0 0 0 3 5 44 64 26 5 42 28 24 43 5 7 5 4

GFSMA_prec_cloud_063.txt.gz
Cloud_Cover
0 0 4 8 16 10 25 34 28 8 4 14 16 64 85 99 59 99 68 19 5 5 5 7 19 3 5 99 100 100 100 100 100 100 99 88 71 100 100 100 22 5 5
0 2 4 6 15 15 14 23 28 20 7 5 5 5 34 19 40 5 9 5 5 5 5 5 5 18 83 100 100 100 100 100 100 100 100 100 66 100 100 100 100 19 11
5 5 5 5 5 5 5 15 34 99 20 50 14 5 5 5 8 15 8 12 5 5 5 5 5 20 100 100 100 100 100 93 100 90 100 100 100 100 100 100 100 100 100
4 5 5 5 5 5 9 78 100 90 77 24 5 5 5 5 5 5 5 6 9 5 5 5 12 5 18 91 100 100 100 100 100 78 80 100 100 100 100 100 100 100 100
5 7 5 5 5 11 96 100 56 7 40 14 5 5 5 5 5 18 5 5 5 5 58 13 14 57 48 52 54 60 77 100 100 100 100 99 100 100 100 100 100 100 100
46 19 6 5 16 87 100 78 11 94 98 99 5 5 7 5 88 8 5 16 88 79 79 87 97 98 90 41 54 97 100 100 100 100 100 100 100 100 100 100 100 100 100
10 46 59 94 100 100 100 64 100 100 100 47 22 41 13 37 5 5 24 12 22 89 97 100 100 100 98 100 100 100 100 100 100 100 100 100 100 100 100 100 100 100 100
62 99 100 100 100 100 98 100 100 92 85 54 66 68 91 51 7 5 1 0 5 83 91 21 80 20 99 100 82 99 100 100 100 100 100 100 100 100 100 100 100 100 100
100 100 100 100 92 98 100 100 86 9 49 49 40 87 100 100 88 27 19 6 5 5 5 5 28 95 100 97 100 100 100 100 100 100 100 100 100 100 100 100 100 100 100
100 100 97 89 100 100 97 47 38 24 16 25 42 28 79 100 100 100 86 15 5 11 8 5 36 60 94 100 98 100 100 100 100 96 100 100 100 100 100 100 100 100 100
92 20 52 97 60 46 100 88 99 86 46 18 32 51 99 100 100 100 100 100 100 64 36 99 100 100 99 100 100 100 100 100 100 100 100 100 100 100 100 100 100 100 100
100 100 99 64 92 79 100 78 70 48 93 77 57 92 100 100 86 100 99 97 54 20 51 100 45 59 37 64 100 100 100 100 100 100 100 100 100 100 100 100 100 100 100
100 100 100 100 97 66 82 65 94 100 42 99 100 100 59 66 17 60 98 100 100 97 100 76 3 4 79 28 100 100 100 100 100 100 100 100 100 100 100 100 100 100 100
93 79 73 67 99 90 100 100 100 76 100 96 83 92 100 100 98 100 100 100 100 97 98 89 1 1 99 13 17 100 100 100 100 100 100 100 100 100 100 100 100 100 100
54 38 94 97 100 100 100 100 100 100 100 100 100 100 100 99 100 100 100 100 100 100 100 0 68 22 50 100 59 100 100 100 100 100 100 100 100 100 100 100 100 100 100
100 100 100 100 100 100 100 100 99 26 96 99 99 100 100 100 84 100 100 100 100 100 100 100 57 57 100 95 100 100 100 100 100 100 100 100 100 100 100 100 100 100 100
100 100 100 100 100 100 100 81 53 12 55 100 100 100 100 100 100 100 100 100 100 100 100 100 100 100 100 100 100 100 100 100 100 100 100 100 100 100 100 100 100 100 100
100 100 100 96 100 100 74 63 33 42 6 92 69 87 100 100 100 100 100 100 100 100 100 100 87 100 100 100 100 100 100 100 100 100 100 100 100 100 100 100 100 100 100
99 96 81 100 100 100 80 50 85 50 100 100 100 100 97 84 100 100 100 100 100 100 100 100 99 100 100 100 100 100 100 100 100 100 100 100 100 100 100 100 100 100 100
88 100 99 100 100 42 48 88 100 62 99 100 100 100 100 95 95 71 53 44 19 82 83 98 80 95 94 100 100 100 100 100 100 100 100 100 100 100 100 100 100 100 95
100 100 100 100 100 100 89 100 91 95 100 98 100 100 100 100 99 84 71 89 86 96 100 100 72 51 88 76 90 100 100 100 100 100 100 100 100 100 100 100 100 100 100
100 100 100 100 100 100 100 100 100 100 100 86 47 70 82 97 100 99 81 91 74 18 74 85 20 19 9 5 5 5 8 99 100 100 100 100 100 90 100 100 100 99 100
100 100 100 100 98 99 84 64 29 5 7 5 5 5 5 4 5 5 5 5 5 5 5 5 5 5 5 5 5 5 5 5 5 8 44 35 88 97 74 81 96 50 6
100 100 100 95 77 8 5 5 4 12 48 31 5 5 5 23 28 58 17 6 5 5 8 5 5 5 4 2 5 5 5 5 7 5 5 60 5 5 5 5 5 5 5
100 100 35 5 1 5 21 81 78 100 99 72 52 60 72 15 77 60 11 7 14 5 11 15 5 5 5 29 22 46 34 44 36 5 5 16 5 12 5 5 5 7 51
99 38 72 5 5 5 5 44 97 100 100 93 100 100 88 90 100 100 34 65 20 8 5 5 2 2 0 0 0 5 5 63 70 6 5 43 53 18 52 5 6 5 5

GFSMA_prec_cloud_066.txt.gz
Cloud_Cover
5 5 6 4 11 10 24 26 38 23 2 0 1 5 30 97 22 5 13 5 5 4 5 5 26 32 4 1 0 1 6 91 100 100 100 100 100 100 100 100 100 100 100
5 5 5 5 5 14 7 20 23 30 21 4 5 30 100 100 5 6 48 7 5 5 5 5 5 8 13 18 9 6 6 20 48 100 100 100 100 100 100 100 100 100 100
5 5 5 5 5 6 3 8 16 25 36 34 39 100 98 50 5 59 42 5 5 5 5 5 5 5 11 13 16 37 14 5 10 62 100 100 100 100 100 100 100 100 100
8 6 5 5 5 12 6 10 9 17 27 71 99 72 7 20 63 65 16 5 23 12 5 10 5 15 33 83 32 13 90 20 16 30 100 100 100 100 100 100 100 100 100
5 5 5 5 5 7 5 6 15 24 15 30 10 85 54 58 40 5 5 12 6 5 27 86 32 36 51 96 96 87 100 100 68 100 100 100 100 100 100 100 100 100 100
7 24 8 5 8 24 16 25 38 35 87 79 21 76 6 6 28 54 23 5 14 5 6 77 58 73 89 32 23 11 48 100 98 92 92 100 100 100 100 100 100 100 100
12 19 72 75 100 81 66 16 26 8 100 42 75 22 84 100 100 26 5 22 5 5 5 5 6 5 73 40 5 5 5 5 88 94 72 100 100 100 100 100 100 100 100
74 73 33 57 15 9 61 100 40 94 100 91 67 100 100 100 53 8 12 5 5 5 5 5 5 5 10 18 20 13 51 100 85 96 100 100 95 100 100 100 100 100 100
99 99 56 51 66 99 100 100 100 100 100 100 100 79 100 90 64 80 20 45 78 5 5 5 5 16 70 57 100 100 100 100 100 100 100 100 100 89 100 100 100 100 100
100 100 100 100 100 100 100 100 100 100 100 100 75 29 50 100 100 100 98 100 89 28 91 97 48 20 20 93 99 100 75 100 100 100 100 100 100 100 99 100 100 100 100
100 100 100 100 100 100 100 100 100 98 62 81 54 61 40 63 98 100 100 26 31 5 33 78 0 1 5 14 72 100 100 100 100 100 100 100 100 100 100 100 100 100 100
100 100 100 100 100 100 99 100 100 100 98 96 86 99 100 98 100 100 100 100 100 100 67 0 0 59 63 1 0 3 74 100 100 100 100 100 100 100 100 100 100 100 100
100 100 100 100 100 100 100 100 100 100 100 100 100 100 100 100 100 100 100 100 90 91 98 0 0 0 0 0 0 0 4 10 100 100 100 100 100 100 100 100 100 100 100
100 100 100 100 100 100 100 100 100 100 100 100 100 100 100 100 100 100 100 100 100 97 89 2 25 18 22 21 8 0 4 16 99 100 100 100 100 100 100 100 100 100 100
100 100 100 100 100 100 100 100 100 100 100 100 100 100 100 100 100 100 97 98 100 100 100 100 87 34 24 51 26 96 55 100 93 100 100 100 100 100 100 100 100 100 100
100 100 100 100 100 100 100 100 100 98 100 100 100 100 100 100 100 88 68 90 88 100 100 100 99 91 100 94 100 100 100 100 100 100 100 100 100 100 100 100 100 100 100
100 100 100 100 100 100 100 100 100 100 100 100 100 100 100 100 100 100 100 100 100 100 100 100 93 86 100 87 100 100 100 100 100 100 100 100 100 100 100 100 100 100 100
100 100 100 99 63 100 83 100 100 100 100 96 53 35 67 98 100 100 100 100 100 100 100 100 100 51 80 96 98 98 99 84 100 100 100 100 100 100 100 100 100 100 100
87 73 74 77 99 75 100 100 100 100 100 100 91 100 100 98 74 100 100 97 97 40 85 100 100 98 92 85 66 100 97 100 100 100 100 100 100 100 100 100 100 100 100
100 100 100 100 99 100 100 100 100 100 100 100 100 100 100 100 60 81 62 25 7 9 60 92 100 100 99 100 100 100 100 100 100 100 100 100 100 100 100 100 100 100 100
100 100 100 100 100 100 100 100 100 100 100 100 100 100 100 100 100 100 55 10 5 5 21 11 8 39 98 62 72 71 91 99 100 100 100 93 100 100 98 99 100 100 95
100 100 100 100 100 100 100 100 100 100 88 80 22 59 78 92 40 15 5 5 7 67 49 19 32 6 5 5 5 5 12 5 5 5 5 5 30 61 100 100 100 100 100
100 100 100 100 100 97 100 100 100 68 5 5 5 5 5 28 7 68 52 40 71 70 68 83 59 13 6 5 5 5 5 5 5 5 5 5 5 5 5 28 75 94 99
100 100 100 98 100 100 100 96 77 5 5 5 79 98 100 46 48 96 100 80 55 94 100 78 70 54 6 5 5 5 5 5 5 5 5 72 5 5 5 5 5 5 5
100 100 100 100 100 100 100 100 75 4 5 65 100 99 93 74 100 100 100 100 100 100 100 96 72 5 7 7 10 5 5 38 16 5 5 21 8 12 5 5 5 6 53
100 100 100 100 100 100 100 57 5 0 4 5 5 12 45 47 100 100 100 100 100 91 66 69 17 13 5 5 5 5 23 58 78 6 5 49 54 20 50 5 5 5 5

GFSMA_prec_cloud_069.txt.gz
Cloud_Cover
5 12 5 5 5 5 5 5 2 0 4 5 5 5 5 2 5 91 100 37 5 5 31 9 8 23 31 5 7 4 5 0 0 1 5 17 33 38 100 100 100 100 100
3 5 5 5 15 15 5 5 1 2 5 5 5 5 5 5 64 100 47 5 63 98 72 10 5 14 70 59 31 26 5 12 10 14 10 6 8 14 90 100 100 100 100
5 5 5 5 32 16 6 5 5 5 5 5 5 5 5 5 60 80 18 86 100 97 6 5 5 5 8 19 31 100 88 13 40 88 87 91 42 61 99 100 100 100 100
43 42 43 5 26 27 5 5 5 6 5 5 5 12 23 19 99 100 89 99 99 38 5 5 3 2 5 5 5 53 100 99 25 63 98 8 7 16 98 100 100 100 100
5 41 26 7 33 24 6 5 7 10 8 7 5 34 16 72 100 100 100 97 24 5 5 5 5 6 13 20 8 14 100 100 95 17 22 64 20 58 54 28 100 100 100
8 34 20 13 10 6 20 49 52 56 36 43 44 54 86 100 100 83 96 30 5 5 5 13 13 37 78 100 100 69 5 6 12 81 56 9 21 13 60 93 100 100 100
57 83 100 90 57 62 71 100 100 100 91 9 20 78 100 100 100 5 47 5 5 5 5 5 5 6 5 52 100 100 70 18 86 90 11 5 7 93 44 100 100 100 100
100 100 100 100 100 100 100 100 96 65 17 91 91 100 100 100 59 48 68 13 5 5 37 49 19 5 5 5 20 95 100 100 76 84 100 95 44 45 79 100 98 100 100
100 100 100 100 100 100 100 99 78 87 100 100 100 92 84 99 100 96 51 61 83 100 97 47 8 5 12 51 99 100 100 100 100 100 100 100 100 97 96 100 83 98 100
100 100 100 92 100 91 99 100 100 100 100 100 100 100 100 100 100 100 89 100 100 100 100 100 43 5 6 2 5 18 85 94 91 100 100 100 100 100 100 100 100 100 100
100 100 100 100 100 100 100 100 100 100 100 100 100 100 100 99 100 100 100 98 100 100 100 100 59 5 32 2 0 11 78 99 100 100 91 100 100 100 100 100 100 100 100
100 100 100 100 100 100 100 100 100 100 100 100 100 100 100 100 100 87 100 100 100 100 100 58 5 23 35 0 0 0 0 5 0 2 48 100 100 100 100 100 100 100 100
100 100 100 100 100 100 100 100 100 100 100 100 100 100 100 100 100 100 100 100 100 99 100 100 47 70 2 0 0 0 0 0 0 0 26 100 100 100 100 100 100 100 100
100 100 100 100 100 100 100 100 100 100 100 100 100 100 100 100 87 100 100 100 100 99 81 100 49 6 21 40 17 0 9 4 11 62 80 100 100 100 100 100 100 100 100
100 100 100 100 100 100 100 100 100 100 100 100 100 100 100 100 90 92 100 100 100 92 97 100 79 90 44 92 99 96 100 71 85 100 98 100 100 100 100 100 100 100 100
100 100 100 100 100 100 100 100 100 100 100 100 100 100 100 100 100 100 100 100 100 100 100 99 91 100 77 85 100 100 100 100 98 100 55 100 100 100 100 100 100 100 100
100 100 100 100 100 100 100 100 100 100 100 100 100 100 100 100 100 100 100 100 100 100 100 100 100 100 90 67 80 99 100 100 100 100 100 100 100 100 100 100 100 100 100
100 100 100 100 100 100 100 100 100 100 100 100 100 100 100 100 100 100 100 100 100 100 100 100 100 100 95 57 62 54 57 100 100 100 100 100 100 100 100 100 100 100 100
100 100 100 100 100 100 100 100 100 100 100 100 100 100 100 100 100 97 92 100 84 39 29 54 74 86 82 72 63 55 56 87 94 100 100 100 100 100 99 96 100 100 100
100 100 100 98 84 93 99 100 100 100 100 100 100 100 100 100 75 38 46 21 6 2 10 40 69 97 80 100 100 100 55 25 49 67 99 100 100 100 100 100 100 100 100
100 100 100 100 100 100 100 100 100 100 100 100 100 100 100 95 88 81 21 5 5 5 5 10 22 47 48 35 12 6 6 6 11 13 24 29 36 47 54 47 40 76 100
100 100 100 100 100 100 100 100 100 100 100 100 100 100 96 6 5 5 5 5 5 5 7 7 66 83 97 57 97 29 39 5 2 0 0 0 4 5 5 5 5 5 5
100 100 100 100 100 100 100 100 100 100 100 100 53 45 5 36 5 5 66 42 5 64 90 66 99 66 98 100 98 52 31 5 4 4 5 2 5 5 5 5 5 5 5
100 100 100 100 100 100 100 100 100 100 58 99 100 96 5 5 7 4 5 5 6 92 100 100 93 100 100 100 38 18 5 5 5 5 5 5 5 5 5 5 5 5 5
100 100 100 100 100 100 100 100 100 100 100 100 68 8 5 5 7 5 16 26 39 80 95 100 83 19 14 10 5 5 5 5 5 5 5 7 5 5 5 5 5 21 56
100 100 100 100 100 100 100 98 100 99 99 100 6 2 5 5 5 5 4 5 5 5 34 96 21 6 5 5 5 5 5 5 5 11 5 60 50 62 48 5 5 5 5

GFSMA_prec_cloud_072.txt.gz
Cloud_Cover
0 0 0 5 5 5 5 5 5 5 5 5 5 5 5 5 5 5 5 5 5 100 100 67 100 81 30 9 12 4 0 2 0 5 5 5 5 21 5 6 13 66 100
4 5 4 5 5 5 5 5 5 5 6 5 5 5 5 5 5 5 5 5 92 100 100 100 100 27 57 100 99 74 31 18 7 7 8 6 6 4 3 5 61 100 100
5 11 5 5 22 33 49 18 42 5 5 5 10 5 5 5 30 5 41 40 100 100 100 100 82 48 4 6 64 100 100 93 13 8 5 13 4 4 11 10 5 7 93
15 6 5 5 46 59 13 5 19 42 18 46 6 33 33 100 94 61 6 88 100 100 100 66 5 5 1 0 22 25 89 100 92 5 5 79 46 30 49 10 5 16 14
75 63 46 22 72 41 12 40 38 12 31 40 41 97 100 100 89 78 89 95 96 99 6 5 5 3 2 21 76 64 97 82 39 26 5 5 8 43 5 5 5 9 29
98 81 49 51 94 97 62 38 50 62 84 96 100 100 100 100 100 100 99 100 92 38 5 3 4 0 1 62 100 100 96 97 96 58 21 5 5 5 5 5 5 5 86
100 92 99 86 67 86 99 100 100 100 100 100 100 100 100 100 100 100 96 100 37 5 5 0 0 0 0 5 6 53 45 89 79 21 64 82 33 5 5 5 5 98 100
100 100 100 100 100 100 100 100 100 100 100 100 100 100 100 100 100 100 100 17 5 5 5 0 5 5 5 5 17 5 69 100 88 64 53 99 98 94 93 74 94 92 100
100 100 100 100 100 100 100 100 100 100 100 100 100 100 100 100 100 100 100 74 78 74 29 5 5 5 5 6 25 34 100 100 89 20 6 70 100 100 100 100 94 98 100
100 100 100 100 100 100 100 100 100 100 100 100 100 100 100 100 100 100 77 76 100 100 63 24 10 34 88 81 76 26 8 29 100 99 96 19 45 100 97 100 100 100 100
100 100 100 100 100 100 100 100 100 100 100 100 100 100 100 100 99 100 100 72 77 93 100 82 95 100 100 100 94 23 6 3 2 39 56 95 75 91 70 100 100 100 100
100 100 100 100 100 100 100 100 100 100 100 100 100 100 100 100 100 79 92 100 100 99 100 100 100 100 100 100 100 13 5 1 11 56 70 100 100 100 100 85 37 100 100
100 100 100 100 100 100 100 100 100 100 100 100 100 100 100 100 100 100 100 100 100 100 100 100 100 100 100 100 98 6 4 34 45 68 92 100 100 100 90 66 94 100 100
100 100 100 100 100 100 100 100 100 100 100 100 100 100 100 100 100 100 100 65 100 100 100 100 100 100 100 100 76 22 49 100 92 99 75 100 100 47 8 10 82 100 100
100 100 100 100 100 100 100 100 100 100 100 100 100 100 100 100 100 100 88 100 100 100 100 100 100 100 100 89 100 76 100 100 100 100 22 100 98 100 100 85 78 100 100
100 100 100 100 100 100 100 100 100 100 100 100 100 100 100 100 91 99 99 100 100 100 100 100 100 100 100 97 88 83 70 100 100 100 100 100 93 64 100 100 100 100 100
100 100 100 100 100 100 100 100 100 100 100 100 100 100 100 76 73 100 100 100 100 100 100 100 100 100 100 77 72 82 54 96 88 100 100 100 100 100 99 100 100 100 100
100 100 100 100 100 100 100 100 100 100 100 100 100 98 100 100 100 100 100 100 100 100 100 100 100 98 100 84 90 100 76 34 51 100 98 100 100 100 98 86 100 100 100
100 100 100 100 100 100 100 100 100 100 100 97 100 99 100 100 100 100 100 100 100 99 62 88 100 100 98 94 93 100 73 69 51 51 93 98 100 100 100 100 62 81 100
90 100 100 100 100 100 100 100 100 92 100 100 100 100 100 100 93 99 100 86 100 42 26 59 100 100 95 80 93 41 74 5 33 14 6 45 94 100 36 100 98 40 99
100 100 100 100 100 100 100 100 100 100 100 100 100 100 100 100 95 100 100 66 10 4 5 14 37 32 17 22 9 35 32 46 100 38 5 3 5 5 13 50 88 68 19
100 100 100 100 100 100 100 100 100 100 100 100 99 78 100 100 100 98 5 5 5 5 35 5 5 5 48 5 67 91 99 100 71 6 5 5 2 0 0 0 3 5 5
100 100 100 100 100 100 100 100 100 100 100 100 98 100 100 100 96 13 2 0 3 5 4 5 10 69 99 99 100 100 89 43 15 27 5 5 5 5 5 1 2 5 5
100 100 100 100 100 100 100 100 100 100 100 100 100 100 100 66 74 5 5 0 0 4 5 5 5 5 5 8 6 40 9 9 5 5 5 5 5 5 5 5 5 5 5
100 100 100 100 100 88 100 100 99 100 100 100 100 100 100 42 5 5 5 1 0 0 0 5 3 1 4 5 5 5 38 5 5 5 5 6 25 5 5 5 5 6 10
100 100 100 100 100 100 100 100 100 100 100 100 100 100 5 12 25 5 5 5 0 0 2 5 5 5 5 5 5 5 5 6 13 73 60 53 74 61 46 5 5 5 5

GFSMA_prec_cloud_075.txt.gz
Cloud_Cover
0 0 0 0 0 0 0 4 4 5 5 5 5 5 5 5 5 5 5 2 5 5 5 5 9 95 44 17 6 3 0 0 0 0 0 1 5 5 5 4 7 3 24
2 3 1 0 0 1 5 5 5 5 5 5 5 5 5 5 5 5 5 17 23 5 5 79 70 6 8 5 58 99 91 4 0 2 5 5 5 5 5 5 4 5 26
58 49 60 50 22 5 5 28 13 5 5 5 6 18 8 5 5 48 63 96 20 70 94 96 5 5 5 5 5 9 1 0 0 5 5 5 37 17 5 16 6 4 16
48 97 100 79 40 43 62 71 22 34 71 41 49 65 48 39 100 88 96 41 43 90 18 5 4 5 5 5 5 0 23 24 5 5 5 5 5 5 8 5 11 12 11
59 57 65 65 85 94 92 53 40 44 67 98 100 100 100 100 99 70 79 15 23 39 13 5 5 5 5 1 5 88 67 9 33 50 25 24 32 5 5 5 28 5 5
89 64 52 61 99 100 100 100 95 99 94 100 100 100 100 100 78 87 97 21 6 66 84 8 5 5 0 0 4 100 100 100 29 87 100 50 27 44 16 8 17 96 65
100 100 100 100 100 100 100 100 100 100 100 100 100 100 100 100 100 100 82 34 30 36 12 5 5 0 0 0 0 5 48 65 88 100 100 100 78 63 100 87 49 88 100
100 100 100 100 100 100 100 100 100 100 100 100 100 100 100 100 100 100 100 41 98 61 9 5 1 0 0 0 5 5 45 100 100 100 61 40 82 84 53 44 39 72 76
100 100 100 100 100 100 100 100 100 100 100 100 100 100 100 100 100 100 100 100 72 50 5 5 1 0 4 5 5 49 100 99 100 100 100 60 5 57 100 100 97 98 73
100 100 100 100 100 100 100 100 100 100 100 100 100 100 100 100 100 100 100 100 100 88 83 91 99 6 5 7 22 92 100 100 100 100 82 8 94 27 64 84 99 100 100
100 100 100 100 100 100 100 100 100 100 100 100 100 100 100 100 100 100 100 100 100 100 94 16 53 87 51 25 96 91 100 100 100 91 79 100 100 100 97 71 81 85 100
100 100 100 100 100 100 100 100 100 100 100 100 100 100 100 100 100 100 100 100 100 100 100 100 52 39 49 74 100 100 100 100 100 58 44 100 100 100 100 100 61 59 99
100 100 100 100 100 100 100 100 100 100 100 100 100 100 100 100 100 100 100 100 100 100 100 81 80 61 66 8 100 100 97 100 98 98 90 97 100 79 98 91 60 79 69
100 100 100 100 100 100 100 100 100 100 100 100 100 100 100 100 100 100 100 100 100 99 34 99 100 100 100 100 100 100 100 100 100 100 92 81 96 1 19 72 1 37 50
100 100 100 100 100 100 100 100 100 100 100 100 100 100 100 100 100 100 100 100 99 46 86 100 90 70 82 95 100 100 100 100 100 100 100 100 97 38 11 58 56 19 68
100 100 100 100 100 100 100 100 100 100 100 100 100 100 100 100 100 100 100 100 93 51 100 100 100 100 100 100 94 100 81 100 100 100 100 100 100 100 100 100 100 100 100
100 100 100 100 100 100 100 100 100 100 100 100 100 100 100 100 100 100 100 100 100 100 100 100 100 94 91 100 89 100 88 60 48 100 100 100 100 100 90 69 100 100 100
100 100 100 100 100 100 100 100 100 100 100 100 100 100 100 100 100 100 98 99 83 100 100 100 76 95 72 83 100 100 100 34 93 49 100 97 100 100 100 72 13 42 99
100 100 100 100 100 100 100 100 100 100 100 100 100 100 100 93 78 97 100 100 100 97 100 100 100 100 100 88 32 47 22 23 18 33 11 26 14 88 98 100 100 69 90
47 87 100 100 100 100 100 100 100 100 100 100 100 75 64 76 99 100 100 100 99 98 100 100 100 100 86 41 4 7 50 80 62 26 5 7 40 14 27 64 66 100 100
97 100 100 100 100 100 85 99 100 99 100 85 93 97 96 100 100 100 100 100 63 100 100 11 40 17 6 1 1 5 19 58 95 96 61 44 17 5 5 5 5 20 87
100 100 100 100 100 100 100 100 100 76 100 100 100 100 100 100 100 94 100 100 100 100 86 54 5 0 0 0 0 0 5 5 10 8 3 3 5 4 0 0 4 5 5
100 100 100 100 100 100 100 100 92 98 100 100 100 100 100 100 99 100 100 100 99 100 31 14 3 0 0 1 5 5 5 5 5 0 0 5 5 5 1 3 0 0 5
100 100 100 100 100 100 100 100 100 100 100 100 100 100 100 100 100 100 100 100 100 97 9 5 5 5 5 5 5 5 5 5 5 5 5 5 5 2 0 2 3 3 4
100 100 100 100 100 100 100 100 100 100 100 100 100 100 100 100 100 100 100 100 94 21 5 5 3 0 3 1 1 3 5 5 5 5 5 5 5 5 5 5 5 2 5
100 100 100 100 100 100 100 100 100 100 100 100 100 100 100 100 100 100 100 68 55 32 5 5 5 5 5 4 0 3 5 5 6 23 41 5 86 51 11 5 5 5 5

GFSMA_prec_cloud_078.txt.gz
Cloud_Cover
3 7 3 1 0 0 2 2 4 4 1 0 4 5 3 2 5 5 5 5 5 6 5 5 5 5 8 24 3 0 4 5 0 0 0 4 5 5 5 9 8 9 4
34 17 6 7 14 20 5 5 24 6 5 5 5 5 5 5 5 5 5 35 49 5 5 3 5 5 5 5 18 12 13 0 0 0 0 5 5 5 5 5 5 5 5
56 15 33 55 61 32 61 58 22 5 5 5 13 20 14 5 5 32 99 98 39 5 5 5 5 5 5 5 5 6 5 0 0 0 4 5 5 6 8 5 6 5 5
67 38 54 84 78 15 21 15 33 10 35 60 60 60 45 100 100 100 34 52 22 100 90 5 6 6 41 18 13 13 13 49 4 5 4 5 8 94 100 95 88 8 6
100 97 84 72 80 25 5 6 11 18 47 88 100 100 100 100 100 91 93 36 92 67 98 97 100 96 44 10 5 11 96 62 6 55 9 5 25 100 100 100 25 26 40
100 100 88 52 49 42 50 84 77 78 100 100 100 100 100 100 97 59 99 78 65 44 100 100 99 79 10 5 5 6 100 100 93 5 61 90 55 100 100 88 70 75 86
100 100 100 100 100 100 100 100 100 100 100 100 100 100 100 80 22 83 100 100 46 36 58 25 56 89 30 11 5 0 0 5 8 5 42 63 100 100 100 68 97 100 100
88 97 96 99 98 100 100 100 100 100 100 100 100 100 100 100 97 100 100 100 100 98 100 100 100 83 5 5 5 4 4 3 55 99 99 100 100 100 100 100 100 100 91
100 100 100 100 100 100 100 100 100 100 100 100 100 100 95 100 100 100 100 100 100 100 100 100 100 23 10 4 0 4 5 8 94 100 100 100 100 100 100 54 100 100 100
100 100 100 100 100 100 100 100 100 100 100 100 100 100 98 100 100 100 100 100 100 100 89 100 100 100 5 5 5 5 5 5 15 32 100 100 100 99 93 72 26 85 72
100 100 100 100 100 100 100 100 100 100 100 100 100 100 100 100 100 100 100 100 100 100 100 100 49 100 88 7 3 8 50 70 97 100 100 100 100 81 67 100 62 9 92
100 100 100 100 100 100 100 100 100 100 100 100 100 100 100 100 100 100 100 100 100 100 100 100 100 100 100 44 7 73 80 100 100 100 100 100 100 98 52 35 42 95 3
100 100 100 100 100 100 100 100 100 100 100 100 100 100 100 100 100 100 100 100 100 100 100 100 96 9 5 8 12 71 100 100 100 100 100 100 100 100 33 13 0 0 36
100 100 100 100 100 100 100 100 100 100 100 100 100 100 100 100 100 100 100 100 100 100 100 100 55 54 100 5 85 100 100 100 100 100 100 100 98 96 40 4 47 5 2
100 100 100 100 100 100 100 100 100 100 100 100 100 100 100 100 100 100 100 100 100 100 100 100 100 57 79 14 82 100 88 100 100 100 100 100 97 100 99 97 85 98 52
100 100 100 100 100 100 100 100 100 100 100 100 100 100 100 100 100 100 100 100 100 100 100 100 100 99 99 100 100 96 61 96 100 100 100 100 100 99 100 97 100 98 100
86 90 96 80 87 100 100 100 100 100 100 100 100 100 100 100 100 100 100 100 100 100 100 100 100 100 100 80 87 100 100 7 60 89 100 100 100 100 88 79 63 85 98
100 100 98 53 75 100 100 86 100 100 100 100 100 100 100 100 100 100 100 100 100 100 100 100 100 100 98 100 100 100 79 14 16 5 8 27 100 100 100 100 99 33 96
97 97 83 88 100 100 91 21 85 100 100 100 100 100 100 100 100 100 100 100 79 100 100 100 100 100 100 100 8 5 4 0 4 4 5 33 96 94 45 32 24 44 10
49 84 81 90 99 79 38 11 78 48 47 55 53 31 62 71 100 100 100 100 78 100 100 100 100 100 100 95 25 5 3 5 0 0 0 3 33 55 65 23 5 5 51
96 100 99 75 100 100 100 91 94 100 100 100 98 100 100 100 100 90 98 92 100 100 100 100 100 100 100 100 27 0 4 1 0 0 0 2 2 2 1 1 4 5 5
100 100 100 100 100 100 100 100 100 100 100 100 100 100 100 100 100 100 100 100 100 100 100 100 100 100 100 35 5 5 1 5 5 2 0 0 0 5 5 5 5 5 5
98 100 100 100 100 100 100 100 100 100 100 100 98 98 100 100 100 100 100 100 99 100 100 100 100 100 100 46 5 6 5 6 5 0 0 0 0 1 5 5 5 5 5
99 100 100 100 100 94 100 100 100 100 100 100 100 100 100 100 100 100 100 100 100 100 100 100 100 100 100 5 5 5 5 5 4 0 0 5 5 5 5 5 5 5 13
99 100 100 100 98 78 86 100 100 100 100 100 100 100 100 100 100 100 100 100 100 100 100 100 100 100 39 5 5 5 5 5 10 5 5 5 5 5 5 5 5 5 5
100 100 100 100 100 100 94 88 99 100 100 100 100 100 100 100 100 100 100 100 100 100 98 90 100 100 60 67 5 5 5 16 56 22 8 7 5 8 38 5 8 5 5

GFSMA_prec_cloud_081.txt.gz
Cloud_Cover
5 0 0 3 4 5 5 5 5 5 5 5 5 5 5 5 5 5 10 79 99 100 71 5 5 5 17 29 15 5 5 3 0 0 0 1 0 5 2 5 6 39 59
5 0 3 5 5 14 5 5 5 5 5 5 5 5 5 5 5 6 50 83 100 36 5 5 5 5 18 16 18 48 56 0 3 5 5 0 0 0 4 5 6 9 99
91 36 13 31 34 5 5 5 5 5 6 47 34 8 11 6 6 32 100 100 100 5 27 11 5 5 49 84 64 9 7 69 5 2 5 0 0 5 6 9 5 62 100
78 78 52 12 48 28 23 58 52 78 68 79 95 58 65 100 100 100 100 95 31 97 100 78 93 85 100 88 96 98 51 31 84 38 2 0 0 21 83 5 34 100 100
100 100 98 81 99 99 96 100 100 75 46 76 100 100 100 100 100 100 96 31 63 76 90 100 100 100 100 100 100 100 99 8 14 25 99 82 12 69 5 42 97 100 98
100 100 100 99 100 100 100 100 100 100 100 100 100 100 100 100 100 100 63 19 44 59 100 100 100 100 100 100 100 78 100 17 16 37 47 54 94 90 66 58 100 100 100
100 100 100 100 100 100 100 100 100 100 100 100 100 100 100 100 89 81 100 100 99 83 92 100 100 100 100 100 70 78 22 5 5 0 6 32 25 85 100 100 100 100 100
100 100 100 100 100 100 100 100 100 100 100 100 100 100 100 100 100 100 100 100 81 100 100 100 100 100 100 100 87 12 40 5 4 9 12 7 81 100 100 100 100 81 65
100 100 100 100 100 100 100 100 100 100 100 100 100 100 100 100 100 100 100 100 100 100 100 100 100 100 100 100 100 45 5 5 0 20 82 98 100 100 100 99 82 92 84
100 100 87 100 100 100 100 100 100 100 100 100 100 100 90 96 100 100 100 100 100 100 100 100 100 100 100 100 97 18 5 5 20 38 79 85 100 100 92 72 19 8 9
100 100 100 100 100 100 100 100 100 100 98 83 98 100 100 100 100 100 100 100 100 100 100 100 100 100 100 100 87 54 99 93 59 100 100 100 100 83 68 98 100 100 59
100 100 100 100 99 100 100 100 100 100 100 100 100 100 100 100 100 100 100 100 100 100 100 100 100 100 100 100 100 100 100 57 15 98 100 100 100 100 100 70 26 3 8
100 100 100 100 100 100 100 100 100 100 100 100 100 100 100 100 100 100 100 100 100 100 100 100 99 100 93 100 100 46 78 98 100 100 100 100 100 100 95 78 100 21 3
100 100 100 100 100 98 100 99 100 100 100 100 100 100 100 100 100 100 100 100 100 100 100 100 100 100 100 100 99 24 68 100 100 100 100 100 100 100 100 99 100 100 60
100 100 100 95 85 94 97 96 74 39 100 98 100 100 100 100 100 100 100 100 100 100 100 100 100 100 100 98 25 47 90 5 100 100 100 100 100 100 100 100 94 84 58
100 100 100 91 63 73 35 19 6 30 78 99 100 100 100 100 100 100 100 100 100 100 100 100 100 100 100 92 16 49 95 14 100 100 100 100 100 100 95 100 100 98 100
96 91 95 29 24 24 23 8 5 14 56 99 96 100 100 100 98 100 100 100 100 100 100 100 100 100 100 57 89 99 88 100 81 28 100 100 100 100 100 100 100 94 100
75 86 63 40 13 85 23 20 17 7 56 100 100 100 100 100 100 99 100 97 100 98 100 100 95 100 100 100 100 100 100 100 100 90 5 1 58 97 99 63 100 82 100
98 55 17 5 21 20 6 6 6 73 100 99 100 100 100 98 100 86 48 87 97 97 100 100 100 100 100 100 100 100 100 100 100 39 2 0 0 0 0 1 2 5 5
95 100 48 29 5 20 44 37 32 63 72 77 95 100 100 100 98 99 93 82 95 100 98 100 100 100 100 100 100 100 100 100 58 82 3 0 0 0 1 1 4 5 5
7 12 33 62 39 72 100 99 100 98 100 100 100 100 100 100 100 99 100 100 100 100 100 100 100 100 100 98 100 100 100 100 99 24 5 0 0 0 0 0 0 1 4
0 0 0 17 50 100 100 100 100 100 100 100 100 100 100 100 100 100 100 100 100 100 100 100 100 100 100 100 100 100 100 100 100 5 5 1 3 0 0 0 0 1 4
0 0 70 98 94 100 100 100 100 100 100 100 100 100 100 100 100 100 100 100 100 100 100 100 100 100 100 100 100 100 100 74 17 5 5 5 5 3 4 5 5 5 5
4 7 81 100 100 98 100 100 100 92 70 100 100 100 100 100 100 100 100 100 100 100 100 100 100 100 100 100 100 100 100 61 8 5 5 5 5 5 5 5 5 5 8
12 24 97 100 100 67 78 43 96 94 100 100 100 100 100 100 100 100 100 100 100 100 100 100 100 100 100 100 100 100 100 100 98 14 5 5 5 5 5 5 5 6 5
90 65 100 100 85 100 88 94 73 94 79 100 100 100 100 100 100 100 100 100 100 100 100 100 100 100 100 100 100 100 100 100 99 34 5 5 11 10 30 5 6 5 5

GFSMA_prec_cloud_084.txt.gz
Cloud_Cover
36 10 7 26 6 5 5 4 5 5 39 51 11 72 17 11 37 24 8 50 41 33 100 100 92 5 5 12 81 42 5 14 5 62 75 2 3 0 0 0 1 75 74
45 45 9 14 36 10 12 5 5 5 5 6 60 60 53 18 18 5 7 7 16 100 100 62 5 7 6 46 6 9 94 89 100 86 8 0 0 0 0 0 4 22 30
100 100 26 5 13 11 8 7 8 5 5 11 49 54 24 60 18 5 76 73 97 100 100 100 99 26 34 27 5 84 100 88 98 57 5 5 2 0 0 2 5 5 5
100 100 100 100 61 11 11 44 57 46 63 100 100 100 100 97 100 100 100 100 100 99 100 100 100 100 65 78 90 100 92 94 20 95 35 31 2 5 0 17 29 38 50
100 100 100 100 100 95 49 99 100 100 100 100 100 100 100 100 100 97 100 100 100 100 100 100 100 100 100 98 100 71 78 35 78 51 66 100 100 76 4 10 8 72 100
100 100 100 100 100 100 100 100 100 100 100 100 100 100 100 100 100 100 100 100 84 99 62 65 100 99 95 100 100 100 99 100 95 6 49 15 9 95 98 73 9 10 97
100 100 100 100 100 100 100 100 100 100 100 100 100 100 100 100 100 100 99 100 84 33 51 100 100 70 100 87 100 100 100 100 100 16 20 5 9 2 22 100 100 70 100
100 100 92 99 100 100 100 100 100 100 100 100 100 100 100 100 100 100 47 40 26 55 90 100 100 100 100 93 100 100 100 100 73 100 100 100 99 59 5 87 83 99 100
100 100 100 100 99 100 100 100 100 100 100 100 100 100 100 100 100 100 86 90 70 73 100 100 100 100 100 100 100 100 100 100 100 100 93 99 84 64 71 97 14 12 34
100 100 100 88 98 98 100 100 100 100 100 100 100 100 97 100 100 100 100 100 100 100 100 100 100 100 100 100 100 100 100 100 100 94 100 100 100 92 88 90 94 54 12
100 100 100 100 100 100 100 100 98 100 100 99 97 97 99 88 60 100 100 100 100 100 100 100 100 100 100 100 100 100 100 100 100 12 89 100 100 100 100 100 100 100 100
100 100 100 100 100 100 100 100 100 100 100 100 100 100 100 100 100 100 100 100 100 100 100 100 100 100 100 100 100 100 100 79 74 100 94 100 100 100 100 100 100 100 86
100 100 100 100 100 100 100 100 100 100 97 100 100 65 76 93 100 97 100 100 100 100 100 100 100 100 100 100 100 100 100 64 32 11 99 90 100 100 100 100 100 100 100
100 100 100 99 97 96 98 66 98 52 27 16 46 95 97 100 100 100 100 100 100 100 100 100 100 100 98 99 92 89 25 100 12 45 100 100 100 100 84 83 100 95 100
100 100 100 100 100 100 61 57 100 100 100 100 100 100 99 100 100 100 100 100 100 100 100 100 100 100 100 70 58 77 31 94 82 100 100 99 100 100 100 99 78 100 100
100 100 100 100 100 100 100 100 99 100 99 82 66 84 86 97 100 100 100 100 100 100 100 100 100 100 100 100 100 87 15 5 7 100 100 100 100 100 89 100 100 100 100
100 100 89 80 74 91 57 31 20 7 12 88 32 22 51 98 100 100 84 99 100 100 100 100 100 100 100 100 67 100 43 39 5 100 100 100 100 100 100 100 92 95 100
100 100 100 100 90 65 73 17 5 5 5 22 95 89 100 100 100 100 100 100 91 100 100 100 100 100 100 100 100 100 79 85 55 100 100 100 100 100 99 99 69 24 24
100 100 100 100 100 99 97 63 26 8 37 14 5 59 100 100 100 100 100 100 100 100 100 100 100 100 100 100 92 100 100 98 59 100 100 100 100 100 5 2 0 0 0
51 44 5 5 26 16 5 4 5 3 2 5 5 48 81 64 100 69 56 31 100 100 100 100 100 100 100 100 100 100 100 100 95 100 100 100 100 99 6 5 0 0 0
1 0 4 1 0 0 0 62 97 100 100 83 98 100 100 99 100 100 100 100 100 100 100 100 100 100 100 98 100 100 100 100 100 100 100 100 100 26 15 5 0 0 0
0 0 0 0 0 22 100 100 100 100 100 100 100 100 100 100 100 100 100 100 100 100 100 100 100 100 100 100 100 100 100 100 100 100 100 100 100 29 5 5 5 5 5
0 0 0 0 61 100 100 100 100 100 100 100 100 53 5 56 57 97 100 100 100 100 100 100 100 100 100 100 100 100 100 100 100 100 100 100 97 5 5 5 5 11 16
0 0 0 8 84 100 100 100 100 100 100 100 70 5 49 100 100 100 100 100 100 100 100 100 100 100 100 100 100 100 100 100 100 100 100 100 38 41 9 5 11 26 20
3 1 20 40 100 100 88 100 100 100 84 73 96 94 67 99 100 100 100 100 100 100 100 100 100 100 100 100 100 100 100 100 100 100 100 100 100 97 36 18 46 5 5
97 46 100 65 100 100 41 50 89 73 100 97 100 100 99 100 100 100 100 100 100 100 100 100 100 100 100 100 100 100 100 100 100 100 100 100 100 100 66 42 6 5 5

GFSMA_prec_cloud_087.txt.gz
Cloud_Cover
100 100 35 14 10 6 44 16 27 13 16 24 29 7 5 5 5 5 5 13 22 6 64 93 100 99 11 5 30 48 94 39 5 6 5 5 5 5 3 2 0 0 4
100 100 97 91 71 90 56 39 15 30 55 57 50 34 36 44 55 79 93 46 63 94 100 100 100 74 20 68 32 5 5 17 99 49 6 7 5 5 4 0 2 0 0
100 100 100 100 99 100 92 23 26 63 69 81 87 98 99 100 100 62 97 100 100 100 100 100 100 36 70 5 47 14 5 5 5 70 23 26 5 5 5 5 0 0 4
100 100 100 100 100 100 100 100 100 100 100 100 100 100 100 100 90 100 100 100 100 100 94 40 97 85 14 6 43 8 23 23 8 87 68 96 70 46 18 5 5 5 5
100 100 100 100 100 89 89 100 100 100 100 100 100 100 99 100 100 100 87 100 100 100 85 97 55 89 100 100 59 97 99 47 100 95 100 96 94 100 100 63 4 15 5
100 100 100 100 100 100 100 100 94 100 100 100 100 100 100 100 84 94 100 100 100 98 50 75 100 100 79 95 95 100 100 100 100 100 100 100 53 8 48 73 74 53 29
100 100 100 100 100 100 98 94 75 100 100 100 100 100 100 100 100 100 100 100 100 92 100 100 100 82 100 100 84 100 100 100 100 100 100 100 82 6 5 12 82 100 100
100 100 100 100 100 96 100 98 96 100 100 78 77 100 100 100 76 100 64 59 87 99 97 95 100 100 100 100 100 100 100 100 100 100 100 100 100 100 58 11 6 26 98
100 100 100 100 100 100 90 100 94 99 91 76 53 84 100 100 100 100 93 81 68 100 100 100 100 100 100 100 100 100 100 100 100 100 100 100 100 100 96 19 46 19 5
100 100 100 100 100 100 98 100 100 100 99 100 99 31 39 66 100 100 100 96 100 100 100 100 100 100 100 100 100 100 100 100 100 100 98 70 83 99 100 98 89 96 97
100 100 100 100 100 100 100 100 98 98 100 66 80 100 88 100 94 69 99 100 100 100 100 100 100 100 100 100 100 100 100 100 100 100 100 100 100 100 100 100 100 100 100
100 100 100 100 100 100 100 100 100 100 100 100 99 47 65 100 100 95 100 100 97 99 99 100 100 100 100 100 100 100 100 100 100 65 80 100 100 100 100 100 100 100 100
100 100 100 100 100 100 100 100 100 97 92 94 99 95 100 100 100 100 99 95 96 100 100 100 100 100 100 100 100 100 100 100 100 100 100 100 66 100 100 100 100 100 100
100 100 100 100 100 100 100 90 100 71 99 100 100 100 100 100 100 100 100 100 100 100 100 100 95 100 94 95 100 100 100 100 100 100 100 98 100 100 100 100 100 99 100
100 100 100 99 100 100 100 100 100 100 100 100 100 100 100 97 73 100 100 100 100 100 100 100 100 91 100 100 90 100 100 100 100 99 100 100 100 100 100 100 100 100 100
100 100 100 100 100 100 98 100 100 100 100 100 100 87 95 100 100 94 88 100 100 100 100 100 100 100 100 100 100 100 100 100 100 100 100 100 100 100 100 100 100 100 100
100 100 100 100 100 100 100 100 100 100 100 93 100 100 100 75 90 74 100 100 100 100 100 100 100 100 100 100 100 100 100 100 100 100 100 100 98 100 100 100 100 100 100
100 100 100 100 100 100 100 100 100 100 100 98 86 99 99 97 100 100 100 100 100 100 100 100 100 100 100 99 100 100 98 100 100 100 100 27 100 100 100 100 99 99 82
88 100 100 100 100 100 100 100 98 94 100 99 100 100 100 100 100 100 100 100 100 100 100 100 100 100 100 100 100 100 100 100 100 100 95 100 100 100 100 100 100 92 6
100 100 100 100 100 100 100 100 100 90 34 17 7 19 90 100 100 100 100 100 100 100 100 100 100 100 100 100 100 100 100 100 100 100 100 100 100 100 100 100 100 99 7
98 27 5 4 5 10 6 43 15 74 97 100 95 100 100 100 94 96 85 92 94 99 100 100 100 100 100 100 100 100 100 100 100 100 100 100 100 100 100 100 100 100 8
0 0 0 0 0 0 0 89 100 100 100 100 100 100 100 100 100 99 96 88 83 97 94 100 100 100 100 100 100 100 100 100 100 100 100 100 100 100 100 100 100 100 5
0 0 0 0 0 0 21 100 100 100 100 100 100 100 99 25 9 16 77 70 100 100 100 100 100 100 100 100 100 100 100 100 100 100 100 100 100 100 100 100 100 77 42
1 0 0 0 0 0 40 100 100 100 100 100 100 100 55 14 78 96 100 100 97 100 100 100 100 100 100 100 100 100 100 100 100 100 100 100 100 100 100 100 100 100 90
4 0 1 3 2 0 76 100 100 100 100 100 100 62 33 50 85 99 100 100 100 100 100 100 100 100 100 100 100 100 100 100 100 100 100 100 100 100 100 100 100 100 92
98 100 5 54 96 40 100 100 100 100 95 21 5 39 17 44 62 96 98 99 100 100 100 100 100 100 100 100 100 100 100 100 100 100 100 100 100 100 100 100 100 100 100

GFSMA_prec_cloud_090.txt.gz
Cloud_Cover
100 100 100 100 100 100 62 39 67 83 46 12 28 55 65 38 8 12 24 64 43 6 100 100 100 100 27 41 8 6 74 84 99 68 5 5 5 14 6 7 9 5 5
100 100 100 100 100 100 68 35 52 93 99 69 65 94 82 60 70 61 62 91 78 90 99 100 100 73 50 70 6 65 56 6 8 31 23 5 46 88 99 94 5 5 5
100 100 100 100 84 99 52 93 100 100 99 100 100 100 100 100 92 33 85 80 80 100 100 100 100 13 5 92 50 89 47 5 5 5 7 90 100 100 98 75 100 5 5
98 100 100 100 100 100 100 100 100 100 100 100 100 100 95 68 76 58 100 100 74 94 80 93 56 40 83 97 17 15 10 5 10 20 100 29 100 100 97 100 96 14 5
98 100 100 100 100 100 100 100 100 100 100 100 100 100 100 70 100 96 41 9 17 88 84 44 6 97 98 6 10 5 6 100 100 52 10 100 100 59 89 100 60 20 17
84 100 100 100 100 100 94 21 39 79 80 100 100 99 98 21 10 46 46 70 97 93 99 27 98 48 100 8 97 70 98 28 5 9 100 99 86 100 84 100 46 100 99
65 100 100 100 100 97 64 17 10 20 96 96 100 100 98 6 5 5 6 5 79 90 76 100 100 44 94 100 100 100 93 24 5 78 100 100 100 95 94 100 12 16 71
100 94 94 98 100 96 32 100 96 93 77 77 72 61 90 21 21 58 6 17 5 34 26 21 22 52 99 100 100 99 84 100 100 100 81 36 100 100 100 52 14 23 21
100 100 100 100 100 95 100 92 100 87 97 70 89 100 87 100 82 62 8 5 13 48 6 14 72 95 100 100 100 86 95 100 100 100 100 57 100 100 97 50 82 96 61
100 100 100 100 100 100 100 100 95 89 100 72 59 5 41 71 90 100 92 85 88 90 100 91 66 100 100 98 100 100 100 100 98 78 100 73 97 100 100 100 100 92 97
100 100 100 100 100 100 100 100 100 100 100 100 100 92 42 68 100 98 100 100 100 100 100 98 100 100 100 100 100 100 100 86 100 100 44 100 100 100 56 100 100 100 100
100 100 100 100 100 100 100 100 100 100 100 100 91 98 91 62 18 64 98 99 98 100 98 96 100 100 100 100 100 100 100 100 99 71 98 100 100 100 94 100 100 100 100
100 100 100 100 100 100 100 100 100 100 98 86 24 83 98 93 75 99 98 94 75 89 66 100 100 100 99 100 100 100 100 100 89 100 100 100 100 100 100 100 100 100 100
100 100 100 100 100 100 100 100 100 74 31 77 100 100 97 99 100 99 99 100 100 100 99 100 100 100 100 100 100 100 100 100 100 100 100 100 100 100 100 100 100 100 99
100 100 100 100 100 100 100 100 100 100 100 100 100 100 100 100 100 86 100 100 100 100 100 100 100 100 78 100 100 100 100 100 100 98 94 100 100 100 100 100 100 100 100
100 100 100 100 100 100 100 100 100 100 100 100 100 100 93 31 21 73 100 100 100 100 100 100 100 100 100 54 97 100 100 100 99 98 100 100 100 100 100 100 100 100 100
100 100 100 100 100 100 100 100 100 100 100 99 98 96 93 96 100 100 100 100 100 100 100 100 100 100 100 100 100 100 100 100 100 100 93 100 100 100 100 100 100 100 100
100 92 77 100 100 100 100 100 100 100 100 100 100 100 100 100 100 100 100 100 100 100 100 100 100 100 100 100 100 100 100 100 100 100 98 100 100 100 100 100 100 100 100
100 100 100 100 100 100 100 100 93 75 100 100 100 100 100 100 100 100 100 92 100 100 100 100 100 100 100 100 100 100 100 100 100 100 100 100 100 100 100 100 100 100 100
100 100 100 100 100 100 100 100 100 100 100 100 100 76 75 100 100 100 100 100 100 100 100 100 100 100 100 100 100 100 100 100 100 100 100 100 100 100 100 100 100 100 100
5 25 37 65 89 60 70 63 100 100 100 100 100 100 100 100 100 100 98 100 100 100 100 100 100 100 100 100 89 68 88 100 100 100 100 100 100 100 100 100 100 100 100
100 100 100 100 100 100 100 100 100 100 100 100 100 100 100 100 100 100 100 100 100 100 100 100 100 100 100 100 99 100 100 100 100 100 100 100 100 100 100 100 100 100 100
0 0 0 0 0 0 0 0 11 65 100 100 100 100 100 100 52 2 5 5 45 86 100 99 100 100 100 100 100 100 99 99 100 100 100 100 100 100 100 100 100 100 100
51 6 0 0 0 0 0 0 42 100 100 100 100 100 100 76 5 3 5 5 6 88 48 41 88 100 100 100 100 100 100 100 100 100 100 100 100 100 100 100 100 100 100
64 4 2 0 0 2 5 21 81 100 100 100 100 100 100 11 5 5 5 5 18 69 87 95 100 100 100 100 100 100 100 100 100 100 100 100 100 100 100 100 100 100 100
99 94 5 1 3 5 5 3 82 100 100 100 100 97 13 5 5 5 47 66 94 99 100 99 100 100 100 100 100 100 100 100 100 100 100 100 100 100 100 100 100 100 100

GFSMA_prec_cloud_093.txt.gz
Cloud_Cover
98 100 100 100 100 100 100 100 100 100 98 35 22 100 48 5 62 95 100 69 5 61 90 30 62 100 85 73 15 10 99 24 94 59 7 5 5 5 5 95 49 21 7
100 100 100 100 100 100 100 100 100 100 57 28 22 100 95 22 5 10 6 5 5 10 44 14 96 96 8 52 14 5 88 17 10 55 15 25 3 5 37 100 39 12 8
98 100 84 100 100 97 78 6 22 99 100 99 100 97 5 5 5 5 5 5 71 74 5 100 86 9 94 10 5 5 17 88 22 5 5 66 91 24 99 14 19 5 5
100 100 100 100 100 80 61 100 95 79 90 100 100 21 5 5 5 5 77 5 5 6 51 59 58 28 5 12 5 9 68 50 5 5 5 5 13 93 75 94 17 17 52
93 100 99 100 92 66 46 55 77 36 98 67 43 49 9 5 5 4 0 2 5 5 50 36 35 11 43 5 5 22 96 5 14 5 5 33 100 100 15 42 67 71 62
100 100 94 100 93 94 90 18 99 100 100 100 80 23 54 64 5 1 4 5 61 100 88 60 34 4 5 74 95 66 37 36 5 5 78 51 100 100 98 79 13 45 75
100 100 100 89 100 97 88 100 100 89 72 38 22 76 97 16 5 5 5 69 100 99 97 50 5 49 95 24 99 100 88 61 5 48 86 100 100 100 100 91 16 47 29
100 94 100 99 100 91 64 84 100 55 26 18 5 59 40 5 2 5 35 55 14 74 4 5 40 83 32 19 100 95 99 44 8 93 100 100 100 99 85 5 29 86 26
100 100 100 100 100 100 100 100 91 95 61 100 97 51 94 97 8 5 6 59 5 6 5 2 8 18 7 70 70 99 73 100 65 81 100 100 97 98 75 24 98 79 100
100 100 100 100 100 100 97 100 100 100 66 78 35 7 37 67 83 73 39 30 57 15 13 17 53 50 39 100 100 90 64 100 100 100 100 100 35 80 39 98 100 100 100
100 100 100 100 100 100 100 100 100 100 100 100 96 100 77 62 8 22 96 96 92 100 100 100 93 37 92 100 100 93 100 100 100 100 100 92 98 96 98 100 100 100 86
100 100 100 100 100 100 100 100 100 100 100 100 100 100 100 100 89 91 88 100 92 100 97 84 100 100 95 94 100 100 100 100 100 100 100 78 100 100 100 100 100 100 100
100 100 100 100 100 100 100 100 100 100 100 100 100 100 100 100 100 100 100 100 100 100 100 100 100 100 100 77 97 100 100 100 100 100 35 99 100 100 100 100 99 85 99
100 100 100 100 100 100 100 100 100 100 100 100 100 100 100 100 100 100 100 100 100 100 100 100 100 88 90 98 100 100 100 100 87 100 63 97 100 100 100 100 100 100 100
100 100 100 100 100 100 100 100 100 100 100 100 100 100 100 100 100 99 100 100 100 97 97 100 99 100 98 100 100 91 97 100 98 90 100 100 100 100 100 100 100 100 100
100 100 100 100 100 100 100 100 100 99 100 100 100 100 100 100 100 98 96 100 100 100 80 100 100 92 100 100 100 100 100 80 100 100 100 100 99 100 100 100 100 100 100
100 100 100 100 100 100 100 100 100 100 100 100 100 100 100 100 100 100 100 100 100 97 100 100 100 100 100 100 100 100 100 100 100 100 100 98 100 100 100 100 100 100 100
100 100 100 100 100 100 100 100 100 100 100 100 100 100 100 100 100 79 100 100 100 100 100 100 100 100 100 100 100 100 100 100 100 100 100 100 100 100 99 100 100 100 100
100 100 100 100 100 100 100 100 100 98 100 100 98 94 100 73 100 100 100 100 100 100 100 100 100 100 100 100 100 100 100 100 100 100 99 100 100 100 100 100 100 100 100
100 99 73 94 83 12 59 10 64 92 50 100 100 100 100 96 84 100 100 100 100 100 100 100 100 100 100 100 100 100 100 100 100 100 67 100 100 100 100 100 100 100 100
100 100 100 100 100 100 100 100 100 100 100 100 100 100 100 100 84 86 82 100 100 100 100 100 100 100 100 100 100 100 100 100 100 100 100 100 100 100 100 100 100 100 100
100 100 81 17 5 5 5 13 34 25 42 98 99 54 71 100 100 100 100 100 100 100 100 100 100 100 100 100 100 99 100 100 100 86 100 100 100 100 100 100 100 100 100
100 89 77 61 8 5 10 50 6 5 8 28 87 100 100 100 100 62 3 0 2 59 98 100 97 98 100 88 93 100 100 100 100 100 100 100 100 100 100 100 100 100 100
94 98 86 84 92 99 100 94 32 35 78 82 100 100 100 100 96 4 0 0 0 2 4 5 5 26 76 52 100 99 100 100 100 100 100 100 100 100 100 100 100 100 100
55 94 100 86 93 28 22 5 100 14 9 96 100 100 100 100 36 0 0 0 0 5 19 6 51 85 98 74 90 100 100 100 100 100 100 100 100 100 100 100 100 100 100
100 100 100 100 100 98 10 8 100 52 8 64 100 100 100 86 5 5 5 5 5 5 69 79 61 66 80 100 80 100 99 100 100 100 100 100 100 100 100 100 100 100 100

GFSMA_prec_cloud_096.txt.gz
Cloud_Cover
100 100 100 100 89 83 94 98 90 70 98 100 100 100 14 4 98 5 0 2 0 4 5 5 5 5 5 17 27 31 18 5 31 88 100 15 69 5 5 5 12 100 43
100 100 98 100 100 98 100 100 72 66 93 19 5 10 5 58 20 11 4 0 0 5 6 13 83 9 45 50 84 11 17 6 61 98 9 20 41 9 4 52 98 100 6
100 100 100 100 100 100 100 40 40 81 5 81 26 5 62 64 88 16 16 14 0 2 5 5 5 8 34 33 53 40 5 5 6 5 5 2 3 94 21 100 89 85 99
100 100 100 100 100 88 100 28 6 5 5 60 6 15 94 98 69 10 1 0 0 0 5 5 5 5 17 91 54 77 5 1 2 1 5 3 3 17 28 100 100 100 100
100 100 100 100 95 100 46 5 12 21 5 13 30 100 83 51 24 73 35 42 5 5 5 5 5 5 5 5 53 33 1 0 0 1 0 0 2 6 76 100 100 100 100
100 100 100 100 100 72 79 51 32 25 19 67 100 93 64 9 5 4 12 5 5 6 5 5 5 5 2 5 93 8 33 3 1 1 4 5 3 66 100 100 100 100 87
100 100 100 100 100 72 73 71 90 100 6 78 100 100 88 6 10 6 4 0 1 0 0 0 1 75 48 4 0 38 50 100 70 65 4 5 5 81 100 100 100 98 55
100 100 100 100 100 100 100 100 100 100 77 43 28 72 5 4 2 13 5 2 0 0 0 0 41 79 100 90 48 48 100 92 100 86 91 7 38 10 98 100 100 56 25
100 100 100 100 100 100 100 99 70 86 66 80 90 57 5 5 5 5 5 5 5 5 5 5 19 31 66 100 84 39 70 100 97 35 89 100 98 70 100 100 72 70 100
100 100 100 100 100 100 100 100 100 100 100 81 85 89 24 76 6 20 78 9 5 64 63 5 24 35 20 47 8 95 99 100 99 100 100 100 100 100 100 98 84 99 100
100 100 100 100 100 100 100 100 100 100 100 100 100 100 100 98 96 86 87 64 95 98 6 40 16 63 96 95 96 100 100 100 100 100 100 100 100 100 100 100 99 100 100
100 100 100 100 100 100 100 100 100 100 100 100 100 100 100 100 99 94 100 100 100 100 100 100 100 100 100 44 87 100 100 100 100 100 100 100 100 100 100 100 100 100 100
100 100 100 100 100 100 100 100 100 100 100 100 100 100 100 100 100 92 100 74 100 100 100 100 100 100 100 100 100 99 100 100 100 100 100 100 100 84 90 100 100 100 100
100 100 100 100 100 100 100 100 100 100 100 100 100 100 100 100 100 100 100 100 100 100 100 100 100 100 100 100 100 100 91 100 100 100 100 94 98 5 70 100 100 100 90
100 100 100 100 100 100 100 100 100 100 100 100 100 100 100 100 100 100 100 100 100 100 100 100 100 100 100 100 100 95 100 100 100 98 100 92 100 52 74 91 100 100 100
100 100 100 100 100 100 100 100 100 100 100 100 100 100 100 100 100 99 100 100 100 100 100 100 99 90 88 93 100 100 100 100 100 88 99 56 71 99 100 100 100 100 100
100 100 100 100 100 100 100 100 100 100 100 100 100 100 100 100 100 100 100 100 100 100 100 97 98 87 98 100 100 100 100 100 100 100 83 97 91 100 100 100 100 100 100
100 100 100 100 100 100 100 100 100 100 100 100 100 100 100 100 100 100 100 100 100 100 88 95 100 100 100 100 100 100 100 100 100 100 91 100 100 100 100 98 100 100 100
100 100 100 100 100 100 100 100 100 100 100 100 100 100 100 100 100 100 100 72 100 95 100 100 100 100 100 100 100 100 100 100 100 100 100 100 100 100 100 100 100 100 100
100 100 100 100 100 100 100 100 100 100 100 100 100 97 98 100 100 91 100 96 98 100 100 100 100 100 100 100 100 100 100 100 100 100 94 100 100 100 100 100 100 100 100
100 100 100 100 100 100 100 100 100 100 98 100 100 100 100 100 97 27 45 68 88 97 100 100 100 100 100 100 100 100 100 100 98 100 96 98 100 100 100 100 100 100 100
29 91 97 24 9 5 15 28 86 89 6 5 16 5 5 5 6 73 69 36 8 9 36 72 100 100 100 100 100 100 100 23 70 78 100 100 100 100 100 100 100 100 100
100 100 100 100 100 70 87 77 77 64 49 16 30 43 94 79 99 100 60 5 4 3 10 21 99 100 100 100 100 88 5 24 99 86 100 100 100 100 100 100 100 100 100
67 93 63 46 70 6 27 5 5 28 97 100 100 49 89 100 100 100 12 3 4 0 0 1 4 45 37 25 9 7 59 74 92 99 100 100 100 100 100 100 100 100 100
5 5 6 45 28 97 100 98 100 99 92 62 46 11 32 72 100 97 1 0 0 0 4 3 5 5 5 5 51 36 67 62 92 87 87 100 100 100 100 100 100 100 100
100 100 100 100 100 100 100 87 100 100 90 66 99 34 68 100 100 56 0 0 0 5 5 6 5 5 5 36 33 16 57 5 38 85 100 100 100 100 100 100 100 100 100

GFSMA_prec_cloud_099.txt.gz
Cloud_Cover
100 100 25 62 96 100 100 100 90 74 44 52 29 14 100 100 65 8 12 5 100 18 0 2 5 5 9 51 9 5 5 29 5 9 12 23 10 0 0 0 5 100 100
100 100 100 100 100 100 100 100 100 64 76 34 15 6 40 88 81 43 88 54 2 4 1 0 5 5 11 3 9 35 5 5 5 5 5 5 8 21 4 5 20 100 64
100 100 100 100 100 100 100 100 100 99 67 5 5 14 5 26 55 25 38 63 71 90 5 5 5 5 5 0 0 27 5 5 3 5 5 0 0 6 12 16 99 100 100
100 100 100 100 100 100 99 100 100 68 91 6 6 28 14 27 10 32 36 19 50 20 5 2 5 4 0 0 6 33 53 46 0 5 5 0 3 4 7 53 100 100 100
100 100 100 100 88 100 100 100 100 31 100 15 68 69 100 68 32 100 30 25 4 0 0 2 3 5 1 0 4 5 71 5 0 0 0 0 5 13 77 100 70 100 100
100 100 100 100 100 100 100 100 100 90 94 97 100 98 26 6 100 99 89 66 3 5 2 0 4 9 0 0 3 27 5 0 0 96 2 3 70 49 38 100 100 100 100
100 100 98 100 100 100 100 100 100 100 68 41 100 74 83 6 46 92 100 100 20 1 0 0 5 51 10 0 7 7 4 0 4 92 5 33 100 100 26 100 100 100 100
100 100 100 100 100 100 100 100 100 100 82 91 98 98 51 100 21 5 5 5 5 0 0 1 9 95 100 100 94 100 100 7 39 77 38 100 100 100 100 100 100 100 100
100 100 100 100 100 100 100 100 100 100 100 100 100 100 100 70 59 38 15 5 5 5 5 5 5 51 98 91 100 100 83 30 100 56 95 100 100 100 100 100 100 100 100
100 100 100 100 100 100 100 100 100 100 100 100 100 98 98 96 84 77 96 92 5 5 12 5 5 5 50 97 79 100 56 44 100 100 100 100 100 100 100 100 100 100 100
100 100 100 100 100 100 100 100 100 100 100 100 100 100 100 100 100 100 100 100 100 73 100 14 8 51 49 70 13 24 28 100 100 100 100 100 100 100 100 100 100 100 100
100 100 100 100 100 100 100 100 100 100 100 100 100 100 100 100 100 100 100 94 75 88 88 85 83 35 77 80 16 100 100 100 100 100 100 100 100 100 100 100 100 100 100
100 100 100 100 100 100 100 100 100 100 100 100 100 100 100 100 100 100 100 100 100 95 96 80 100 99 44 96 98 100 100 100 100 100 100 100 100 100 96 100 83 74 100
100 100 100 100 100 100 100 100 100 100 100 100 100 100 100 100 100 100 95 100 100 96 98 99 88 57 100 100 99 100 100 100 100 100 100 100 74 98 100 98 49 100 100
100 100 100 100 100 100 100 100 100 100 100 100 100 100 100 100 100 100 100 100 100 100 100 100 100 100 97 100 100 100 100 100 100 100 100 100 85 62 47 40 4 99 100
100 100 100 100 100 100 100 100 100 100 100 100 100 100 100 100 100 100 100 100 100 100 100 100 100 100 100 100 100 100 100 100 100 98 97 75 84 98 18 5 6 77 100
100 100 100 100 100 100 100 100 100 100 100 100 100 100 100 100 100 100 100 100 100 100 100 100 100 100 100 100 100 97 100 100 100 100 99 100 100 5 5 60 57 94 100
100 100 100 100 100 100 100 100 100 100 100 100 100 100 100 100 100 100 100 100 100 100 100 100 100 100 100 100 100 100 100 100 100 100 100 100 32 25 5 100 100 100 100
100 100 100 100 100 100 100 100 100 100 100 100 100 100 100 100 100 100 100 100 80 100 100 100 100 100 100 100 100 100 100 100 100 100 100 100 100 64 18 100 100 100 100
100 100 100 100 100 100 100 100 100 100 100 100 100 100 100 100 100 100 100 100 100 97 98 100 100 100 100 98 100 100 100 100 100 100 100 99 12 5 28 100 100 100 100
100 100 100 100 100 100 100 100 100 99 98 100 100 100 100 100 100 100 100 100 100 55 89 96 100 100 100 100 100 100 100 100 100 100 47 2 5 13 100 100 100 100 100
100 100 100 100 96 100 98 95 100 100 63 100 100 100 61 100 62 75 64 39 25 94 100 100 100 100 100 100 100 100 100 100 97 0 3 5 5 32 96 98 100 100 100
100 100 74 66 99 100 71 98 92 100 100 100 100 100 24 87 77 98 73 53 9 5 11 70 100 60 100 100 100 100 100 76 7 5 5 5 5 17 100 98 100 100 100
100 96 88 39 24 98 100 100 96 85 96 100 100 39 81 28 68 100 100 40 18 70 100 57 5 71 98 89 99 35 31 5 5 5 5 5 10 28 76 100 100 100 100
5 4 5 16 76 28 94 90 78 91 100 74 44 40 24 5 26 100 99 37 74 58 8 37 9 0 1 3 6 5 5 5 5 5 5 5 9 32 33 49 93 100 100
54 24 31 99 100 100 100 100 92 68 39 34 71 78 57 58 99 100 100 90 26 96 64 4 5 4 5 5 5 5 5 7 5 5 5 5 5 5 20 67 100 100 100

GFSMA_prec_cloud_102.txt.gz
Cloud_Cover
22 100 97 92 55 85 96 86 50 100 100 100 75 45 40 56 79 95 43 35 56 15 9 5 4 5 5 5 5 32 5 5 90 5 59 100 62 11 0 7 32 20 40
90 70 71 65 50 100 100 100 100 100 100 100 100 99 99 72 75 12 29 78 100 11 96 66 7 5 5 5 12 5 23 5 5 24 78 100 8 8 23 22 6 100 100
100 100 100 100 100 100 100 100 100 100 100 100 82 100 98 100 98 100 100 100 57 71 96 95 30 6 8 5 5 5 5 5 5 97 24 99 5 5 2 8 80 100 100
100 100 100 100 100 100 100 100 100 100 100 100 98 50 100 92 8 10 6 97 24 98 4 2 5 4 3 5 80 14 5 96 24 7 84 12 7 5 5 94 100 100 100
100 100 100 100 100 100 100 100 100 100 100 100 100 96 100 100 100 94 36 62 12 51 5 5 5 5 3 17 5 39 5 6 5 94 63 13 11 34 2 100 100 100 100
100 100 100 100 100 100 100 100 100 92 100 100 100 86 100 100 20 78 54 47 5 20 14 100 96 28 2 1 2 37 2 5 5 6 4 46 3 5 100 100 100 100 100
100 100 100 100 100 100 100 100 100 100 100 100 100 100 97 74 60 43 92 71 5 39 5 7 4 11 3 0 58 93 91 25 86 78 31 100 21 5 20 100 100 100 100
100 100 100 100 100 100 100 100 98 100 100 100 100 100 100 100 100 100 91 78 62 5 5 35 6 5 35 99 100 100 97 100 100 57 18 96 55 51 16 100 100 100 100
100 100 100 100 100 100 100 100 100 100 100 100 100 100 100 100 100 100 93 53 5 6 12 5 5 21 66 100 95 100 100 100 98 68 86 100 100 100 100 100 100 100 100
100 100 100 100 100 100 100 100 100 100 100 100 100 100 100 98 100 95 100 100 85 81 100 79 22 61 24 4 5 70 100 89 100 98 51 69 89 72 100 100 100 100 100
100 100 100 100 100 100 100 100 100 100 100 100 100 100 100 100 100 100 100 91 99 88 99 96 6 6 14 5 6 100 92 98 100 100 100 100 100 100 100 100 100 100 100
100 100 100 100 100 100 100 100 100 100 100 100 100 100 98 100 100 100 100 100 100 100 100 100 99 17 32 54 87 16 68 99 88 85 100 100 100 100 100 100 100 100 76
100 100 100 100 100 100 100 100 100 100 100 100 100 100 100 100 100 100 100 100 100 97 87 89 100 96 97 100 100 100 100 100 100 100 98 99 100 92 100 100 100 100 100
100 100 100 100 100 100 100 100 100 100 100 100 100 100 100 100 100 100 100 100 100 100 100 100 100 96 46 100 100 99 100 100 100 100 100 100 100 100 100 100 80 100 100
100 100 100 100 100 100 100 100 100 100 100 100 100 100 100 100 100 100 100 100 100 100 100 100 94 63 100 100 100 100 100 100 100 100 100 100 98 99 99 99 32 94 100
100 100 100 100 100 100 100 100 100 100 100 100 100 100 100 100 100 100 100 100 100 100 100 100 100 100 100 100 94 100 100 100 100 100 100 100 100 100 100 32 10 35 97
100 100 100 100 100 100 100 100 100 100 100 100 100 100 100 100 100 100 100 96 100 100 100 100 100 100 98 100 100 100 97 100 100 100 100 100 100 100 98 5 0 0 1
100 100 100 100 100 100 100 100 100 100 100 100 100 100 100 100 100 100 100 100 100 100 100 100 98 100 100 100 100 100 100 100 100 100 100 100 100 100 5 5 0 1 4
100 100 100 100 100 100 100 100 100 100 100 100 100 100 100 100 100 100 100 100 100 100 100 100 100 100 100 100 100 100 100 100 100 100 100 100 100 100 8 3 4 5 5
100 100 100 100 100 100 100 100 100 100 100 100 100 100 100 100 100 100 100 100 100 100 100 100 100 100 95 81 92 100 100 96 99 100 100 100 99 9 1 2 5 70 87
100 100 100 100 100 100 100 100 100 100 100 100 100 100 100 100 100 100 100 100 100 100 98 100 100 100 100 100 100 100 100 100 100 100 100 74 2 3 2 5 19 85 96
100 100 100 100 92 99 100 100 100 100 100 100 100 100 100 100 100 100 100 100 100 100 100 100 100 100 100 100 100 100 100 100 100 69 3 0 2 0 5 5 6 54 100
100 100 100 100 100 100 100 100 100 100 100 100 100 100 100 100 100 100 100 100 100 100 100 99 100 100 100 100 100 100 100 100 100 28 0 0 1 1 5 8 6 100 100
100 100 100 100 100 100 100 100 100 100 100 100 100 100 100 83 100 100 100 100 100 100 87 72 81 75 100 62 100 100 100 86 23 4 0 5 5 5 5 5 13 93 98
100 100 100 100 100 100 100 100 100 100 100 100 100 100 100 100 100 100 100 83 100 100 97 100 99 62 61 14 12 27 7 6 5 5 5 5 5 5 5 5 5 44 72
66 54 55 98 91 62 55 97 100 100 100 100 100 100 100 100 100 100 92 100 90 100 28 100 82 86 67 18 6 0 0 5 5 5 5 5 5 5 7 5 5 7 25

GFSMA_prec_cloud_105.txt.gz
Cloud_Cover
100 100 100 96 99 100 39 5 5 21 100 100 100 100 100 100 94 76 5 5 5 5 5 34 38 8 37 84 100 100 96 5 62 14 5 5 5 85 88 62 74 53 1
100 100 91 58 70 31 19 60 17 70 100 100 100 100 100 100 99 95 5 44 100 5 2 5 10 94 95 80 29 100 100 35 85 65 100 54 71 64 100 99 8 20 10
100 100 100 100 100 100 100 97 100 100 100 100 100 100 100 100 84 100 88 100 100 48 4 0 1 68 90 5 93 9 100 84 5 10 35 89 34 78 100 5 4 4 78
100 100 100 100 100 100 100 100 100 100 100 100 100 100 100 100 95 58 86 98 56 5 5 2 5 1 5 7 25 47 49 28 5 46 30 100 60 100 40 99 29 6 4
100 100 100 100 100 100 100 100 100 100 100 100 100 100 100 100 100 100 100 44 37 5 3 0 2 3 5 92 43 49 13 97 86 41 91 100 78 79 20 97 100 11 54
100 100 100 100 100 100 100 100 100 100 100 100 100 100 100 100 100 99 56 89 67 5 13 5 5 10 52 13 11 36 54 5 7 5 11 98 69 11 92 11 97 35 11
100 100 100 100 100 100 100 100 100 100 100 100 100 100 96 100 100 89 100 100 100 47 5 5 5 16 12 5 54 100 100 100 95 100 100 26 76 28 100 100 100 100 66
100 100 100 100 100 100 100 100 100 98 100 100 99 98 100 100 100 100 66 96 100 79 76 5 27 40 31 82 83 98 100 96 73 100 100 96 47 20 6 100 98 100 39
100 100 100 100 100 100 100 100 100 100 100 77 89 100 100 100 100 100 100 80 100 73 98 20 100 83 56 5 14 55 41 100 99 94 97 97 65 100 26 100 92 100 100
100 100 100 100 100 100 100 100 100 100 100 100 99 100 100 100 100 100 100 100 94 98 76 64 74 79 7 65 25 5 6 12 64 84 100 100 100 95 93 98 100 100 100
100 100 100 100 100 100 100 100 100 100 100 100 100 100 100 96 71 98 100 98 100 100 100 70 94 93 65 100 100 95 8 5 29 83 52 75 100 98 94 100 100 100 100
100 100 100 100 100 100 100 100 100 100 100 100 100 100 88 97 100 97 100 78 100 96 84 100 100 72 84 50 22 11 4 34 100 100 100 100 100 100 100 100 100 100 100
100 100 100 100 100 100 100 100 100 100 100 100 98 92 99 100 98 100 100 100 100 100 100 100 82 27 20 10 15 20 10 87 99 100 100 100 71 100 100 100 100 100 100
100 100 100 100 100 100 100 100 100 100 100 100 100 100 100 100 100 100 100 99 100 100 100 100 100 100 93 85 93 93 78 68 58 100 100 99 100 100 100 100 100 100 100
100 100 100 100 100 100 100 100 100 100 100 97 100 100 100 100 100 100 100 100 100 100 100 100 100 100 93 71 96 83 100 100 100 100 100 100 100 100 100 100 100 100 84
100 100 100 100 100 100 100 100 100 100 100 100 100 100 100 100 100 100 100 100 100 100 100 100 100 100 100 100 99 100 100 98 100 100 100 100 100 100 98 100 90 86 0
100 100 100 100 100 100 100 100 100 100 100 100 100 100 100 96 100 100 100 100 100 100 100 100 100 100 100 100 100 100 100 100 100 100 100 100 100 100 100 100 100 67 0
100 100 100 100 100 100 100 100 100 100 100 100 100 100 100 100 100 100 100 100 100 100 100 100 100 100 100 100 100 100 100 100 100 100 100 100 100 100 96 100 24 2 0
100 100 100 100 100 100 100 100 100 100 100 100 100 100 100 100 100 100 100 100 100 100 97 96 100 100 100 100 100 100 100 100 100 100 100 100 100 90 100 96 1 0 0
100 100 100 100 100 100 100 100 100 100 100 100 100 100 100 100 100 100 100 100 100 100 100 100 100 100 100 100 100 100 100 100 100 100 100 100 100 100 53 82 0 1 20
100 100 100 100 100 100 100 100 100 100 100 100 100 100 100 100 100 100 100 100 100 100 100 100 100 100 100 100 100 100 100 100 100 100 100 100 100 52 3 5 1 5 3
100 100 100 100 100 100 100 100 100 100 100 100 100 100 100 100 100 100 100 100 100 100 100 100 100 100 100 100 100 100 100 100 100 100 95 72 94 70 2 3 4 30 96
100 100 100 100 100 100 100 100 100 100 100 100 100 100 100 100 100 100 100 100 100 100 100 100 100 100 100 100 100 100 100 100 100 100 100 83 91 59 3 5 5 100 100
100 100 100 100 100 100 100 100 100 100 100 100 100 100 100 100 100 100 100 100 100 100 100 100 100 100 100 100 100 100 100 100 100 100 100 81 23 5 2 5 12 84 29
100 100 100 100 100 100 100 100 100 100 100 100 100 100 100 100 100 100 100 100 100 100 100 100 100 100 100 100 100 100 100 100 93 96 23 5 5 5 5 5 5 6 5
100 100 100 100 100 79 97 98 97 99 100 100 100 100 100 100 100 100 100 100 100 100 100 100 100 100 100 100 100 100 100 100 57 34 5 5 7 6 5 5 6 5 5

GFSMA_prec_cloud_108.txt.gz
Cloud_Cover
94 100 100 100 100 98 30 18 3 64 100 23 9 23 99 100 100 100 100 89 27 11 7 5 3 0 3 5 5 53 100 99 84 100 98 100 58 72 100 18 22 86 100
100 100 100 100 100 100 96 16 73 32 22 36 57 88 100 91 100 100 100 62 100 14 5 5 0 0 1 5 38 100 40 100 99 97 90 100 51 100 100 100 86 46 51
100 100 100 100 100 58 94 88 98 98 99 100 99 100 100 100 100 100 100 100 77 30 5 5 5 5 5 5 11 33 5 48 56 63 31 13 33 89 97 15 42 70 39
100 100 100 100 100 76 100 100 100 99 100 100 100 100 100 100 100 100 100 100 100 5 5 5 5 5 98 100 79 29 100 79 62 70 99 100 98 81 94 100 90 100 4
100 100 100 100 100 100 100 100 100 100 100 100 100 100 100 100 100 100 100 100 100 54 6 5 5 16 74 98 54 20 77 100 100 93 100 100 100 75 84 68 100 95 6
100 100 100 100 100 100 100 100 100 100 100 100 100 100 100 100 100 100 100 100 96 64 45 5 14 67 97 100 89 100 100 75 99 100 99 100 100 87 22 100 77 88 5
100 100 100 100 100 100 100 100 100 100 100 100 100 100 100 100 100 100 92 100 82 63 5 22 97 93 100 99 100 100 100 100 100 100 96 100 100 99 55 100 81 42 0
100 100 100 100 100 100 100 100 100 100 100 100 100 100 100 100 100 99 52 25 72 70 75 71 66 47 86 60 100 99 100 100 100 100 100 98 100 100 12 97 18 54 83
100 100 100 100 100 100 100 100 100 100 100 100 100 100 100 100 100 78 75 62 47 95 72 64 20 76 98 85 100 100 100 100 100 96 99 77 93 100 99 5 11 2 100
100 100 100 100 100 100 100 100 100 100 99 100 100 100 100 100 98 53 60 34 97 75 96 78 100 100 90 99 81 71 85 78 76 100 65 74 47 98 97 78 7 94 69
100 100 100 100 100 100 100 100 100 100 100 100 100 100 100 98 100 100 99 99 50 100 100 100 100 100 100 100 68 66 36 100 80 98 66 70 95 94 100 100 88 100 100
100 100 100 100 100 100 100 100 100 100 100 100 100 100 100 100 100 98 100 80 66 100 100 100 57 100 100 84 76 100 100 98 58 87 100 56 100 100 56 45 93 82 100
100 100 100 100 100 100 100 100 100 100 100 100 100 100 100 100 100 100 100 100 100 94 82 100 72 82 98 98 100 42 67 100 94 100 100 100 100 100 100 32 58 100 100
100 100 100 100 100 100 97 100 100 100 100 100 100 100 100 100 100 100 100 100 93 97 100 100 99 100 100 100 90 60 90 92 100 100 96 100 100 100 95 87 100 100 100
100 100 100 100 100 100 100 100 100 100 100 100 100 100 100 100 100 100 100 100 100 100 100 100 100 96 97 35 96 100 49 94 100 100 62 100 100 100 100 100 100 100 100
100 100 100 100 100 100 100 100 100 100 100 100 100 100 100 100 100 100 100 100 100 100 100 100 100 100 100 100 100 100 100 100 78 100 96 88 96 98 88 100 100 100 100
100 100 100 100 100 100 100 100 100 100 100 100 100 100 100 100 100 100 100 100 100 100 100 100 100 100 100 100 100 100 99 100 100 100 99 100 88 91 100 100 100 100 100
100 100 100 100 100 100 100 100 100 100 100 100 100 100 100 100 100 96 100 100 100 100 100 100 100 100 100 100 99 100 100 100 100 100 98 92 97 100 100 100 100 100 100
100 100 100 100 100 100 100 100 100 100 100 100 100 100 100 100 100 100 100 100 100 100 100 100 100 100 100 100 100 83 100 98 100 100 100 100 100 100 100 100 100 6 100
100 100 100 100 100 100 100 100 100 100 100 100 100 100 100 100 100 100 100 100 100 100 100 100 100 100 100 100 100 100 100 100 100 100 100 100 100 100 100 77 24 100 100
100 100 100 100 100 100 100 100 100 100 100 100 100 100 100 100 100 100 100 100 100 100 100 100 100 100 100 100 100 100 100 100 100 100 100 100 100 100 100 100 97 98 100
100 100 100 100 100 100 100 100 100 100 100 100 100 100 100 100 100 100 100 100 100 100 100 100 100 100 100 100 100 100 100 100 100 100 100 100 100 100 100 100 100 100 99
100 100 92 100 100 100 100 100 100 100 100 100 100 100 100 100 100 100 100 100 100 100 100 100 100 100 100 100 100 100 100 100 100 100 100 100 100 100 100 100 100 99 52
100 100 100 100 100 100 100 100 100 100 100 100 100 100 100 100 100 100 100 100 100 100 100 100 100 100 100 100 100 100 100 100 100 100 100 100 100 100 100 100 94 18 66
100 100 100 100 100 100 94 41 69 61 48 25 82 100 100 100 100 100 100 100 100 100 100 100 100 100 100 100 100 100 100 100 100 100 100 100 96 77 87 78 47 22 5
100 100 100 98 99 100 100 100 100 100 99 70 61 100 100 100 100 100 100 100 100 100 100 96 100 100 100 100 100 100 100 100 100 100 100 95 100 100 100 96 16 5 5

GFSMA_prec_cloud_111.txt.gz
Cloud_Cover
100 100 90 91 82 91 97 100 58 5 6 66 13 5 44 32 50 31 87 100 100 100 100 100 100 86 77 12 100 96 55 23 100 100 100 100 100 88 91 17 5 5 63
98 98 94 100 93 92 100 22 70 11 57 80 92 12 14 59 97 100 100 100 100 100 100 100 100 58 81 77 100 74 100 98 100 81 84 70 62 15 66 100 46 42 76
100 100 77 100 100 100 98 60 47 5 5 68 78 81 87 92 100 100 100 100 100 100 100 100 8 16 7 86 100 66 58 100 100 68 78 54 44 84 23 66 100 73 52
100 100 99 68 100 100 96 100 89 100 96 78 46 78 100 100 100 100 100 55 100 100 100 100 57 27 99 95 95 94 46 100 100 100 84 43 100 81 37 79 100 53 23
100 100 100 100 100 100 100 100 100 100 100 100 100 100 100 100 100 100 100 100 100 100 99 91 95 86 100 78 93 91 98 100 100 100 100 100 100 100 100 100 87 62 47
100 100 100 100 100 100 100 100 100 100 100 100 100 100 100 100 100 100 100 100 100 100 100 65 96 72 72 100 100 100 100 94 70 96 100 100 100 100 100 100 66 58 96
94 100 100 100 100 100 100 100 100 100 100 100 100 100 97 100 100 100 100 100 100 100 58 91 97 32 100 100 100 100 100 100 100 100 99 100 100 100 100 92 28 92 100
100 95 100 100 100 100 100 100 100 100 100 100 100 100 100 100 100 100 100 100 100 100 100 94 100 73 27 100 100 100 99 85 89 100 99 100 93 100 100 99 95 28 99
98 100 100 100 100 100 100 100 100 100 100 100 100 100 100 100 100 100 100 94 88 92 100 93 34 10 27 92 98 100 95 100 100 97 97 97 100 100 100 100 100 86 94
100 100 100 100 100 100 100 100 100 100 100 100 100 100 100 100 100 92 63 78 100 100 62 53 100 76 98 100 89 98 100 100 100 97 100 100 100 100 100 98 100 100 96
100 100 100 100 100 100 100 100 100 100 100 100 100 100 100 100 100 92 98 97 100 100 88 100 100 100 100 100 100 100 100 98 100 98 100 99 100 99 94 95 100 100 100
100 100 100 100 100 100 100 100 100 100 100 100 100 100 100 100 100 100 100 100 100 100 100 100 100 100 100 100 91 100 100 100 100 100 100 82 100 96 100 100 100 100 92
100 100 100 100 100 100 100 100 100 100 100 100 100 100 100 100 100 100 100 100 100 100 100 100 100 100 89 100 100 98 100 100 100 97 100 100 100 100 100 100 100 100 30
100 100 100 100 100 100 100 100 100 100 100 100 100 100 100 100 100 100 100 100 100 100 100 100 100 100 100 100 100 100 100 100 100 100 99 100 100 100 100 100 83 88 30
100 100 100 100 100 100 100 100 100 100 100 100 100 100 100 100 100 100 100 100 100 100 100 100 100 100 100 100 100 100 100 100 100 100 100 100 100 100 100 96 90 96 29
100 100 100 100 100 100 100 100 99 100 100 100 100 100 100 100 100 100 100 100 100 100 100 100 100 100 100 100 100 100 100 100 100 100 100 100 100 100 100 82 82 81 100
100 100 100 100 100 100 100 100 100 100 100 100 100 100 100 100 100 100 100 100 100 100 100 100 100 100 100 100 100 100 100 100 100 100 100 100 100 100 100 100 60 85 93
100 100 100 100 100 100 100 100 100 100 100 100 100 100 100 100 100 100 100 100 100 100 100 100 100 100 100 100 100 100 100 100 100 100 100 100 100 100 27 100 100 100 100
100 100 100 100 100 100 100 100 100 100 100 100 100 100 100 100 100 100 100 100 100 100 100 100 100 100 100 100 100 100 100 100 100 100 100 100 100 100 99 100 100 100 100
100 100 100 100 100 100 100 100 100 100 100 100 100 100 100 100 100 100 100 100 100 100 100 100 100 100 100 100 100 100 100 100 100 100 100 100 100 100 100 100 100 90 16
100 100 100 100 100 100 100 100 100 100 100 100 100 100 100 100 100 100 100 100 100 100 100 100 100 100 100 100 100 100 100 100 100 100 100 100 100 100 100 100 100 99 66
100 100 100 100 100 100 100 100 100 100 100 100 100 100 100 100 100 100 100 100 100 100 100 100 100 100 100 100 100 100 100 100 100 100 100 100 100 100 100 100 100 100 100
100 100 100 100 100 100 100 100 100 100 100 100 100 100 100 100 100 100 100 100 100 98 100 100 100 100 100 100 100 100 100 100 100 100 100 100 100 100 100 100 100 100 100
100 100 100 100 100 100 100 100 100 100 100 100 100 100 100 100 100 96 100 100 100 100 100 100 100 100 100 100 100 100 100 100 100 100 100 100 100 100 100 100 99 97 54
65 41 72 96 75 86 97 100 100 93 82 94 100 95 100 96 97 100 100 100 100 100 100 100 100 100 100 100 99 99 100 100 100 100 100 100 100 100 100 100 90 60 91
100 78 65 12 5 22 23 95 96 93 90 100 94 100 100 100 100 100 100 100 100 91 100 100 100 100 100 89 74 96 100 100 100 100 93 100 100 100 100 99 100 100 100

GFSMA_prec_cloud_114.txt.gz
Cloud_Cover
78 100 90 30 55 95 100 51 64 100 99 90 5 74 15 44 30 34 5 6 72 100 100 100 100 100 100 100 48 8 46 71 90 75 100 90 89 100 99 71 100 63 30
24 100 100 49 67 41 39 100 100 93 100 100 46 73 42 68 79 41 9 84 100 100 100 94 99 100 100 100 98 93 54 6 76 63 14 100 99 100 100 100 100 84 100
16 19 85 99 100 100 96 95 95 93 96 99 80 99 99 75 100 98 100 100 83 100 100 100 100 100 100 100 83 100 100 75 15 93 5 23 100 100 100 78 68 100 100
99 23 96 100 92 100 90 100 51 100 99 96 39 59 94 100 100 97 100 100 100 100 100 100 100 100 100 100 100 89 100 19 83 8 17 61 17 57 78 92 100 97 100
93 54 52 100 72 96 100 100 100 100 100 55 100 100 100 99 100 100 100 97 100 100 100 100 100 100 97 99 87 88 47 93 58 49 36 100 64 37 40 100 96 90 100
100 98 100 87 100 100 100 100 100 100 100 71 97 100 100 100 100 100 100 100 100 100 100 100 27 59 100 100 64 9 74 99 82 97 58 100 100 65 8 62 100 57 39
98 100 100 100 100 100 100 100 100 100 100 100 100 100 100 100 100 100 100 100 100 100 100 86 58 77 78 100 100 75 85 100 97 100 100 100 94 78 54 100 80 26 100
62 70 78 100 98 100 100 100 100 100 100 100 100 100 100 100 100 100 100 100 100 88 81 56 51 98 87 52 88 99 10 98 100 100 100 100 31 66 24 100 100 100 64
100 90 27 6 99 100 100 100 100 100 100 100 100 100 100 100 100 100 100 100 100 100 86 76 80 99 86 95 98 96 95 94 99 100 100 94 95 69 45 99 100 100 100
80 95 52 70 99 100 100 100 100 100 100 100 100 100 100 100 100 100 100 100 100 99 99 100 100 100 100 78 95 100 97 100 100 95 99 100 100 98 99 100 99 100 100
99 90 74 100 100 100 100 100 100 100 100 100 100 100 100 100 100 100 100 100 100 100 100 100 100 100 100 99 97 100 100 93 77 100 100 100 100 100 97 100 100 91 100
100 100 100 100 100 100 100 100 100 100 100 100 100 100 100 100 100 100 100 100 100 100 100 100 100 100 100 90 100 100 100 100 100 97 95 100 99 100 100 89 45 100 97
100 100 100 100 100 100 100 100 100 100 100 100 100 100 100 100 100 100 100 100 100 100 100 100 100 100 100 100 100 100 100 90 98 100 100 100 100 100 100 100 100 76 94
100 100 100 100 100 100 100 100 100 100 100 100 100 100 100 100 100 100 100 100 100 100 100 100 100 100 100 100 100 100 100 100 100 100 74 100 100 100 100 99 100 100 100
100 100 100 100 100 100 100 100 100 100 100 100 100 100 100 100 100 100 100 100 100 100 100 100 100 100 100 100 100 100 100 100 100 100 100 100 100 100 100 100 100 100 100
100 100 100 100 100 100 100 100 100 100 100 100 100 100 100 100 100 100 100 100 100 100 100 100 100 100 100 100 100 100 100 100 100 100 100 100 100 100 100 100 99 100 93
100 100 100 100 100 100 100 100 100 100 100 100 100 100 100 100 100 100 100 100 100 100 100 100 100 100 100 100 100 100 100 100 100 100 100 100 100 100 76 100 98 88 61
100 100 100 100 100 100 100 100 100 100 100 100 100 100 100 100 100 100 100 100 100 100 100 100 100 100 100 100 100 100 100 100 72 99 100 100 100 100 98 66 92 98 100
100 100 100 100 100 100 100 100 100 100 100 100 100 100 100 100 100 100 100 100 100 100 100 100 100 100 100 100 100 100 100 100 100 100 100 100 100 100 100 100 100 100 100
100 100 100 100 100 100 100 100 100 100 100 100 100 100 100 100 100 100 100 100 100 100 100 100 100 100 100 100 100 100 100 100 100 100 100 100 100 100 100 100 100 100 100
100 100 100 100 100 100 100 100 100 100 100 100 100 100 100 100 100 100 100 100 100 100 100 100 100 100 100 100 100 100 100 100 100 100 100 100 100 100 100 100 100 100 100
100 100 100 100 100 100 100 100 100 100 100 100 100 100 100 100 100 100 100 100 100 100 100 100 100 100 100 100 100 100 100 100 100 100 100 100 100 100 100 100 100 100 100
100 100 100 100 100 100 100 100 100 100 100 100 100 100 100 100 100 100 100 100 100 100 100 100 100 100 100 100 100 100 100 100 100 100 100 100 100 100 100 100 100 100 100
100 100 100 100 100 100 100 100 100 100 100 100 100 100 100 98 78 98 100 100 100 100 100 100 100 100 100 100 100 100 100 100 100 100 99 100 100 100 100 100 100 94 100
77 16 47 82 80 71 5 11 8 21 19 4 6 14 11 36 16 100 80 42 29 100 100 100 100 100 100 100 100 100 100 100 100 100 100 100 92 99 100 100 85 84 99
7 5 5 5 5 6 75 51 54 100 100 100 70 16 99 100 96 100 100 100 100 61 96 100 100 92 100 100 100 100 100 87 100 100 100 100 100 50 8 5 83 12 86

GFSMA_prec_cloud_120.txt.gz
Cloud_Cover
53 36 44 99 96 66 41 25 31 53 100 100 100 100 100 100 96 18 48 100 100 100 94 100 100 85 98 100 100 100 84 93 87 62 77 80 12 63 61 33 80 100 93
49 87 22 66 65 100 99 70 11 73 51 100 100 100 100 100 100 100 100 60 87 100 100 100 100 100 100 100 100 100 100 84 92 68 10 6 17 72 96 44 74 100 74
66 40 53 42 42 35 28 98 53 5 89 87 12 46 21 99 100 100 99 100 100 100 100 100 100 100 100 100 100 100 100 83 100 100 83 93 5 16 100 70 12 24 91
60 39 77 71 29 36 84 55 48 99 10 100 97 80 5 5 5 97 95 98 100 100 99 100 100 100 100 100 100 100 100 100 56 99 76 100 45 35 10 96 44 5 81
65 5 6 58 98 59 97 74 24 41 92 95 97 100 70 44 52 100 100 100 100 100 100 100 100 100 100 100 100 100 100 100 100 100 100 91 9 48 34 53 81 65 5
91 80 84 9 39 66 91 99 67 44 28 70 61 43 100 100 100 100 99 100 100 100 100 100 100 100 100 100 100 100 100 100 100 94 97 5 30 5 93 99 51 98 94
5 25 7 15 91 100 100 100 82 100 64 81 100 11 77 100 100 100 99 100 100 89 100 100 100 100 100 100 100 100 100 100 100 86 94 100 100 93 5 70 100 25 20
5 17 53 100 96 72 100 99 100 100 85 95 93 94 100 100 100 100 100 100 99 99 100 100 100 100 100 100 100 100 100 100 100 98 100 100 97 100 48 99 24 39 63
0 20 48 100 87 40 100 100 80 100 76 98 61 100 90 97 100 94 100 100 100 100 100 100 100 100 100 100 100 100 100 100 90 96 100 100 95 100 71 100 100 99 100
5 18 54 57 46 93 100 100 100 100 93 100 72 100 84 95 100 94 100 100 100 100 100 100 100 100 100 100 100 100 100 100 100 100 100 100 100 95 100 100 100 100 100
56 75 46 54 100 100 100 100 100 100 100 100 100 90 100 100 100 100 100 100 100 100 100 100 100 100 100 100 100 100 100 100 100 100 100 100 100 100 100 100 98 100 100
87 92 94 69 78 96 100 100 100 100 100 100 100 100 100 100 100 100 100 98 100 100 100 100 100 100 100 100 100 100 100 100 100 100 100 100 100 100 100 100 100 100 100
100 100 100 99 91 99 100 100 83 87 100 100 100 100 100 100 100 100 100 100 99 100 100 100 100 100 100 100 100 100 100 100 100 100 100 100 100 100 100 100 100 100 100
100 44 63 100 98 96 100 100 71 100 99 100 100 100 100 100 100 100 100 100 100 100 100 100 100 100 100 100 100 100 100 100 100 100 100 100 100 99 100 100 100 100 100
64 74 60 100 100 100 100 100 100 100 100 100 100 100 100 100 100 100 100 100 100 100 100 100 100 100 100 100 100 100 100 100 100 100 100 100 100 95 99 100 100 100 96
100 100 100 100 100 100 100 100 100 100 100 100 100 100 100 100 100 100 100 100 100 100 100 100 100 100 100 100 100 100 100 100 100 100 100 100 100 100 100 100 100 100 100
100 100 100 100 100 100 100 100 100 100 100 100 100 100 100 100 100 100 100 100 100 100 100 100 100 100 100 100 100 100 100 100 100 100 100 100 100 100 100 100 100 100 100
100 100 100 100 100 100 100 100 100 100 100 100 100 100 100 100 100 100 100 100 100 100 100 100 100 100 100 100 100 100 100 100 100 100 100 100 100 100 100 100 100 100 100
100 100 100 100 100 100 100 100 100 100 100 100 100 100 100 100 100 100 100 100 100 100 100 100 100 100 100 100 100 100 100 100 100 100 100 100 100 100 100 100 100 100 100
100 100 100 100 100 100 100 100 100 100 100 100 100 100 100 100 100 100 100 100 100 100 100 100 100 100 100 100 100 100 100 100 100 100 100 100 100 100 100 100 100 100 100
100 100 100 100 100 100 100 100 100 100 100 100 100 100 100 100 100 100 100 100 100 100 100 100 100 100 100 100 100 100 100 100 100 100 100 100 100 100 100 100 100 100 100
100 100 100 100 100 100 100 100 100 100 100 100 100 100 100 100 100 100 98 100 100 100 100 100 100 100 100 100 100 100 100 100 100 93 100 100 100 100 100 100 100 100 100
100 100 100 100 100 100 100 100 100 100 100 100 100 96 94 70 64 57 6 100 100 100 100 100 100 100 100 100 100 100 100 100 100 100 100 100 100 100 100 100 100 100 100
100 100 100 100 100 76 59 90 84 37 26 5 5 5 5 5 5 14 92 90 86 62 59 96 100 100 100 100 100 100 100 100 100 100 100 100 100 100 100 100 100 100 100
90 16 74 100 77 29 28 80 16 5 5 5 5 5 5 5 6 81 44 19 42 87 100 90 28 67 86 100 97 100 100 100 100 100 100 100 100 100 100 100 100 100 100
5 20 88 17 78 36 6 46 29 5 5 5 5 5 5 8 68 100 100 100 100 99 100 86 19 6 44 100 100 100 100 100 100 100 100 100 100 100 100 100 100 100 100

GFSMA_prec_cloud_123.txt.gz
Cloud_Cover
100 84 9 75 74 58 76 3 11 20 22 3 0 35 100 100 99 98 100 100 100 100 100 100 71 69 85 100 100 100 100 100 100 100 100 54 73 100 82 8 5 72 99
100 96 99 29 49 9 93 33 45 18 5 60 12 5 33 23 36 96 100 100 100 100 100 100 100 98 100 100 100 100 100 100 100 100 100 79 90 100 100 36 57 87 68
100 66 14 97 10 16 100 56 8 100 47 5 5 5 51 40 5 5 5 5 46 100 100 100 100 100 100 100 89 100 100 100 100 100 95 70 91 100 100 12 6 34 52
100 100 61 88 100 48 13 69 84 64 59 62 88 97 38 98 74 100 13 5 5 5 4 51 100 100 100 100 100 83 100 100 100 100 100 100 100 100 100 50 8 5 5
100 100 100 100 93 41 65 78 41 57 86 50 6 7 56 22 69 100 99 54 58 48 75 100 100 100 100 100 100 100 98 100 100 100 100 100 100 100 88 100 24 100 75
30 30 29 26 17 17 78 99 100 99 90 77 47 28 5 5 50 19 12 67 74 99 100 100 100 100 100 100 100 100 100 100 100 100 100 100 91 98 87 91 11 97 97
3 1 4 5 7 25 97 87 73 13 100 32 100 95 62 6 11 5 9 63 73 100 100 100 100 100 100 100 100 100 100 100 100 100 100 100 100 83 88 6 25 83 100
3 1 8 5 5 34 57 100 96 3 21 51 70 100 94 13 70 5 37 100 100 100 100 98 100 100 100 100 100 100 100 88 100 100 100 100 100 97 87 97 100 100 100
8 0 0 3 8 5 60 34 25 10 98 54 100 98 100 55 0 12 98 78 97 99 62 94 100 100 100 97 100 100 100 100 100 100 100 100 100 100 95 100 95 87 80
39 11 0 6 5 9 100 71 26 10 11 99 85 86 79 98 100 96 100 80 35 100 100 100 99 99 100 100 100 100 100 100 100 100 100 100 100 100 85 100 98 94 100
20 21 17 27 67 48 16 36 54 97 100 100 100 100 85 90 100 100 100 27 100 100 100 100 100 100 100 100 100 100 100 100 100 100 100 100 100 100 100 100 100 100 100
100 83 19 6 49 45 54 91 100 100 100 100 100 100 100 100 100 100 100 100 100 100 100 100 74 96 90 100 100 100 100 100 100 100 100 100 100 100 100 100 100 100 100
100 100 92 46 27 100 100 82 90 100 100 100 100 100 100 100 100 100 100 100 100 100 99 100 100 100 97 100 100 100 100 100 100 100 100 100 100 100 100 100 100 100 100
100 100 100 99 48 55 69 98 100 100 100 100 100 100 96 100 100 100 100 100 100 100 100 100 100 100 100 100 100 100 100 100 100 100 100 100 100 100 100 99 100 100 100
98 23 75 100 100 100 100 100 100 100 100 100 100 100 100 100 100 100 100 100 100 100 100 100 99 100 100 100 100 100 100 100 100 100 100 100 100 100 100 100 100 100 100
100 100 88 55 55 100 100 100 100 100 100 100 100 100 100 100 100 100 100 100 100 100 100 100 100 100 100 100 100 100 100 100 100 100 100 100 100 100 100 100 100 100 100
100 100 97 100 100 100 100 100 100 100 100 100 100 100 100 100 100 100 100 100 100 100 100 100 100 100 100 100 100 100 100 100 100 100 100 100 100 100 98 98 100 100 100
100 100 100 100 100 100 100 100 100 100 100 100 100 100 100 100 100 100 100 100 100 100 100 100 100 100 100 100 100 100 100 100 100 100 100 100 100 100 100 100 100 100 100
100 100 100 100 100 100 100 100 100 100 100 100 100 100 100 100 100 100 100 100 100 100 100 100 100 100 100 100 100 98 80 100 100 100 100 100 100 100 100 100 100 100 100
100 100 100 100 100 100 100 100 100 100 100 100 100 100 100 100 100 100 100 100 100 100 100 100 100 100 100 100 100 100 100 100 100 100 100 100 100 100 100 100 100 100 100
100 100 100 100 100 100 100 100 100 100 100 100 100 100 100 100 100 100 100 100 100 100 100 100 100 100 100 98 100 100 100 100 100 100 100 100 100 100 100 100 100 100 100
100 100 100 100 100 100 100 100 100 100 100 100 100 100 100 100 100 100 100 100 100 100 100 100 100 100 100 100 83 97 100 100 100 100 96 98 100 100 100 100 100 100 100
100 100 100 100 100 100 100 100 100 100 100 100 100 100 100 100 100 100 100 100 100 99 100 100 100 100 100 98 100 100 100 100 100 91 100 100 81 100 100 100 100 100 100
100 100 100 100 100 100 100 100 100 100 100 100 100 100 100 19 5 5 20 36 29 4 5 5 10 55 42 97 100 100 100 100 100 100 100 100 100 100 100 100 100 100 100
100 100 100 100 100 100 100 77 55 98 100 72 7 8 4 5 7 96 100 100 100 100 87 72 100 32 5 5 5 58 100 100 100 100 100 100 100 100 100 100 100 100 100
100 93 5 5 9 5 5 5 3 5 5 3 5 5 5 5 26 92 100 100 100 100 100 100 5 5 10 22 100 88 100 100 100 100 100 100 100 100 100 100 100 100 100

GFSMA_prec_cloud_126.txt.gz
Cloud_Cover
100 100 100 100 14 6 100 100 66 14 5 4 0 0 0 0 0 3 14 73 96 97 82 87 100 100 100 100 100 100 100 38 55 97 100 100 100 100 100 100 100 71 100
100 100 100 100 85 84 82 100 79 36 81 30 5 5 5 5 2 5 5 5 5 5 5 3 60 67 87 100 100 100 100 100 100 100 99 100 100 100 100 100 100 83 100
100 68 100 100 100 83 74 97 100 100 52 12 17 91 53 20 5 22 5 6 8 94 11 5 5 4 1 0 6 98 100 100 100 100 100 100 100 100 100 100 100 100 9
5 8 29 91 74 90 15 98 100 100 100 31 33 11 25 60 5 21 99 72 53 58 72 23 32 55 31 94 100 100 100 100 100 100 100 100 100 100 100 100 100 83 13
84 65 56 8 68 69 70 27 46 30 61 6 18 5 25 6 5 5 5 5 39 26 5 23 83 58 57 66 91 100 100 100 100 100 62 100 100 100 100 100 100 100 28
99 49 12 11 20 41 7 62 96 95 82 88 88 88 28 10 5 5 1 5 5 5 5 21 55 87 100 100 88 91 99 100 100 100 100 100 100 100 90 99 100 100 100
0 5 4 0 1 6 72 9 46 100 100 90 100 47 59 100 0 0 0 1 4 11 36 97 72 100 87 79 91 100 100 82 17 100 100 100 100 100 94 100 100 100 100
21 5 0 0 0 3 5 5 5 53 50 6 8 98 96 14 74 0 0 0 0 5 51 100 100 100 87 71 100 100 83 98 100 100 92 100 98 100 100 100 100 100 93
100 100 34 40 1 0 6 61 24 5 32 5 5 4 57 57 12 1 29 0 0 1 92 54 32 60 94 100 86 100 99 44 100 100 100 100 100 100 100 100 100 100 100
60 20 1 30 14 6 1 9 18 27 7 18 37 37 5 38 97 27 18 18 45 11 99 79 99 63 100 98 100 98 100 82 100 100 100 100 100 100 100 100 100 100 100
43 50 6 39 1 0 4 1 6 28 21 78 61 79 60 12 64 100 77 96 96 100 100 100 99 100 100 100 100 100 100 66 100 100 78 82 100 100 100 100 100 100 100
0 69 2 12 12 76 74 20 14 20 28 43 100 100 100 100 100 98 100 100 100 100 100 100 100 100 100 100 100 100 100 95 96 99 75 100 100 100 100 100 100 100 100
0 17 37 78 58 46 60 99 23 41 57 59 96 100 100 100 100 100 100 100 100 99 100 100 100 100 100 100 100 100 100 100 100 100 100 100 100 100 100 100 100 100 100
1 0 1 12 0 63 52 90 61 32 48 59 78 98 100 99 100 100 100 100 100 98 100 100 100 100 100 100 100 100 100 100 100 100 100 100 100 100 100 100 100 100 100
60 100 96 99 100 99 100 100 61 56 100 100 100 100 100 100 100 100 100 100 100 87 93 100 100 100 100 100 100 100 100 100 100 100 100 100 100 100 100 100 100 100 100
34 87 100 80 78 95 100 100 100 100 100 100 100 100 100 100 100 100 100 100 100 100 100 100 100 72 100 100 100 100 100 100 100 100 100 100 100 100 100 100 100 100 100
96 100 100 100 100 100 98 100 100 100 100 100 100 100 100 100 100 100 100 100 100 100 100 100 100 100 100 100 100 100 100 97 100 100 100 100 100 100 100 100 100 100 100
100 100 100 100 100 80 100 100 100 100 100 100 100 100 100 100 100 100 100 100 100 100 100 100 100 100 100 100 98 96 100 100 100 100 100 100 100 100 100 100 100 100 100
100 99 100 100 100 100 100 100 100 100 100 100 100 100 100 100 100 100 100 100 100 100 100 100 100 100 100 100 100 100 100 100 100 100 100 100 100 100 100 100 100 100 100
100 80 100 100 100 100 100 100 100 100 100 100 100 100 100 100 100 100 100 100 100 100 100 100 100 100 100 100 100 100 100 100 100 100 100 100 68 18 8 57 99 100 100
100 100 100 100 100 100 100 100 100 100 100 100 100 100 100 100 100 100 100 100 100 100 100 100 100 100 100 100 100 100 100 100 100 100 100 39 4 5 27 22 51 100 100
100 100 100 100 100 100 100 100 100 100 100 100 100 100 100 100 100 100 100 100 100 100 100 100 100 100 100 100 100 92 55 92 84 15 54 100 28 66 46 13 38 100 100
100 100 100 100 100 100 100 100 100 100 100 100 100 100 100 100 100 100 100 100 100 100 100 100 100 100 75 75 97 100 45 27 55 12 34 81 40 66 26 99 98 100 100
100 100 100 100 100 100 100 100 100 100 100 100 100 100 100 100 100 100 100 100 100 100 100 45 22 49 84 11 11 12 76 100 100 100 67 99 78 25 75 33 92 96 100
100 100 100 100 100 100 100 100 100 100 100 100 100 100 100 100 100 100 100 100 99 15 18 99 100 98 42 60 100 96 91 99 100 100 100 100 100 98 100 74 76 100 100
100 100 100 100 100 100 100 100 100 100 100 100 97 56 7 5 5 42 14 18 51 11 100 100 100 100 100 100 64 100 100 100 100 100 100 100 100 100 100 100 100 36 100